<?xml version="1.0" encoding="UTF-8" standalone="no" ?>
<gpx xmlns="http://www.topografix.com/GPX/1/1" xmlns:xsi="http://www.w3.org/2001/XMLSchema-instance" xsi:schemaLocation="http://www.topografix.com/GPX/1/1 http://www.topografix.com/GPX/1/1/gpx.xsd" version="1.1" creator="VisuGPX - https://www.visugpx.com">
  <metadata>
    <name>samedi 19 04 25</name>
  </metadata>
  <wpt lat="45.41555" lon="0.30443">
    <ele>122.1</ele>
    <name><![CDATA[Ravitaillement]]></name>
  </wpt>
  <wpt lat="45.41556" lon="0.30452">
    <ele>121.6</ele>
    <name><![CDATA[Ravitaillement]]></name>
  </wpt>
  <wpt lat="45.41555" lon="0.30455">
    <ele>121.7</ele>
    <name><![CDATA[Ravitaillement]]></name>
  </wpt>
  <trk>
    <name><![CDATA[samedi 98km]]></name>
    <extensions>
      <line xmlns="http://www.topografix.com/GPX/gpx_style/0/2">
        <color>FF0000</color>
        <width>6</width>
          <extensions>
            <sens>1</sens>
          </extensions>
      </line>
    </extensions>
    <trkseg>
      <trkpt lat="45.24957" lon="0.33705">
        <ele>72</ele>
        <time>2025-04-11T08:57:32Z</time>
      </trkpt>
      <trkpt lat="45.24984" lon="0.337">
        <ele>72</ele>
        <time>2025-04-11T08:57:37Z</time>
      </trkpt>
      <trkpt lat="45.25077" lon="0.33681">
        <ele>70</ele>
        <time>2025-04-11T08:57:54Z</time>
      </trkpt>
      <trkpt lat="45.25073" lon="0.33623">
        <ele>71</ele>
        <time>2025-04-11T08:58:01Z</time>
      </trkpt>
      <trkpt lat="45.25075" lon="0.33595">
        <ele>72</ele>
        <time>2025-04-11T08:58:04Z</time>
      </trkpt>
      <trkpt lat="45.25076" lon="0.33593">
        <ele>72</ele>
        <time>2025-04-11T08:58:05Z</time>
      </trkpt>
      <trkpt lat="45.25038" lon="0.33585">
        <ele>74</ele>
        <time>2025-04-11T08:58:12Z</time>
      </trkpt>
      <trkpt lat="45.24945" lon="0.33548">
        <ele>78</ele>
        <time>2025-04-11T08:58:29Z</time>
      </trkpt>
      <trkpt lat="45.24998" lon="0.33407">
        <ele>87</ele>
        <time>2025-04-11T08:58:49Z</time>
      </trkpt>
      <trkpt lat="45.25008" lon="0.33391">
        <ele>88</ele>
        <time>2025-04-11T08:58:51Z</time>
      </trkpt>
      <trkpt lat="45.25018" lon="0.33382">
        <ele>89</ele>
        <time>2025-04-11T08:58:54Z</time>
      </trkpt>
      <trkpt lat="45.25032" lon="0.33373">
        <ele>89</ele>
        <time>2025-04-11T08:58:56Z</time>
      </trkpt>
      <trkpt lat="45.25103" lon="0.33344">
        <ele>92</ele>
        <time>2025-04-11T08:59:09Z</time>
      </trkpt>
      <trkpt lat="45.25152" lon="0.33321">
        <ele>93</ele>
        <time>2025-04-11T08:59:19Z</time>
      </trkpt>
      <trkpt lat="45.25172" lon="0.33305">
        <ele>95</ele>
        <time>2025-04-11T08:59:23Z</time>
      </trkpt>
      <trkpt lat="45.25187" lon="0.33291">
        <ele>95</ele>
        <time>2025-04-11T08:59:26Z</time>
      </trkpt>
      <trkpt lat="45.25198" lon="0.33274">
        <ele>96</ele>
        <time>2025-04-11T08:59:29Z</time>
      </trkpt>
      <trkpt lat="45.25205" lon="0.33258">
        <ele>97</ele>
        <time>2025-04-11T08:59:31Z</time>
      </trkpt>
      <trkpt lat="45.25212" lon="0.33236">
        <ele>98</ele>
        <time>2025-04-11T08:59:34Z</time>
      </trkpt>
      <trkpt lat="45.25221" lon="0.33184">
        <ele>99</ele>
        <time>2025-04-11T08:59:41Z</time>
      </trkpt>
      <trkpt lat="45.25224" lon="0.33149">
        <ele>100</ele>
        <time>2025-04-11T08:59:45Z</time>
      </trkpt>
      <trkpt lat="45.25222" lon="0.33088">
        <ele>100</ele>
        <time>2025-04-11T08:59:53Z</time>
      </trkpt>
      <trkpt lat="45.25219" lon="0.33059">
        <ele>100</ele>
        <time>2025-04-11T08:59:57Z</time>
      </trkpt>
      <trkpt lat="45.25213" lon="0.3303">
        <ele>100</ele>
        <time>2025-04-11T09:00:00Z</time>
      </trkpt>
      <trkpt lat="45.25187" lon="0.32935">
        <ele>100</ele>
        <time>2025-04-11T09:00:13Z</time>
      </trkpt>
      <trkpt lat="45.25165" lon="0.32854">
        <ele>98</ele>
        <time>2025-04-11T09:00:24Z</time>
      </trkpt>
      <trkpt lat="45.25162" lon="0.32835">
        <ele>97</ele>
        <time>2025-04-11T09:00:26Z</time>
      </trkpt>
      <trkpt lat="45.2516" lon="0.32797">
        <ele>98</ele>
        <time>2025-04-11T09:00:31Z</time>
      </trkpt>
      <trkpt lat="45.25162" lon="0.32774">
        <ele>98</ele>
        <time>2025-04-11T09:00:34Z</time>
      </trkpt>
      <trkpt lat="45.25183" lon="0.32656">
        <ele>97</ele>
        <time>2025-04-11T09:00:49Z</time>
      </trkpt>
      <trkpt lat="45.25187" lon="0.32613">
        <ele>93</ele>
        <time>2025-04-11T09:00:55Z</time>
      </trkpt>
      <trkpt lat="45.25182" lon="0.32575">
        <ele>91</ele>
        <time>2025-04-11T09:01:00Z</time>
      </trkpt>
      <trkpt lat="45.25177" lon="0.32559">
        <ele>90</ele>
        <time>2025-04-11T09:01:02Z</time>
      </trkpt>
      <trkpt lat="45.25171" lon="0.32545">
        <ele>90</ele>
        <time>2025-04-11T09:01:04Z</time>
      </trkpt>
      <trkpt lat="45.2516" lon="0.32531">
        <ele>89</ele>
        <time>2025-04-11T09:01:07Z</time>
      </trkpt>
      <trkpt lat="45.25098" lon="0.32469">
        <ele>88</ele>
        <time>2025-04-11T09:01:20Z</time>
      </trkpt>
      <trkpt lat="45.25089" lon="0.32455">
        <ele>88</ele>
        <time>2025-04-11T09:01:22Z</time>
      </trkpt>
      <trkpt lat="45.25084" lon="0.32438">
        <ele>87</ele>
        <time>2025-04-11T09:01:25Z</time>
      </trkpt>
      <trkpt lat="45.25083" lon="0.32424">
        <ele>87</ele>
        <time>2025-04-11T09:01:26Z</time>
      </trkpt>
      <trkpt lat="45.25084" lon="0.3241">
        <ele>87</ele>
        <time>2025-04-11T09:01:28Z</time>
      </trkpt>
      <trkpt lat="45.25089" lon="0.32395">
        <ele>88</ele>
        <time>2025-04-11T09:01:30Z</time>
      </trkpt>
      <trkpt lat="45.25099" lon="0.32381">
        <ele>89</ele>
        <time>2025-04-11T09:01:33Z</time>
      </trkpt>
      <trkpt lat="45.25113" lon="0.32369">
        <ele>89</ele>
        <time>2025-04-11T09:01:36Z</time>
      </trkpt>
      <trkpt lat="45.25153" lon="0.32324">
        <ele>90</ele>
        <time>2025-04-11T09:01:45Z</time>
      </trkpt>
      <trkpt lat="45.25162" lon="0.3231">
        <ele>91</ele>
        <time>2025-04-11T09:01:47Z</time>
      </trkpt>
      <trkpt lat="45.25174" lon="0.32284">
        <ele>92</ele>
        <time>2025-04-11T09:01:51Z</time>
      </trkpt>
      <trkpt lat="45.25186" lon="0.32223">
        <ele>94</ele>
        <time>2025-04-11T09:01:59Z</time>
      </trkpt>
      <trkpt lat="45.25193" lon="0.32197">
        <ele>94</ele>
        <time>2025-04-11T09:02:02Z</time>
      </trkpt>
      <trkpt lat="45.252" lon="0.3218">
        <ele>94</ele>
        <time>2025-04-11T09:02:05Z</time>
      </trkpt>
      <trkpt lat="45.25244" lon="0.32111">
        <ele>92</ele>
        <time>2025-04-11T09:02:17Z</time>
      </trkpt>
      <trkpt lat="45.25249" lon="0.32098">
        <ele>92</ele>
        <time>2025-04-11T09:02:18Z</time>
      </trkpt>
      <trkpt lat="45.25251" lon="0.32083">
        <ele>92</ele>
        <time>2025-04-11T09:02:20Z</time>
      </trkpt>
      <trkpt lat="45.25253" lon="0.32013">
        <ele>88</ele>
        <time>2025-04-11T09:02:29Z</time>
      </trkpt>
      <trkpt lat="45.25256" lon="0.3196">
        <ele>85</ele>
        <time>2025-04-11T09:02:36Z</time>
      </trkpt>
      <trkpt lat="45.25261" lon="0.31939">
        <ele>83</ele>
        <time>2025-04-11T09:02:39Z</time>
      </trkpt>
      <trkpt lat="45.25298" lon="0.31842">
        <ele>80</ele>
        <time>2025-04-11T09:02:52Z</time>
      </trkpt>
      <trkpt lat="45.25302" lon="0.31824">
        <ele>80</ele>
        <time>2025-04-11T09:02:55Z</time>
      </trkpt>
      <trkpt lat="45.25305" lon="0.318">
        <ele>78</ele>
        <time>2025-04-11T09:02:58Z</time>
      </trkpt>
      <trkpt lat="45.25307" lon="0.31779">
        <ele>77</ele>
        <time>2025-04-11T09:03:00Z</time>
      </trkpt>
      <trkpt lat="45.25305" lon="0.31744">
        <ele>76</ele>
        <time>2025-04-11T09:03:05Z</time>
      </trkpt>
      <trkpt lat="45.25297" lon="0.31669">
        <ele>75</ele>
        <time>2025-04-11T09:03:14Z</time>
      </trkpt>
      <trkpt lat="45.25294" lon="0.31621">
        <ele>70</ele>
        <time>2025-04-11T09:03:20Z</time>
      </trkpt>
      <trkpt lat="45.25297" lon="0.31524">
        <ele>65</ele>
        <time>2025-04-11T09:03:33Z</time>
      </trkpt>
      <trkpt lat="45.25296" lon="0.31469">
        <ele>64</ele>
        <time>2025-04-11T09:03:39Z</time>
      </trkpt>
      <trkpt lat="45.25281" lon="0.31292">
        <ele>68</ele>
        <time>2025-04-11T09:04:02Z</time>
      </trkpt>
      <trkpt lat="45.25282" lon="0.31265">
        <ele>70</ele>
        <time>2025-04-11T09:04:05Z</time>
      </trkpt>
      <trkpt lat="45.25289" lon="0.31231">
        <ele>71</ele>
        <time>2025-04-11T09:04:10Z</time>
      </trkpt>
      <trkpt lat="45.253" lon="0.31204">
        <ele>73</ele>
        <time>2025-04-11T09:04:14Z</time>
      </trkpt>
      <trkpt lat="45.25338" lon="0.31129">
        <ele>74</ele>
        <time>2025-04-11T09:04:25Z</time>
      </trkpt>
      <trkpt lat="45.25652" lon="0.30573">
        <ele>67</ele>
        <time>2025-04-11T09:05:54Z</time>
      </trkpt>
      <trkpt lat="45.25676" lon="0.30526">
        <ele>68</ele>
        <time>2025-04-11T09:06:02Z</time>
      </trkpt>
      <trkpt lat="45.25792" lon="0.30277">
        <ele>67</ele>
        <time>2025-04-11T09:06:39Z</time>
      </trkpt>
      <trkpt lat="45.25805" lon="0.30244">
        <ele>67</ele>
        <time>2025-04-11T09:06:44Z</time>
      </trkpt>
      <trkpt lat="45.25834" lon="0.30158">
        <ele>66</ele>
        <time>2025-04-11T09:06:56Z</time>
      </trkpt>
      <trkpt lat="45.25862" lon="0.30093">
        <ele>67</ele>
        <time>2025-04-11T09:07:05Z</time>
      </trkpt>
      <trkpt lat="45.25875" lon="0.30058">
        <ele>67</ele>
        <time>2025-04-11T09:07:10Z</time>
      </trkpt>
      <trkpt lat="45.25885" lon="0.3002">
        <ele>67</ele>
        <time>2025-04-11T09:07:15Z</time>
      </trkpt>
      <trkpt lat="45.25938" lon="0.29746">
        <ele>66</ele>
        <time>2025-04-11T09:07:51Z</time>
      </trkpt>
      <trkpt lat="45.25942" lon="0.29721">
        <ele>66</ele>
        <time>2025-04-11T09:07:54Z</time>
      </trkpt>
      <trkpt lat="45.25949" lon="0.29633">
        <ele>69</ele>
        <time>2025-04-11T09:08:05Z</time>
      </trkpt>
      <trkpt lat="45.25958" lon="0.29581">
        <ele>72</ele>
        <time>2025-04-11T09:08:12Z</time>
      </trkpt>
      <trkpt lat="45.26082" lon="0.2914">
        <ele>74</ele>
        <time>2025-04-11T09:09:11Z</time>
      </trkpt>
      <trkpt lat="45.26096" lon="0.29106">
        <ele>72</ele>
        <time>2025-04-11T09:09:16Z</time>
      </trkpt>
      <trkpt lat="45.26128" lon="0.29038">
        <ele>68</ele>
        <time>2025-04-11T09:09:27Z</time>
      </trkpt>
      <trkpt lat="45.26132" lon="0.29021">
        <ele>67</ele>
        <time>2025-04-11T09:09:29Z</time>
      </trkpt>
      <trkpt lat="45.26135" lon="0.28991">
        <ele>66</ele>
        <time>2025-04-11T09:09:33Z</time>
      </trkpt>
      <trkpt lat="45.26131" lon="0.28959">
        <ele>66</ele>
        <time>2025-04-11T09:09:37Z</time>
      </trkpt>
      <trkpt lat="45.26089" lon="0.28772">
        <ele>67</ele>
        <time>2025-04-11T09:10:01Z</time>
      </trkpt>
      <trkpt lat="45.26077" lon="0.28705">
        <ele>66</ele>
        <time>2025-04-11T09:10:10Z</time>
      </trkpt>
      <trkpt lat="45.26039" lon="0.28479">
        <ele>64</ele>
        <time>2025-04-11T09:10:39Z</time>
      </trkpt>
      <trkpt lat="45.26037" lon="0.28455">
        <ele>64</ele>
        <time>2025-04-11T09:10:42Z</time>
      </trkpt>
      <trkpt lat="45.26038" lon="0.28435">
        <ele>63</ele>
        <time>2025-04-11T09:10:45Z</time>
      </trkpt>
      <trkpt lat="45.26041" lon="0.28418">
        <ele>63</ele>
        <time>2025-04-11T09:10:47Z</time>
      </trkpt>
      <trkpt lat="45.26052" lon="0.28386">
        <ele>63</ele>
        <time>2025-04-11T09:10:51Z</time>
      </trkpt>
      <trkpt lat="45.26177" lon="0.28164">
        <ele>60</ele>
        <time>2025-04-11T09:11:27Z</time>
      </trkpt>
      <trkpt lat="45.26191" lon="0.28134">
        <ele>60</ele>
        <time>2025-04-11T09:11:31Z</time>
      </trkpt>
      <trkpt lat="45.26317" lon="0.27798">
        <ele>64</ele>
        <time>2025-04-11T09:12:19Z</time>
      </trkpt>
      <trkpt lat="45.26344" lon="0.27732">
        <ele>62</ele>
        <time>2025-04-11T09:12:29Z</time>
      </trkpt>
      <trkpt lat="45.26357" lon="0.27709">
        <ele>63</ele>
        <time>2025-04-11T09:12:32Z</time>
      </trkpt>
      <trkpt lat="45.26437" lon="0.27586">
        <ele>66</ele>
        <time>2025-04-11T09:12:53Z</time>
      </trkpt>
      <trkpt lat="45.26449" lon="0.27562">
        <ele>66</ele>
        <time>2025-04-11T09:12:57Z</time>
      </trkpt>
      <trkpt lat="45.26465" lon="0.27521">
        <ele>68</ele>
        <time>2025-04-11T09:13:03Z</time>
      </trkpt>
      <trkpt lat="45.26542" lon="0.27204">
        <ele>70</ele>
        <time>2025-04-11T09:13:45Z</time>
      </trkpt>
      <trkpt lat="45.26553" lon="0.27169">
        <ele>71</ele>
        <time>2025-04-11T09:13:50Z</time>
      </trkpt>
      <trkpt lat="45.26571" lon="0.27118">
        <ele>71</ele>
        <time>2025-04-11T09:13:57Z</time>
      </trkpt>
      <trkpt lat="45.26591" lon="0.27074">
        <ele>72</ele>
        <time>2025-04-11T09:14:03Z</time>
      </trkpt>
      <trkpt lat="45.26781" lon="0.26754">
        <ele>76</ele>
        <time>2025-04-11T09:14:56Z</time>
      </trkpt>
      <trkpt lat="45.26806" lon="0.26699">
        <ele>76</ele>
        <time>2025-04-11T09:15:04Z</time>
      </trkpt>
      <trkpt lat="45.26849" lon="0.26563">
        <ele>75</ele>
        <time>2025-04-11T09:15:23Z</time>
      </trkpt>
      <trkpt lat="45.2686" lon="0.26518">
        <ele>74</ele>
        <time>2025-04-11T09:15:29Z</time>
      </trkpt>
      <trkpt lat="45.26881" lon="0.26414">
        <ele>72</ele>
        <time>2025-04-11T09:15:42Z</time>
      </trkpt>
      <trkpt lat="45.26889" lon="0.26388">
        <ele>72</ele>
        <time>2025-04-11T09:15:46Z</time>
      </trkpt>
      <trkpt lat="45.26924" lon="0.26296">
        <ele>75</ele>
        <time>2025-04-11T09:15:59Z</time>
      </trkpt>
      <trkpt lat="45.26942" lon="0.26237">
        <ele>77</ele>
        <time>2025-04-11T09:16:07Z</time>
      </trkpt>
      <trkpt lat="45.26947" lon="0.26213">
        <ele>76</ele>
        <time>2025-04-11T09:16:10Z</time>
      </trkpt>
      <trkpt lat="45.2695" lon="0.26188">
        <ele>75</ele>
        <time>2025-04-11T09:16:13Z</time>
      </trkpt>
      <trkpt lat="45.26952" lon="0.26079">
        <ele>75</ele>
        <time>2025-04-11T09:16:27Z</time>
      </trkpt>
      <trkpt lat="45.2696" lon="0.26032">
        <ele>77</ele>
        <time>2025-04-11T09:16:33Z</time>
      </trkpt>
      <trkpt lat="45.26967" lon="0.26005">
        <ele>77</ele>
        <time>2025-04-11T09:16:36Z</time>
      </trkpt>
      <trkpt lat="45.26976" lon="0.25981">
        <ele>78</ele>
        <time>2025-04-11T09:16:40Z</time>
      </trkpt>
      <trkpt lat="45.26987" lon="0.25958">
        <ele>79</ele>
        <time>2025-04-11T09:16:43Z</time>
      </trkpt>
      <trkpt lat="45.27086" lon="0.25825">
        <ele>80</ele>
        <time>2025-04-11T09:17:08Z</time>
      </trkpt>
      <trkpt lat="45.27101" lon="0.25798">
        <ele>80</ele>
        <time>2025-04-11T09:17:12Z</time>
      </trkpt>
      <trkpt lat="45.27105" lon="0.25788">
        <ele>80</ele>
        <time>2025-04-11T09:17:13Z</time>
      </trkpt>
      <trkpt lat="45.27107" lon="0.25775">
        <ele>80</ele>
        <time>2025-04-11T09:17:15Z</time>
      </trkpt>
      <trkpt lat="45.27112" lon="0.25724">
        <ele>80</ele>
        <time>2025-04-11T09:17:21Z</time>
      </trkpt>
      <trkpt lat="45.27117" lon="0.25707">
        <ele>80</ele>
        <time>2025-04-11T09:17:24Z</time>
      </trkpt>
      <trkpt lat="45.27133" lon="0.2567">
        <ele>80</ele>
        <time>2025-04-11T09:17:29Z</time>
      </trkpt>
      <trkpt lat="45.27136" lon="0.25664">
        <ele>80</ele>
        <time>2025-04-11T09:17:30Z</time>
      </trkpt>
      <trkpt lat="45.271" lon="0.25621">
        <ele>79</ele>
        <time>2025-04-11T09:17:38Z</time>
      </trkpt>
      <trkpt lat="45.27034" lon="0.25535">
        <ele>80</ele>
        <time>2025-04-11T09:17:54Z</time>
      </trkpt>
      <trkpt lat="45.27024" lon="0.25527">
        <ele>81</ele>
        <time>2025-04-11T09:17:56Z</time>
      </trkpt>
      <trkpt lat="45.27014" lon="0.25523">
        <ele>81</ele>
        <time>2025-04-11T09:17:58Z</time>
      </trkpt>
      <trkpt lat="45.26892" lon="0.25539">
        <ele>81</ele>
        <time>2025-04-11T09:18:20Z</time>
      </trkpt>
      <trkpt lat="45.26863" lon="0.25549">
        <ele>81</ele>
        <time>2025-04-11T09:18:25Z</time>
      </trkpt>
      <trkpt lat="45.26573" lon="0.25724">
        <ele>92</ele>
        <time>2025-04-11T09:19:21Z</time>
      </trkpt>
      <trkpt lat="45.2644" lon="0.25809">
        <ele>90</ele>
        <time>2025-04-11T09:19:47Z</time>
      </trkpt>
      <trkpt lat="45.26419" lon="0.25812">
        <ele>90</ele>
        <time>2025-04-11T09:19:51Z</time>
      </trkpt>
      <trkpt lat="45.26401" lon="0.25811">
        <ele>90</ele>
        <time>2025-04-11T09:19:54Z</time>
      </trkpt>
      <trkpt lat="45.26386" lon="0.25807">
        <ele>90</ele>
        <time>2025-04-11T09:19:57Z</time>
      </trkpt>
      <trkpt lat="45.26361" lon="0.25787">
        <ele>90</ele>
        <time>2025-04-11T09:20:02Z</time>
      </trkpt>
      <trkpt lat="45.26302" lon="0.25721">
        <ele>84</ele>
        <time>2025-04-11T09:20:16Z</time>
      </trkpt>
      <trkpt lat="45.2629" lon="0.257">
        <ele>83</ele>
        <time>2025-04-11T09:20:19Z</time>
      </trkpt>
      <trkpt lat="45.2623" lon="0.25582">
        <ele>77</ele>
        <time>2025-04-11T09:20:37Z</time>
      </trkpt>
      <trkpt lat="45.26218" lon="0.2552">
        <ele>75</ele>
        <time>2025-04-11T09:20:45Z</time>
      </trkpt>
      <trkpt lat="45.26206" lon="0.25491">
        <ele>74</ele>
        <time>2025-04-11T09:20:49Z</time>
      </trkpt>
      <trkpt lat="45.26187" lon="0.25464">
        <ele>74</ele>
        <time>2025-04-11T09:20:54Z</time>
      </trkpt>
      <trkpt lat="45.26186" lon="0.25463">
        <ele>74</ele>
        <time>2025-04-11T09:20:54Z</time>
      </trkpt>
      <trkpt lat="45.26152" lon="0.25429">
        <ele>75</ele>
        <time>2025-04-11T09:21:02Z</time>
      </trkpt>
      <trkpt lat="45.26076" lon="0.2535">
        <ele>77</ele>
        <time>2025-04-11T09:21:19Z</time>
      </trkpt>
      <trkpt lat="45.2606" lon="0.25342">
        <ele>78</ele>
        <time>2025-04-11T09:21:22Z</time>
      </trkpt>
      <trkpt lat="45.25976" lon="0.25339">
        <ele>83</ele>
        <time>2025-04-11T09:21:37Z</time>
      </trkpt>
      <trkpt lat="45.25962" lon="0.25331">
        <ele>84</ele>
        <time>2025-04-11T09:21:39Z</time>
      </trkpt>
      <trkpt lat="45.25899" lon="0.25279">
        <ele>84</ele>
        <time>2025-04-11T09:21:52Z</time>
      </trkpt>
      <trkpt lat="45.25872" lon="0.25268">
        <ele>85</ele>
        <time>2025-04-11T09:21:57Z</time>
      </trkpt>
      <trkpt lat="45.25849" lon="0.25262">
        <ele>87</ele>
        <time>2025-04-11T09:22:01Z</time>
      </trkpt>
      <trkpt lat="45.25762" lon="0.25278">
        <ele>89</ele>
        <time>2025-04-11T09:22:17Z</time>
      </trkpt>
      <trkpt lat="45.25669" lon="0.25284">
        <ele>88</ele>
        <time>2025-04-11T09:22:34Z</time>
      </trkpt>
      <trkpt lat="45.25653" lon="0.25284">
        <ele>88</ele>
        <time>2025-04-11T09:22:36Z</time>
      </trkpt>
      <trkpt lat="45.25604" lon="0.25276">
        <ele>89</ele>
        <time>2025-04-11T09:22:45Z</time>
      </trkpt>
      <trkpt lat="45.25589" lon="0.2527">
        <ele>89</ele>
        <time>2025-04-11T09:22:48Z</time>
      </trkpt>
      <trkpt lat="45.25569" lon="0.25259">
        <ele>89</ele>
        <time>2025-04-11T09:22:52Z</time>
      </trkpt>
      <trkpt lat="45.25502" lon="0.25209">
        <ele>89</ele>
        <time>2025-04-11T09:23:05Z</time>
      </trkpt>
      <trkpt lat="45.25491" lon="0.25204">
        <ele>89</ele>
        <time>2025-04-11T09:23:07Z</time>
      </trkpt>
      <trkpt lat="45.25469" lon="0.25201">
        <ele>88</ele>
        <time>2025-04-11T09:23:11Z</time>
      </trkpt>
      <trkpt lat="45.25338" lon="0.25211">
        <ele>87</ele>
        <time>2025-04-11T09:23:35Z</time>
      </trkpt>
      <trkpt lat="45.25325" lon="0.25219">
        <ele>88</ele>
        <time>2025-04-11T09:23:37Z</time>
      </trkpt>
      <trkpt lat="45.25304" lon="0.25253">
        <ele>89</ele>
        <time>2025-04-11T09:23:43Z</time>
      </trkpt>
      <trkpt lat="45.25299" lon="0.25257">
        <ele>89</ele>
        <time>2025-04-11T09:23:44Z</time>
      </trkpt>
      <trkpt lat="45.25292" lon="0.2526">
        <ele>90</ele>
        <time>2025-04-11T09:23:45Z</time>
      </trkpt>
      <trkpt lat="45.25255" lon="0.25264">
        <ele>91</ele>
        <time>2025-04-11T09:23:52Z</time>
      </trkpt>
      <trkpt lat="45.25228" lon="0.25255">
        <ele>92</ele>
        <time>2025-04-11T09:23:57Z</time>
      </trkpt>
      <trkpt lat="45.25214" lon="0.25255">
        <ele>92</ele>
        <time>2025-04-11T09:23:59Z</time>
      </trkpt>
      <trkpt lat="45.25067" lon="0.25288">
        <ele>95</ele>
        <time>2025-04-11T09:24:26Z</time>
      </trkpt>
      <trkpt lat="45.25043" lon="0.2529">
        <ele>95</ele>
        <time>2025-04-11T09:24:30Z</time>
      </trkpt>
      <trkpt lat="45.25023" lon="0.25288">
        <ele>96</ele>
        <time>2025-04-11T09:24:33Z</time>
      </trkpt>
      <trkpt lat="45.24995" lon="0.25281">
        <ele>96</ele>
        <time>2025-04-11T09:24:38Z</time>
      </trkpt>
      <trkpt lat="45.24622" lon="0.25158">
        <ele>100</ele>
        <time>2025-04-11T09:25:47Z</time>
      </trkpt>
      <trkpt lat="45.24588" lon="0.25143">
        <ele>100</ele>
        <time>2025-04-11T09:25:53Z</time>
      </trkpt>
      <trkpt lat="45.24571" lon="0.25128">
        <ele>100</ele>
        <time>2025-04-11T09:25:56Z</time>
      </trkpt>
      <trkpt lat="45.24417" lon="0.24928">
        <ele>104</ele>
        <time>2025-04-11T09:26:34Z</time>
      </trkpt>
      <trkpt lat="45.24402" lon="0.24905">
        <ele>104</ele>
        <time>2025-04-11T09:26:38Z</time>
      </trkpt>
      <trkpt lat="45.24385" lon="0.24873">
        <ele>104</ele>
        <time>2025-04-11T09:26:43Z</time>
      </trkpt>
      <trkpt lat="45.24194" lon="0.24341">
        <ele>95</ele>
        <time>2025-04-11T09:27:57Z</time>
      </trkpt>
      <trkpt lat="45.24183" lon="0.24335">
        <ele>95</ele>
        <time>2025-04-11T09:27:59Z</time>
      </trkpt>
      <trkpt lat="45.24163" lon="0.24328">
        <ele>95</ele>
        <time>2025-04-11T09:28:03Z</time>
      </trkpt>
      <trkpt lat="45.2401" lon="0.24343">
        <ele>97</ele>
        <time>2025-04-11T09:28:30Z</time>
      </trkpt>
      <trkpt lat="45.23985" lon="0.24346">
        <ele>98</ele>
        <time>2025-04-11T09:28:35Z</time>
      </trkpt>
      <trkpt lat="45.23975" lon="0.23773">
        <ele>83</ele>
        <time>2025-04-11T09:29:47Z</time>
      </trkpt>
      <trkpt lat="45.23976" lon="0.23747">
        <ele>83</ele>
        <time>2025-04-11T09:29:50Z</time>
      </trkpt>
      <trkpt lat="45.23981" lon="0.23718">
        <ele>83</ele>
        <time>2025-04-11T09:29:54Z</time>
      </trkpt>
      <trkpt lat="45.2403" lon="0.23533">
        <ele>83</ele>
        <time>2025-04-11T09:30:18Z</time>
      </trkpt>
      <trkpt lat="45.24036" lon="0.23493">
        <ele>83</ele>
        <time>2025-04-11T09:30:24Z</time>
      </trkpt>
      <trkpt lat="45.24035" lon="0.2336">
        <ele>80</ele>
        <time>2025-04-11T09:30:40Z</time>
      </trkpt>
      <trkpt lat="45.24038" lon="0.23323">
        <ele>79</ele>
        <time>2025-04-11T09:30:45Z</time>
      </trkpt>
      <trkpt lat="45.24047" lon="0.23255">
        <ele>76</ele>
        <time>2025-04-11T09:30:54Z</time>
      </trkpt>
      <trkpt lat="45.24101" lon="0.22939">
        <ele>74</ele>
        <time>2025-04-11T09:31:34Z</time>
      </trkpt>
      <trkpt lat="45.24104" lon="0.22898">
        <ele>75</ele>
        <time>2025-04-11T09:31:39Z</time>
      </trkpt>
      <trkpt lat="45.2411" lon="0.22767">
        <ele>74</ele>
        <time>2025-04-11T09:31:56Z</time>
      </trkpt>
      <trkpt lat="45.24112" lon="0.22731">
        <ele>73</ele>
        <time>2025-04-11T09:32:00Z</time>
      </trkpt>
      <trkpt lat="45.24118" lon="0.22701">
        <ele>73</ele>
        <time>2025-04-11T09:32:04Z</time>
      </trkpt>
      <trkpt lat="45.24126" lon="0.22678">
        <ele>72</ele>
        <time>2025-04-11T09:32:08Z</time>
      </trkpt>
      <trkpt lat="45.24136" lon="0.22658">
        <ele>72</ele>
        <time>2025-04-11T09:32:11Z</time>
      </trkpt>
      <trkpt lat="45.2415" lon="0.22637">
        <ele>71</ele>
        <time>2025-04-11T09:32:14Z</time>
      </trkpt>
      <trkpt lat="45.24271" lon="0.22471">
        <ele>69</ele>
        <time>2025-04-11T09:32:44Z</time>
      </trkpt>
      <trkpt lat="45.24307" lon="0.2242">
        <ele>68</ele>
        <time>2025-04-11T09:32:53Z</time>
      </trkpt>
      <trkpt lat="45.24339" lon="0.2237">
        <ele>68</ele>
        <time>2025-04-11T09:33:02Z</time>
      </trkpt>
      <trkpt lat="45.24603" lon="0.21928">
        <ele>65</ele>
        <time>2025-04-11T09:34:14Z</time>
      </trkpt>
      <trkpt lat="45.24618" lon="0.21907">
        <ele>65</ele>
        <time>2025-04-11T09:34:18Z</time>
      </trkpt>
      <trkpt lat="45.24632" lon="0.2189">
        <ele>65</ele>
        <time>2025-04-11T09:34:21Z</time>
      </trkpt>
      <trkpt lat="45.24666" lon="0.21859">
        <ele>65</ele>
        <time>2025-04-11T09:34:29Z</time>
      </trkpt>
      <trkpt lat="45.24878" lon="0.21685">
        <ele>63</ele>
        <time>2025-04-11T09:35:12Z</time>
      </trkpt>
      <trkpt lat="45.24906" lon="0.2165">
        <ele>63</ele>
        <time>2025-04-11T09:35:19Z</time>
      </trkpt>
      <trkpt lat="45.24919" lon="0.21626">
        <ele>63</ele>
        <time>2025-04-11T09:35:23Z</time>
      </trkpt>
      <trkpt lat="45.24936" lon="0.21585">
        <ele>63</ele>
        <time>2025-04-11T09:35:28Z</time>
      </trkpt>
      <trkpt lat="45.24952" lon="0.21538">
        <ele>63</ele>
        <time>2025-04-11T09:35:35Z</time>
      </trkpt>
      <trkpt lat="45.24999" lon="0.21387">
        <ele>62</ele>
        <time>2025-04-11T09:35:56Z</time>
      </trkpt>
      <trkpt lat="45.25012" lon="0.21356">
        <ele>62</ele>
        <time>2025-04-11T09:36:00Z</time>
      </trkpt>
      <trkpt lat="45.25025" lon="0.21332">
        <ele>62</ele>
        <time>2025-04-11T09:36:04Z</time>
      </trkpt>
      <trkpt lat="45.25302" lon="0.20859">
        <ele>76</ele>
        <time>2025-04-11T09:37:21Z</time>
      </trkpt>
      <trkpt lat="45.25328" lon="0.20807">
        <ele>78</ele>
        <time>2025-04-11T09:37:29Z</time>
      </trkpt>
      <trkpt lat="45.25336" lon="0.20785">
        <ele>78</ele>
        <time>2025-04-11T09:37:32Z</time>
      </trkpt>
      <trkpt lat="45.25339" lon="0.20765">
        <ele>77</ele>
        <time>2025-04-11T09:37:35Z</time>
      </trkpt>
      <trkpt lat="45.25341" lon="0.20745">
        <ele>77</ele>
        <time>2025-04-11T09:37:37Z</time>
      </trkpt>
      <trkpt lat="45.25341" lon="0.20712">
        <ele>77</ele>
        <time>2025-04-11T09:37:41Z</time>
      </trkpt>
      <trkpt lat="45.25318" lon="0.20379">
        <ele>70</ele>
        <time>2025-04-11T09:38:23Z</time>
      </trkpt>
      <trkpt lat="45.25317" lon="0.20315">
        <ele>71</ele>
        <time>2025-04-11T09:38:31Z</time>
      </trkpt>
      <trkpt lat="45.25321" lon="0.20283">
        <ele>71</ele>
        <time>2025-04-11T09:38:35Z</time>
      </trkpt>
      <trkpt lat="45.25328" lon="0.20251">
        <ele>71</ele>
        <time>2025-04-11T09:38:40Z</time>
      </trkpt>
      <trkpt lat="45.25344" lon="0.20205">
        <ele>71</ele>
        <time>2025-04-11T09:38:46Z</time>
      </trkpt>
      <trkpt lat="45.25366" lon="0.20157">
        <ele>71</ele>
        <time>2025-04-11T09:38:53Z</time>
      </trkpt>
      <trkpt lat="45.2538" lon="0.20137">
        <ele>71</ele>
        <time>2025-04-11T09:38:57Z</time>
      </trkpt>
      <trkpt lat="45.25396" lon="0.20117">
        <ele>71</ele>
        <time>2025-04-11T09:39:01Z</time>
      </trkpt>
      <trkpt lat="45.2547" lon="0.20042">
        <ele>70</ele>
        <time>2025-04-11T09:39:17Z</time>
      </trkpt>
      <trkpt lat="45.2548" lon="0.20022">
        <ele>70</ele>
        <time>2025-04-11T09:39:20Z</time>
      </trkpt>
      <trkpt lat="45.25503" lon="0.20005">
        <ele>70</ele>
        <time>2025-04-11T09:39:24Z</time>
      </trkpt>
      <trkpt lat="45.25552" lon="0.19961">
        <ele>69</ele>
        <time>2025-04-11T09:39:35Z</time>
      </trkpt>
      <trkpt lat="45.25688" lon="0.1982">
        <ele>65</ele>
        <time>2025-04-11T09:40:05Z</time>
      </trkpt>
      <trkpt lat="45.25785" lon="0.19702">
        <ele>55</ele>
        <time>2025-04-11T09:40:27Z</time>
      </trkpt>
      <trkpt lat="45.25851" lon="0.19593">
        <ele>51</ele>
        <time>2025-04-11T09:40:45Z</time>
      </trkpt>
      <trkpt lat="45.25943" lon="0.19457">
        <ele>49</ele>
        <time>2025-04-11T09:41:09Z</time>
      </trkpt>
      <trkpt lat="45.2602" lon="0.19349">
        <ele>49</ele>
        <time>2025-04-11T09:41:28Z</time>
      </trkpt>
      <trkpt lat="45.26035" lon="0.19333">
        <ele>49</ele>
        <time>2025-04-11T09:41:32Z</time>
      </trkpt>
      <trkpt lat="45.26046" lon="0.19319">
        <ele>49</ele>
        <time>2025-04-11T09:41:34Z</time>
      </trkpt>
      <trkpt lat="45.26113" lon="0.19207">
        <ele>48</ele>
        <time>2025-04-11T09:41:53Z</time>
      </trkpt>
      <trkpt lat="45.26125" lon="0.1918">
        <ele>48</ele>
        <time>2025-04-11T09:41:57Z</time>
      </trkpt>
      <trkpt lat="45.26188" lon="0.18993">
        <ele>48</ele>
        <time>2025-04-11T09:42:23Z</time>
      </trkpt>
      <trkpt lat="45.26201" lon="0.18967">
        <ele>48</ele>
        <time>2025-04-11T09:42:27Z</time>
      </trkpt>
      <trkpt lat="45.26229" lon="0.18915">
        <ele>47</ele>
        <time>2025-04-11T09:42:35Z</time>
      </trkpt>
      <trkpt lat="45.26292" lon="0.18816">
        <ele>44</ele>
        <time>2025-04-11T09:42:52Z</time>
      </trkpt>
      <trkpt lat="45.26402" lon="0.18659">
        <ele>45</ele>
        <time>2025-04-11T09:43:19Z</time>
      </trkpt>
      <trkpt lat="45.26801" lon="0.18161">
        <ele>45</ele>
        <time>2025-04-11T09:44:54Z</time>
      </trkpt>
      <trkpt lat="45.26829" lon="0.18115">
        <ele>45</ele>
        <time>2025-04-11T09:45:01Z</time>
      </trkpt>
      <trkpt lat="45.26841" lon="0.18085">
        <ele>45</ele>
        <time>2025-04-11T09:45:06Z</time>
      </trkpt>
      <trkpt lat="45.26863" lon="0.18005">
        <ele>44</ele>
        <time>2025-04-11T09:45:16Z</time>
      </trkpt>
      <trkpt lat="45.26874" lon="0.17963">
        <ele>44</ele>
        <time>2025-04-11T09:45:22Z</time>
      </trkpt>
      <trkpt lat="45.26937" lon="0.17723">
        <ele>44</ele>
        <time>2025-04-11T09:45:54Z</time>
      </trkpt>
      <trkpt lat="45.26941" lon="0.17707">
        <ele>44</ele>
        <time>2025-04-11T09:45:56Z</time>
      </trkpt>
      <trkpt lat="45.2699" lon="0.17519">
        <ele>46</ele>
        <time>2025-04-11T09:46:21Z</time>
      </trkpt>
      <trkpt lat="45.27013" lon="0.17428">
        <ele>47</ele>
        <time>2025-04-11T09:46:33Z</time>
      </trkpt>
      <trkpt lat="45.27048" lon="0.17292">
        <ele>47</ele>
        <time>2025-04-11T09:46:52Z</time>
      </trkpt>
      <trkpt lat="45.27056" lon="0.17254">
        <ele>47</ele>
        <time>2025-04-11T09:46:57Z</time>
      </trkpt>
      <trkpt lat="45.2706" lon="0.17216">
        <ele>48</ele>
        <time>2025-04-11T09:47:01Z</time>
      </trkpt>
      <trkpt lat="45.27061" lon="0.17172">
        <ele>48</ele>
        <time>2025-04-11T09:47:07Z</time>
      </trkpt>
      <trkpt lat="45.27062" lon="0.1716">
        <ele>49</ele>
        <time>2025-04-11T09:47:08Z</time>
      </trkpt>
      <trkpt lat="45.27075" lon="0.17157">
        <ele>50</ele>
        <time>2025-04-11T09:47:11Z</time>
      </trkpt>
      <trkpt lat="45.27239" lon="0.17213">
        <ele>56</ele>
        <time>2025-04-11T09:47:41Z</time>
      </trkpt>
      <trkpt lat="45.27389" lon="0.17258">
        <ele>59</ele>
        <time>2025-04-11T09:48:08Z</time>
      </trkpt>
      <trkpt lat="45.27415" lon="0.17274">
        <ele>59</ele>
        <time>2025-04-11T09:48:13Z</time>
      </trkpt>
      <trkpt lat="45.27435" lon="0.17291">
        <ele>58</ele>
        <time>2025-04-11T09:48:17Z</time>
      </trkpt>
      <trkpt lat="45.27462" lon="0.1732">
        <ele>56</ele>
        <time>2025-04-11T09:48:23Z</time>
      </trkpt>
      <trkpt lat="45.2748" lon="0.17342">
        <ele>55</ele>
        <time>2025-04-11T09:48:27Z</time>
      </trkpt>
      <trkpt lat="45.27493" lon="0.17366">
        <ele>54</ele>
        <time>2025-04-11T09:48:31Z</time>
      </trkpt>
      <trkpt lat="45.27529" lon="0.17446">
        <ele>52</ele>
        <time>2025-04-11T09:48:43Z</time>
      </trkpt>
      <trkpt lat="45.27677" lon="0.17814">
        <ele>50</ele>
        <time>2025-04-11T09:49:36Z</time>
      </trkpt>
      <trkpt lat="45.2776" lon="0.18029">
        <ele>48</ele>
        <time>2025-04-11T09:50:07Z</time>
      </trkpt>
      <trkpt lat="45.2777" lon="0.18062">
        <ele>49</ele>
        <time>2025-04-11T09:50:11Z</time>
      </trkpt>
      <trkpt lat="45.27777" lon="0.1809">
        <ele>50</ele>
        <time>2025-04-11T09:50:15Z</time>
      </trkpt>
      <trkpt lat="45.27783" lon="0.18133">
        <ele>52</ele>
        <time>2025-04-11T09:50:21Z</time>
      </trkpt>
      <trkpt lat="45.27783" lon="0.18161">
        <ele>53</ele>
        <time>2025-04-11T09:50:24Z</time>
      </trkpt>
      <trkpt lat="45.27778" lon="0.18205">
        <ele>53</ele>
        <time>2025-04-11T09:50:30Z</time>
      </trkpt>
      <trkpt lat="45.27748" lon="0.18372">
        <ele>50</ele>
        <time>2025-04-11T09:50:51Z</time>
      </trkpt>
      <trkpt lat="45.27736" lon="0.18425">
        <ele>50</ele>
        <time>2025-04-11T09:50:58Z</time>
      </trkpt>
      <trkpt lat="45.27736" lon="0.1847">
        <ele>51</ele>
        <time>2025-04-11T09:51:04Z</time>
      </trkpt>
      <trkpt lat="45.27679" lon="0.18712">
        <ele>48</ele>
        <time>2025-04-11T09:51:36Z</time>
      </trkpt>
      <trkpt lat="45.27673" lon="0.18744">
        <ele>49</ele>
        <time>2025-04-11T09:51:40Z</time>
      </trkpt>
      <trkpt lat="45.27671" lon="0.18762">
        <ele>49</ele>
        <time>2025-04-11T09:51:42Z</time>
      </trkpt>
      <trkpt lat="45.27672" lon="0.1878">
        <ele>49</ele>
        <time>2025-04-11T09:51:45Z</time>
      </trkpt>
      <trkpt lat="45.2768" lon="0.18814">
        <ele>50</ele>
        <time>2025-04-11T09:51:49Z</time>
      </trkpt>
      <trkpt lat="45.27746" lon="0.18989">
        <ele>47</ele>
        <time>2025-04-11T09:52:14Z</time>
      </trkpt>
      <trkpt lat="45.27743" lon="0.18992">
        <ele>47</ele>
        <time>2025-04-11T09:52:15Z</time>
      </trkpt>
      <trkpt lat="45.27737" lon="0.19005">
        <ele>47</ele>
        <time>2025-04-11T09:52:17Z</time>
      </trkpt>
      <trkpt lat="45.27732" lon="0.19026">
        <ele>49</ele>
        <time>2025-04-11T09:52:19Z</time>
      </trkpt>
      <trkpt lat="45.27722" lon="0.1905">
        <ele>50</ele>
        <time>2025-04-11T09:52:23Z</time>
      </trkpt>
      <trkpt lat="45.27692" lon="0.19107">
        <ele>52</ele>
        <time>2025-04-11T09:52:32Z</time>
      </trkpt>
      <trkpt lat="45.2765" lon="0.19154">
        <ele>54</ele>
        <time>2025-04-11T09:52:41Z</time>
      </trkpt>
      <trkpt lat="45.27637" lon="0.19184">
        <ele>56</ele>
        <time>2025-04-11T09:52:46Z</time>
      </trkpt>
      <trkpt lat="45.27633" lon="0.19244">
        <ele>58</ele>
        <time>2025-04-11T09:52:53Z</time>
      </trkpt>
      <trkpt lat="45.27626" lon="0.19266">
        <ele>58</ele>
        <time>2025-04-11T09:52:56Z</time>
      </trkpt>
      <trkpt lat="45.27575" lon="0.1931">
        <ele>56</ele>
        <time>2025-04-11T09:53:07Z</time>
      </trkpt>
      <trkpt lat="45.27555" lon="0.1934">
        <ele>55</ele>
        <time>2025-04-11T09:53:12Z</time>
      </trkpt>
      <trkpt lat="45.27483" lon="0.19432">
        <ele>53</ele>
        <time>2025-04-11T09:53:29Z</time>
      </trkpt>
      <trkpt lat="45.27476" lon="0.1945">
        <ele>53</ele>
        <time>2025-04-11T09:53:32Z</time>
      </trkpt>
      <trkpt lat="45.27472" lon="0.19536">
        <ele>53</ele>
        <time>2025-04-11T09:53:43Z</time>
      </trkpt>
      <trkpt lat="45.27439" lon="0.19656">
        <ele>56</ele>
        <time>2025-04-11T09:53:59Z</time>
      </trkpt>
      <trkpt lat="45.27403" lon="0.19774">
        <ele>54</ele>
        <time>2025-04-11T09:54:15Z</time>
      </trkpt>
      <trkpt lat="45.27379" lon="0.1984">
        <ele>53</ele>
        <time>2025-04-11T09:54:24Z</time>
      </trkpt>
      <trkpt lat="45.27375" lon="0.19871">
        <ele>52</ele>
        <time>2025-04-11T09:54:28Z</time>
      </trkpt>
      <trkpt lat="45.27378" lon="0.19965">
        <ele>53</ele>
        <time>2025-04-11T09:54:40Z</time>
      </trkpt>
      <trkpt lat="45.27373" lon="0.20009">
        <ele>52</ele>
        <time>2025-04-11T09:54:45Z</time>
      </trkpt>
      <trkpt lat="45.27358" lon="0.20076">
        <ele>50</ele>
        <time>2025-04-11T09:54:54Z</time>
      </trkpt>
      <trkpt lat="45.27324" lon="0.202">
        <ele>49</ele>
        <time>2025-04-11T09:55:11Z</time>
      </trkpt>
      <trkpt lat="45.273" lon="0.20273">
        <ele>50</ele>
        <time>2025-04-11T09:55:21Z</time>
      </trkpt>
      <trkpt lat="45.27283" lon="0.20293">
        <ele>50</ele>
        <time>2025-04-11T09:55:25Z</time>
      </trkpt>
      <trkpt lat="45.27236" lon="0.2033">
        <ele>50</ele>
        <time>2025-04-11T09:55:34Z</time>
      </trkpt>
      <trkpt lat="45.27225" lon="0.20343">
        <ele>49</ele>
        <time>2025-04-11T09:55:37Z</time>
      </trkpt>
      <trkpt lat="45.27142" lon="0.20453">
        <ele>48</ele>
        <time>2025-04-11T09:55:57Z</time>
      </trkpt>
      <trkpt lat="45.27124" lon="0.2049">
        <ele>48</ele>
        <time>2025-04-11T09:56:03Z</time>
      </trkpt>
      <trkpt lat="45.27111" lon="0.20515">
        <ele>48</ele>
        <time>2025-04-11T09:56:07Z</time>
      </trkpt>
      <trkpt lat="45.27065" lon="0.2057">
        <ele>48</ele>
        <time>2025-04-11T09:56:17Z</time>
      </trkpt>
      <trkpt lat="45.2706" lon="0.20584">
        <ele>49</ele>
        <time>2025-04-11T09:56:19Z</time>
      </trkpt>
      <trkpt lat="45.27151" lon="0.20651">
        <ele>48</ele>
        <time>2025-04-11T09:56:38Z</time>
      </trkpt>
      <trkpt lat="45.27258" lon="0.20736">
        <ele>48</ele>
        <time>2025-04-11T09:56:59Z</time>
      </trkpt>
      <trkpt lat="45.27293" lon="0.20755">
        <ele>49</ele>
        <time>2025-04-11T09:57:06Z</time>
      </trkpt>
      <trkpt lat="45.27325" lon="0.20764">
        <ele>49</ele>
        <time>2025-04-11T09:57:12Z</time>
      </trkpt>
      <trkpt lat="45.27651" lon="0.20675">
        <ele>52</ele>
        <time>2025-04-11T09:58:11Z</time>
      </trkpt>
      <trkpt lat="45.27745" lon="0.20657">
        <ele>55</ele>
        <time>2025-04-11T09:58:28Z</time>
      </trkpt>
      <trkpt lat="45.27784" lon="0.20665">
        <ele>56</ele>
        <time>2025-04-11T09:58:35Z</time>
      </trkpt>
      <trkpt lat="45.27817" lon="0.20682">
        <ele>56</ele>
        <time>2025-04-11T09:58:41Z</time>
      </trkpt>
      <trkpt lat="45.27847" lon="0.20717">
        <ele>58</ele>
        <time>2025-04-11T09:58:48Z</time>
      </trkpt>
      <trkpt lat="45.27874" lon="0.20761">
        <ele>59</ele>
        <time>2025-04-11T09:58:55Z</time>
      </trkpt>
      <trkpt lat="45.27995" lon="0.20974">
        <ele>56</ele>
        <time>2025-04-11T09:59:30Z</time>
      </trkpt>
      <trkpt lat="45.28019" lon="0.21007">
        <ele>56</ele>
        <time>2025-04-11T09:59:36Z</time>
      </trkpt>
      <trkpt lat="45.28035" lon="0.21017">
        <ele>56</ele>
        <time>2025-04-11T09:59:39Z</time>
      </trkpt>
      <trkpt lat="45.28063" lon="0.21027">
        <ele>57</ele>
        <time>2025-04-11T09:59:44Z</time>
      </trkpt>
      <trkpt lat="45.28232" lon="0.21091">
        <ele>59</ele>
        <time>2025-04-11T10:00:15Z</time>
      </trkpt>
      <trkpt lat="45.285" lon="0.21239">
        <ele>58</ele>
        <time>2025-04-11T10:01:06Z</time>
      </trkpt>
      <trkpt lat="45.28546" lon="0.21274">
        <ele>59</ele>
        <time>2025-04-11T10:01:15Z</time>
      </trkpt>
      <trkpt lat="45.28564" lon="0.2128">
        <ele>59</ele>
        <time>2025-04-11T10:01:19Z</time>
      </trkpt>
      <trkpt lat="45.28587" lon="0.21267">
        <ele>59</ele>
        <time>2025-04-11T10:01:23Z</time>
      </trkpt>
      <trkpt lat="45.28669" lon="0.21277">
        <ele>54</ele>
        <time>2025-04-11T10:01:38Z</time>
      </trkpt>
      <trkpt lat="45.28716" lon="0.21287">
        <ele>54</ele>
        <time>2025-04-11T10:01:46Z</time>
      </trkpt>
      <trkpt lat="45.2872" lon="0.21387">
        <ele>54</ele>
        <time>2025-04-11T10:01:59Z</time>
      </trkpt>
      <trkpt lat="45.28723" lon="0.21414">
        <ele>55</ele>
        <time>2025-04-11T10:02:02Z</time>
      </trkpt>
      <trkpt lat="45.28728" lon="0.21434">
        <ele>54</ele>
        <time>2025-04-11T10:02:05Z</time>
      </trkpt>
      <trkpt lat="45.28738" lon="0.21454">
        <ele>53</ele>
        <time>2025-04-11T10:02:08Z</time>
      </trkpt>
      <trkpt lat="45.2875" lon="0.2147">
        <ele>53</ele>
        <time>2025-04-11T10:02:11Z</time>
      </trkpt>
      <trkpt lat="45.28925" lon="0.21642">
        <ele>54</ele>
        <time>2025-04-11T10:02:49Z</time>
      </trkpt>
      <trkpt lat="45.29076" lon="0.21797">
        <ele>55</ele>
        <time>2025-04-11T10:03:22Z</time>
      </trkpt>
      <trkpt lat="45.29105" lon="0.2183">
        <ele>55</ele>
        <time>2025-04-11T10:03:28Z</time>
      </trkpt>
      <trkpt lat="45.2917" lon="0.2192">
        <ele>55</ele>
        <time>2025-04-11T10:03:44Z</time>
      </trkpt>
      <trkpt lat="45.29255" lon="0.22052">
        <ele>59</ele>
        <time>2025-04-11T10:04:07Z</time>
      </trkpt>
      <trkpt lat="45.29297" lon="0.22127">
        <ele>58</ele>
        <time>2025-04-11T10:04:19Z</time>
      </trkpt>
      <trkpt lat="45.29411" lon="0.22351">
        <ele>56</ele>
        <time>2025-04-11T10:04:53Z</time>
      </trkpt>
      <trkpt lat="45.29465" lon="0.22423">
        <ele>53</ele>
        <time>2025-04-11T10:05:07Z</time>
      </trkpt>
      <trkpt lat="45.29508" lon="0.22472">
        <ele>51</ele>
        <time>2025-04-11T10:05:16Z</time>
      </trkpt>
      <trkpt lat="45.29632" lon="0.22622">
        <ele>49</ele>
        <time>2025-04-11T10:05:45Z</time>
      </trkpt>
      <trkpt lat="45.29645" lon="0.22639">
        <ele>49</ele>
        <time>2025-04-11T10:05:49Z</time>
      </trkpt>
      <trkpt lat="45.29653" lon="0.2265">
        <ele>49</ele>
        <time>2025-04-11T10:05:51Z</time>
      </trkpt>
      <trkpt lat="45.29642" lon="0.2266">
        <ele>49</ele>
        <time>2025-04-11T10:05:53Z</time>
      </trkpt>
      <trkpt lat="45.29322" lon="0.22816">
        <ele>49</ele>
        <time>2025-04-11T10:06:53Z</time>
      </trkpt>
      <trkpt lat="45.293" lon="0.22827">
        <ele>49</ele>
        <time>2025-04-11T10:06:57Z</time>
      </trkpt>
      <trkpt lat="45.29243" lon="0.22855">
        <ele>49</ele>
        <time>2025-04-11T10:07:08Z</time>
      </trkpt>
      <trkpt lat="45.2919" lon="0.22885">
        <ele>48</ele>
        <time>2025-04-11T10:07:18Z</time>
      </trkpt>
      <trkpt lat="45.29152" lon="0.22913">
        <ele>49</ele>
        <time>2025-04-11T10:07:26Z</time>
      </trkpt>
      <trkpt lat="45.28881" lon="0.23126">
        <ele>53</ele>
        <time>2025-04-11T10:08:21Z</time>
      </trkpt>
      <trkpt lat="45.28826" lon="0.23265">
        <ele>53</ele>
        <time>2025-04-11T10:08:41Z</time>
      </trkpt>
      <trkpt lat="45.28814" lon="0.23291">
        <ele>53</ele>
        <time>2025-04-11T10:08:45Z</time>
      </trkpt>
      <trkpt lat="45.28802" lon="0.23308">
        <ele>53</ele>
        <time>2025-04-11T10:08:48Z</time>
      </trkpt>
      <trkpt lat="45.28793" lon="0.23312">
        <ele>53</ele>
        <time>2025-04-11T10:08:49Z</time>
      </trkpt>
      <trkpt lat="45.28776" lon="0.23313">
        <ele>53</ele>
        <time>2025-04-11T10:08:52Z</time>
      </trkpt>
      <trkpt lat="45.28769" lon="0.23316">
        <ele>53</ele>
        <time>2025-04-11T10:08:54Z</time>
      </trkpt>
      <trkpt lat="45.28759" lon="0.23322">
        <ele>52</ele>
        <time>2025-04-11T10:08:56Z</time>
      </trkpt>
      <trkpt lat="45.28749" lon="0.23334">
        <ele>52</ele>
        <time>2025-04-11T10:08:58Z</time>
      </trkpt>
      <trkpt lat="45.28728" lon="0.23376">
        <ele>53</ele>
        <time>2025-04-11T10:09:04Z</time>
      </trkpt>
      <trkpt lat="45.28669" lon="0.23464">
        <ele>54</ele>
        <time>2025-04-11T10:09:20Z</time>
      </trkpt>
      <trkpt lat="45.28661" lon="0.23497">
        <ele>54</ele>
        <time>2025-04-11T10:09:24Z</time>
      </trkpt>
      <trkpt lat="45.28659" lon="0.23531">
        <ele>54</ele>
        <time>2025-04-11T10:09:28Z</time>
      </trkpt>
      <trkpt lat="45.28662" lon="0.23582">
        <ele>54</ele>
        <time>2025-04-11T10:09:35Z</time>
      </trkpt>
      <trkpt lat="45.28679" lon="0.23724">
        <ele>53</ele>
        <time>2025-04-11T10:09:53Z</time>
      </trkpt>
      <trkpt lat="45.28677" lon="0.23751">
        <ele>53</ele>
        <time>2025-04-11T10:09:56Z</time>
      </trkpt>
      <trkpt lat="45.28651" lon="0.23803">
        <ele>53</ele>
        <time>2025-04-11T10:10:04Z</time>
      </trkpt>
      <trkpt lat="45.28648" lon="0.23827">
        <ele>54</ele>
        <time>2025-04-11T10:10:07Z</time>
      </trkpt>
      <trkpt lat="45.28646" lon="0.23872">
        <ele>55</ele>
        <time>2025-04-11T10:10:13Z</time>
      </trkpt>
      <trkpt lat="45.28546" lon="0.23979">
        <ele>59</ele>
        <time>2025-04-11T10:10:35Z</time>
      </trkpt>
      <trkpt lat="45.28522" lon="0.24011">
        <ele>60</ele>
        <time>2025-04-11T10:10:41Z</time>
      </trkpt>
      <trkpt lat="45.28514" lon="0.24029">
        <ele>60</ele>
        <time>2025-04-11T10:10:44Z</time>
      </trkpt>
      <trkpt lat="45.28512" lon="0.2405">
        <ele>60</ele>
        <time>2025-04-11T10:10:46Z</time>
      </trkpt>
      <trkpt lat="45.28521" lon="0.24114">
        <ele>60</ele>
        <time>2025-04-11T10:10:54Z</time>
      </trkpt>
      <trkpt lat="45.28527" lon="0.24173">
        <ele>59</ele>
        <time>2025-04-11T10:11:02Z</time>
      </trkpt>
      <trkpt lat="45.28522" lon="0.24197">
        <ele>59</ele>
        <time>2025-04-11T10:11:05Z</time>
      </trkpt>
      <trkpt lat="45.28514" lon="0.24218">
        <ele>59</ele>
        <time>2025-04-11T10:11:08Z</time>
      </trkpt>
      <trkpt lat="45.28486" lon="0.24248">
        <ele>59</ele>
        <time>2025-04-11T10:11:14Z</time>
      </trkpt>
      <trkpt lat="45.28386" lon="0.24342">
        <ele>60</ele>
        <time>2025-04-11T10:11:36Z</time>
      </trkpt>
      <trkpt lat="45.28327" lon="0.24429">
        <ele>59</ele>
        <time>2025-04-11T10:11:51Z</time>
      </trkpt>
      <trkpt lat="45.28287" lon="0.24471">
        <ele>60</ele>
        <time>2025-04-11T10:12:00Z</time>
      </trkpt>
      <trkpt lat="45.28281" lon="0.24478">
        <ele>60</ele>
        <time>2025-04-11T10:12:01Z</time>
      </trkpt>
      <trkpt lat="45.28277" lon="0.24486">
        <ele>60</ele>
        <time>2025-04-11T10:12:02Z</time>
      </trkpt>
      <trkpt lat="45.28241" lon="0.24595">
        <ele>57</ele>
        <time>2025-04-11T10:12:17Z</time>
      </trkpt>
      <trkpt lat="45.2823" lon="0.24612">
        <ele>58</ele>
        <time>2025-04-11T10:12:20Z</time>
      </trkpt>
      <trkpt lat="45.28221" lon="0.24619">
        <ele>59</ele>
        <time>2025-04-11T10:12:22Z</time>
      </trkpt>
      <trkpt lat="45.28204" lon="0.24623">
        <ele>60</ele>
        <time>2025-04-11T10:12:25Z</time>
      </trkpt>
      <trkpt lat="45.28172" lon="0.24609">
        <ele>62</ele>
        <time>2025-04-11T10:12:31Z</time>
      </trkpt>
      <trkpt lat="45.28054" lon="0.24523">
        <ele>65</ele>
        <time>2025-04-11T10:12:55Z</time>
      </trkpt>
      <trkpt lat="45.2802" lon="0.24502">
        <ele>67</ele>
        <time>2025-04-11T10:13:01Z</time>
      </trkpt>
      <trkpt lat="45.27987" lon="0.24487">
        <ele>69</ele>
        <time>2025-04-11T10:13:07Z</time>
      </trkpt>
      <trkpt lat="45.27958" lon="0.24482">
        <ele>70</ele>
        <time>2025-04-11T10:13:13Z</time>
      </trkpt>
      <trkpt lat="45.27928" lon="0.2449">
        <ele>71</ele>
        <time>2025-04-11T10:13:18Z</time>
      </trkpt>
      <trkpt lat="45.27893" lon="0.24512">
        <ele>71</ele>
        <time>2025-04-11T10:13:25Z</time>
      </trkpt>
      <trkpt lat="45.27838" lon="0.24574">
        <ele>69</ele>
        <time>2025-04-11T10:13:37Z</time>
      </trkpt>
      <trkpt lat="45.27794" lon="0.24645">
        <ele>68</ele>
        <time>2025-04-11T10:13:49Z</time>
      </trkpt>
      <trkpt lat="45.27766" lon="0.24678">
        <ele>69</ele>
        <time>2025-04-11T10:13:56Z</time>
      </trkpt>
      <trkpt lat="45.27698" lon="0.24737">
        <ele>71</ele>
        <time>2025-04-11T10:14:10Z</time>
      </trkpt>
      <trkpt lat="45.27676" lon="0.24759">
        <ele>71</ele>
        <time>2025-04-11T10:14:15Z</time>
      </trkpt>
      <trkpt lat="45.27626" lon="0.24865">
        <ele>71</ele>
        <time>2025-04-11T10:14:31Z</time>
      </trkpt>
      <trkpt lat="45.27597" lon="0.24897">
        <ele>72</ele>
        <time>2025-04-11T10:14:37Z</time>
      </trkpt>
      <trkpt lat="45.2758" lon="0.24911">
        <ele>72</ele>
        <time>2025-04-11T10:14:41Z</time>
      </trkpt>
      <trkpt lat="45.2757" lon="0.24925">
        <ele>72</ele>
        <time>2025-04-11T10:14:43Z</time>
      </trkpt>
      <trkpt lat="45.27524" lon="0.25016">
        <ele>74</ele>
        <time>2025-04-11T10:14:57Z</time>
      </trkpt>
      <trkpt lat="45.27512" lon="0.25034">
        <ele>74</ele>
        <time>2025-04-11T10:15:00Z</time>
      </trkpt>
      <trkpt lat="45.275" lon="0.25047">
        <ele>75</ele>
        <time>2025-04-11T10:15:03Z</time>
      </trkpt>
      <trkpt lat="45.27413" lon="0.25102">
        <ele>81</ele>
        <time>2025-04-11T10:15:20Z</time>
      </trkpt>
      <trkpt lat="45.2742" lon="0.25126">
        <ele>81</ele>
        <time>2025-04-11T10:15:23Z</time>
      </trkpt>
      <trkpt lat="45.27423" lon="0.25145">
        <ele>80</ele>
        <time>2025-04-11T10:15:25Z</time>
      </trkpt>
      <trkpt lat="45.27425" lon="0.25181">
        <ele>80</ele>
        <time>2025-04-11T10:15:30Z</time>
      </trkpt>
      <trkpt lat="45.27423" lon="0.25217">
        <ele>79</ele>
        <time>2025-04-11T10:15:35Z</time>
      </trkpt>
      <trkpt lat="45.27412" lon="0.2528">
        <ele>77</ele>
        <time>2025-04-11T10:15:43Z</time>
      </trkpt>
      <trkpt lat="45.27405" lon="0.25309">
        <ele>76</ele>
        <time>2025-04-11T10:15:46Z</time>
      </trkpt>
      <trkpt lat="45.27381" lon="0.25374">
        <ele>73</ele>
        <time>2025-04-11T10:15:56Z</time>
      </trkpt>
      <trkpt lat="45.27367" lon="0.2541">
        <ele>72</ele>
        <time>2025-04-11T10:16:01Z</time>
      </trkpt>
      <trkpt lat="45.2735" lon="0.25448">
        <ele>71</ele>
        <time>2025-04-11T10:16:06Z</time>
      </trkpt>
      <trkpt lat="45.27339" lon="0.25463">
        <ele>71</ele>
        <time>2025-04-11T10:16:09Z</time>
      </trkpt>
      <trkpt lat="45.27315" lon="0.25483">
        <ele>72</ele>
        <time>2025-04-11T10:16:14Z</time>
      </trkpt>
      <trkpt lat="45.27297" lon="0.25494">
        <ele>73</ele>
        <time>2025-04-11T10:16:18Z</time>
      </trkpt>
      <trkpt lat="45.27223" lon="0.25523">
        <ele>75</ele>
        <time>2025-04-11T10:16:31Z</time>
      </trkpt>
      <trkpt lat="45.27209" lon="0.25533">
        <ele>75</ele>
        <time>2025-04-11T10:16:34Z</time>
      </trkpt>
      <trkpt lat="45.27198" lon="0.25544">
        <ele>74</ele>
        <time>2025-04-11T10:16:36Z</time>
      </trkpt>
      <trkpt lat="45.27183" lon="0.25568">
        <ele>74</ele>
        <time>2025-04-11T10:16:40Z</time>
      </trkpt>
      <trkpt lat="45.27136" lon="0.25664">
        <ele>80</ele>
        <time>2025-04-11T10:16:55Z</time>
      </trkpt>
      <trkpt lat="45.27226" lon="0.25739">
        <ele>76</ele>
        <time>2025-04-11T10:17:14Z</time>
      </trkpt>
      <trkpt lat="45.27233" lon="0.25749">
        <ele>76</ele>
        <time>2025-04-11T10:17:15Z</time>
      </trkpt>
      <trkpt lat="45.2725" lon="0.25784">
        <ele>73</ele>
        <time>2025-04-11T10:17:21Z</time>
      </trkpt>
      <trkpt lat="45.27265" lon="0.25824">
        <ele>70</ele>
        <time>2025-04-11T10:17:26Z</time>
      </trkpt>
      <trkpt lat="45.27282" lon="0.25847">
        <ele>68</ele>
        <time>2025-04-11T10:17:31Z</time>
      </trkpt>
      <trkpt lat="45.27374" lon="0.2593">
        <ele>61</ele>
        <time>2025-04-11T10:17:50Z</time>
      </trkpt>
      <trkpt lat="45.27387" lon="0.25947">
        <ele>61</ele>
        <time>2025-04-11T10:17:53Z</time>
      </trkpt>
      <trkpt lat="45.27381" lon="0.25974">
        <ele>61</ele>
        <time>2025-04-11T10:17:57Z</time>
      </trkpt>
      <trkpt lat="45.27243" lon="0.26246">
        <ele>60</ele>
        <time>2025-04-11T10:18:39Z</time>
      </trkpt>
      <trkpt lat="45.27229" lon="0.26273">
        <ele>60</ele>
        <time>2025-04-11T10:18:43Z</time>
      </trkpt>
      <trkpt lat="45.27203" lon="0.26337">
        <ele>61</ele>
        <time>2025-04-11T10:18:52Z</time>
      </trkpt>
      <trkpt lat="45.27194" lon="0.26387">
        <ele>60</ele>
        <time>2025-04-11T10:18:59Z</time>
      </trkpt>
      <trkpt lat="45.27177" lon="0.26444">
        <ele>62</ele>
        <time>2025-04-11T10:19:06Z</time>
      </trkpt>
      <trkpt lat="45.27142" lon="0.26516">
        <ele>64</ele>
        <time>2025-04-11T10:19:17Z</time>
      </trkpt>
      <trkpt lat="45.27083" lon="0.2661">
        <ele>62</ele>
        <time>2025-04-11T10:19:33Z</time>
      </trkpt>
      <trkpt lat="45.27262" lon="0.26891">
        <ele>54</ele>
        <time>2025-04-11T10:20:21Z</time>
      </trkpt>
      <trkpt lat="45.27289" lon="0.26934">
        <ele>54</ele>
        <time>2025-04-11T10:20:28Z</time>
      </trkpt>
      <trkpt lat="45.27377" lon="0.27071">
        <ele>53</ele>
        <time>2025-04-11T10:20:51Z</time>
      </trkpt>
      <trkpt lat="45.27479" lon="0.27236">
        <ele>52</ele>
        <time>2025-04-11T10:21:18Z</time>
      </trkpt>
      <trkpt lat="45.27757" lon="0.27676">
        <ele>61</ele>
        <time>2025-04-11T10:22:33Z</time>
      </trkpt>
      <trkpt lat="45.27762" lon="0.2768">
        <ele>62</ele>
        <time>2025-04-11T10:22:34Z</time>
      </trkpt>
      <trkpt lat="45.27771" lon="0.2768">
        <ele>63</ele>
        <time>2025-04-11T10:22:35Z</time>
      </trkpt>
      <trkpt lat="45.27776" lon="0.27676">
        <ele>63</ele>
        <time>2025-04-11T10:22:36Z</time>
      </trkpt>
      <trkpt lat="45.27794" lon="0.27644">
        <ele>63</ele>
        <time>2025-04-11T10:22:41Z</time>
      </trkpt>
      <trkpt lat="45.27834" lon="0.27568">
        <ele>60</ele>
        <time>2025-04-11T10:22:53Z</time>
      </trkpt>
      <trkpt lat="45.27857" lon="0.27519">
        <ele>59</ele>
        <time>2025-04-11T10:23:01Z</time>
      </trkpt>
      <trkpt lat="45.2791" lon="0.27395">
        <ele>57</ele>
        <time>2025-04-11T10:23:19Z</time>
      </trkpt>
      <trkpt lat="45.2793" lon="0.27331">
        <ele>55</ele>
        <time>2025-04-11T10:23:27Z</time>
      </trkpt>
      <trkpt lat="45.28001" lon="0.27076">
        <ele>53</ele>
        <time>2025-04-11T10:24:02Z</time>
      </trkpt>
      <trkpt lat="45.28014" lon="0.27041">
        <ele>53</ele>
        <time>2025-04-11T10:24:07Z</time>
      </trkpt>
      <trkpt lat="45.28027" lon="0.27015">
        <ele>54</ele>
        <time>2025-04-11T10:24:11Z</time>
      </trkpt>
      <trkpt lat="45.28088" lon="0.26906">
        <ele>53</ele>
        <time>2025-04-11T10:24:28Z</time>
      </trkpt>
      <trkpt lat="45.28106" lon="0.26879">
        <ele>53</ele>
        <time>2025-04-11T10:24:33Z</time>
      </trkpt>
      <trkpt lat="45.28385" lon="0.26527">
        <ele>52</ele>
        <time>2025-04-11T10:25:39Z</time>
      </trkpt>
      <trkpt lat="45.28605" lon="0.26246">
        <ele>58</ele>
        <time>2025-04-11T10:26:32Z</time>
      </trkpt>
      <trkpt lat="45.28642" lon="0.26195">
        <ele>57</ele>
        <time>2025-04-11T10:26:41Z</time>
      </trkpt>
      <trkpt lat="45.28671" lon="0.26164">
        <ele>56</ele>
        <time>2025-04-11T10:26:48Z</time>
      </trkpt>
      <trkpt lat="45.28684" lon="0.26155">
        <ele>56</ele>
        <time>2025-04-11T10:26:50Z</time>
      </trkpt>
      <trkpt lat="45.28695" lon="0.2615">
        <ele>57</ele>
        <time>2025-04-11T10:26:52Z</time>
      </trkpt>
      <trkpt lat="45.28932" lon="0.2612">
        <ele>60</ele>
        <time>2025-04-11T10:27:34Z</time>
      </trkpt>
      <trkpt lat="45.28983" lon="0.26123">
        <ele>60</ele>
        <time>2025-04-11T10:27:44Z</time>
      </trkpt>
      <trkpt lat="45.29017" lon="0.26131">
        <ele>60</ele>
        <time>2025-04-11T10:27:50Z</time>
      </trkpt>
      <trkpt lat="45.29036" lon="0.26141">
        <ele>59</ele>
        <time>2025-04-11T10:27:53Z</time>
      </trkpt>
      <trkpt lat="45.29066" lon="0.26166">
        <ele>59</ele>
        <time>2025-04-11T10:27:59Z</time>
      </trkpt>
      <trkpt lat="45.2913" lon="0.2624">
        <ele>57</ele>
        <time>2025-04-11T10:28:14Z</time>
      </trkpt>
      <trkpt lat="45.29156" lon="0.26278">
        <ele>56</ele>
        <time>2025-04-11T10:28:21Z</time>
      </trkpt>
      <trkpt lat="45.29172" lon="0.26309">
        <ele>56</ele>
        <time>2025-04-11T10:28:26Z</time>
      </trkpt>
      <trkpt lat="45.29189" lon="0.26347">
        <ele>55</ele>
        <time>2025-04-11T10:28:31Z</time>
      </trkpt>
      <trkpt lat="45.29231" lon="0.26459">
        <ele>56</ele>
        <time>2025-04-11T10:28:47Z</time>
      </trkpt>
      <trkpt lat="45.29242" lon="0.26479">
        <ele>55</ele>
        <time>2025-04-11T10:28:50Z</time>
      </trkpt>
      <trkpt lat="45.29306" lon="0.26565">
        <ele>55</ele>
        <time>2025-04-11T10:29:06Z</time>
      </trkpt>
      <trkpt lat="45.2932" lon="0.2659">
        <ele>55</ele>
        <time>2025-04-11T10:29:10Z</time>
      </trkpt>
      <trkpt lat="45.29499" lon="0.26976">
        <ele>55</ele>
        <time>2025-04-11T10:30:08Z</time>
      </trkpt>
      <trkpt lat="45.29609" lon="0.27199">
        <ele>57</ele>
        <time>2025-04-11T10:30:42Z</time>
      </trkpt>
      <trkpt lat="45.29625" lon="0.27236">
        <ele>58</ele>
        <time>2025-04-11T10:30:47Z</time>
      </trkpt>
      <trkpt lat="45.29637" lon="0.2727">
        <ele>59</ele>
        <time>2025-04-11T10:30:52Z</time>
      </trkpt>
      <trkpt lat="45.29645" lon="0.27303">
        <ele>59</ele>
        <time>2025-04-11T10:30:56Z</time>
      </trkpt>
      <trkpt lat="45.29649" lon="0.27335">
        <ele>59</ele>
        <time>2025-04-11T10:31:01Z</time>
      </trkpt>
      <trkpt lat="45.29651" lon="0.27381">
        <ele>60</ele>
        <time>2025-04-11T10:31:06Z</time>
      </trkpt>
      <trkpt lat="45.29655" lon="0.27596">
        <ele>63</ele>
        <time>2025-04-11T10:31:33Z</time>
      </trkpt>
      <trkpt lat="45.29657" lon="0.27606">
        <ele>62</ele>
        <time>2025-04-11T10:31:35Z</time>
      </trkpt>
      <trkpt lat="45.2966" lon="0.27609">
        <ele>62</ele>
        <time>2025-04-11T10:31:35Z</time>
      </trkpt>
      <trkpt lat="45.29675" lon="0.27592">
        <ele>60</ele>
        <time>2025-04-11T10:31:39Z</time>
      </trkpt>
      <trkpt lat="45.29693" lon="0.2758">
        <ele>59</ele>
        <time>2025-04-11T10:31:42Z</time>
      </trkpt>
      <trkpt lat="45.29747" lon="0.27557">
        <ele>55</ele>
        <time>2025-04-11T10:31:52Z</time>
      </trkpt>
      <trkpt lat="45.29765" lon="0.27549">
        <ele>54</ele>
        <time>2025-04-11T10:31:56Z</time>
      </trkpt>
      <trkpt lat="45.29873" lon="0.27503">
        <ele>54</ele>
        <time>2025-04-11T10:32:16Z</time>
      </trkpt>
      <trkpt lat="45.29897" lon="0.27496">
        <ele>55</ele>
        <time>2025-04-11T10:32:20Z</time>
      </trkpt>
      <trkpt lat="45.29923" lon="0.27493">
        <ele>55</ele>
        <time>2025-04-11T10:32:25Z</time>
      </trkpt>
      <trkpt lat="45.30119" lon="0.27487">
        <ele>64</ele>
        <time>2025-04-11T10:32:59Z</time>
      </trkpt>
      <trkpt lat="45.30161" lon="0.27494">
        <ele>65</ele>
        <time>2025-04-11T10:33:07Z</time>
      </trkpt>
      <trkpt lat="45.3019" lon="0.27503">
        <ele>65</ele>
        <time>2025-04-11T10:33:12Z</time>
      </trkpt>
      <trkpt lat="45.30326" lon="0.27567">
        <ele>71</ele>
        <time>2025-04-11T10:33:38Z</time>
      </trkpt>
      <trkpt lat="45.30354" lon="0.27583">
        <ele>72</ele>
        <time>2025-04-11T10:33:43Z</time>
      </trkpt>
      <trkpt lat="45.30422" lon="0.27627">
        <ele>73</ele>
        <time>2025-04-11T10:33:56Z</time>
      </trkpt>
      <trkpt lat="45.30443" lon="0.27635">
        <ele>72</ele>
        <time>2025-04-11T10:34:00Z</time>
      </trkpt>
      <trkpt lat="45.30474" lon="0.27643">
        <ele>69</ele>
        <time>2025-04-11T10:34:06Z</time>
      </trkpt>
      <trkpt lat="45.30538" lon="0.27643">
        <ele>67</ele>
        <time>2025-04-11T10:34:17Z</time>
      </trkpt>
      <trkpt lat="45.30558" lon="0.27639">
        <ele>68</ele>
        <time>2025-04-11T10:34:21Z</time>
      </trkpt>
      <trkpt lat="45.30575" lon="0.27632">
        <ele>68</ele>
        <time>2025-04-11T10:34:24Z</time>
      </trkpt>
      <trkpt lat="45.30594" lon="0.27619">
        <ele>68</ele>
        <time>2025-04-11T10:34:28Z</time>
      </trkpt>
      <trkpt lat="45.30719" lon="0.27515">
        <ele>66</ele>
        <time>2025-04-11T10:34:54Z</time>
      </trkpt>
      <trkpt lat="45.30753" lon="0.27493">
        <ele>64</ele>
        <time>2025-04-11T10:35:00Z</time>
      </trkpt>
      <trkpt lat="45.30787" lon="0.27477">
        <ele>63</ele>
        <time>2025-04-11T10:35:07Z</time>
      </trkpt>
      <trkpt lat="45.30862" lon="0.27453">
        <ele>62</ele>
        <time>2025-04-11T10:35:20Z</time>
      </trkpt>
      <trkpt lat="45.30857" lon="0.27454">
        <ele>62</ele>
        <time>2025-04-11T10:35:21Z</time>
      </trkpt>
      <trkpt lat="45.3088" lon="0.27504">
        <ele>65</ele>
        <time>2025-04-11T10:35:29Z</time>
      </trkpt>
      <trkpt lat="45.30903" lon="0.27529">
        <ele>65</ele>
        <time>2025-04-11T10:35:34Z</time>
      </trkpt>
      <trkpt lat="45.31048" lon="0.27647">
        <ele>66</ele>
        <time>2025-04-11T10:36:04Z</time>
      </trkpt>
      <trkpt lat="45.31133" lon="0.27691">
        <ele>68</ele>
        <time>2025-04-11T10:36:20Z</time>
      </trkpt>
      <trkpt lat="45.31163" lon="0.27722">
        <ele>70</ele>
        <time>2025-04-11T10:36:26Z</time>
      </trkpt>
      <trkpt lat="45.31189" lon="0.27723">
        <ele>70</ele>
        <time>2025-04-11T10:36:31Z</time>
      </trkpt>
      <trkpt lat="45.31212" lon="0.27712">
        <ele>69</ele>
        <time>2025-04-11T10:36:35Z</time>
      </trkpt>
      <trkpt lat="45.31255" lon="0.27729">
        <ele>70</ele>
        <time>2025-04-11T10:36:43Z</time>
      </trkpt>
      <trkpt lat="45.31379" lon="0.27758">
        <ele>62</ele>
        <time>2025-04-11T10:37:05Z</time>
      </trkpt>
      <trkpt lat="45.31468" lon="0.27751">
        <ele>60</ele>
        <time>2025-04-11T10:37:21Z</time>
      </trkpt>
      <trkpt lat="45.31485" lon="0.27752">
        <ele>60</ele>
        <time>2025-04-11T10:37:24Z</time>
      </trkpt>
      <trkpt lat="45.31501" lon="0.27758">
        <ele>60</ele>
        <time>2025-04-11T10:37:27Z</time>
      </trkpt>
      <trkpt lat="45.31519" lon="0.27768">
        <ele>60</ele>
        <time>2025-04-11T10:37:31Z</time>
      </trkpt>
      <trkpt lat="45.31537" lon="0.27783">
        <ele>61</ele>
        <time>2025-04-11T10:37:34Z</time>
      </trkpt>
      <trkpt lat="45.3159" lon="0.27833">
        <ele>61</ele>
        <time>2025-04-11T10:37:46Z</time>
      </trkpt>
      <trkpt lat="45.31648" lon="0.27893">
        <ele>60</ele>
        <time>2025-04-11T10:37:59Z</time>
      </trkpt>
      <trkpt lat="45.31656" lon="0.27897">
        <ele>60</ele>
        <time>2025-04-11T10:38:00Z</time>
      </trkpt>
      <trkpt lat="45.31668" lon="0.27899">
        <ele>60</ele>
        <time>2025-04-11T10:38:02Z</time>
      </trkpt>
      <trkpt lat="45.31681" lon="0.27897">
        <ele>60</ele>
        <time>2025-04-11T10:38:05Z</time>
      </trkpt>
      <trkpt lat="45.31757" lon="0.27864">
        <ele>61</ele>
        <time>2025-04-11T10:38:19Z</time>
      </trkpt>
      <trkpt lat="45.3177" lon="0.27872">
        <ele>63</ele>
        <time>2025-04-11T10:38:21Z</time>
      </trkpt>
      <trkpt lat="45.31801" lon="0.27883">
        <ele>66</ele>
        <time>2025-04-11T10:38:27Z</time>
      </trkpt>
      <trkpt lat="45.3182" lon="0.27885">
        <ele>68</ele>
        <time>2025-04-11T10:38:30Z</time>
      </trkpt>
      <trkpt lat="45.3183" lon="0.27882">
        <ele>69</ele>
        <time>2025-04-11T10:38:32Z</time>
      </trkpt>
      <trkpt lat="45.31837" lon="0.27877">
        <ele>69</ele>
        <time>2025-04-11T10:38:33Z</time>
      </trkpt>
      <trkpt lat="45.31863" lon="0.27854">
        <ele>71</ele>
        <time>2025-04-11T10:38:39Z</time>
      </trkpt>
      <trkpt lat="45.31857" lon="0.27893">
        <ele>72</ele>
        <time>2025-04-11T10:38:44Z</time>
      </trkpt>
      <trkpt lat="45.31857" lon="0.27914">
        <ele>73</ele>
        <time>2025-04-11T10:38:47Z</time>
      </trkpt>
      <trkpt lat="45.31893" lon="0.27988">
        <ele>80</ele>
        <time>2025-04-11T10:38:58Z</time>
      </trkpt>
      <trkpt lat="45.3191" lon="0.28012">
        <ele>84</ele>
        <time>2025-04-11T10:39:02Z</time>
      </trkpt>
      <trkpt lat="45.31918" lon="0.28015">
        <ele>85</ele>
        <time>2025-04-11T10:39:04Z</time>
      </trkpt>
      <trkpt lat="45.31945" lon="0.28065">
        <ele>88</ele>
        <time>2025-04-11T10:39:11Z</time>
      </trkpt>
      <trkpt lat="45.31952" lon="0.28074">
        <ele>89</ele>
        <time>2025-04-11T10:39:13Z</time>
      </trkpt>
      <trkpt lat="45.31976" lon="0.28098">
        <ele>91</ele>
        <time>2025-04-11T10:39:18Z</time>
      </trkpt>
      <trkpt lat="45.3198" lon="0.28109">
        <ele>92</ele>
        <time>2025-04-11T10:39:20Z</time>
      </trkpt>
      <trkpt lat="45.31992" lon="0.28139">
        <ele>93</ele>
        <time>2025-04-11T10:39:24Z</time>
      </trkpt>
      <trkpt lat="45.31998" lon="0.28139">
        <ele>94</ele>
        <time>2025-04-11T10:39:25Z</time>
      </trkpt>
      <trkpt lat="45.32245" lon="0.28057">
        <ele>95</ele>
        <time>2025-04-11T10:40:10Z</time>
      </trkpt>
      <trkpt lat="45.32295" lon="0.28044">
        <ele>95</ele>
        <time>2025-04-11T10:40:19Z</time>
      </trkpt>
      <trkpt lat="45.32318" lon="0.28045">
        <ele>96</ele>
        <time>2025-04-11T10:40:24Z</time>
      </trkpt>
      <trkpt lat="45.32491" lon="0.28097">
        <ele>102</ele>
        <time>2025-04-11T10:40:55Z</time>
      </trkpt>
      <trkpt lat="45.32521" lon="0.28098">
        <ele>102</ele>
        <time>2025-04-11T10:41:00Z</time>
      </trkpt>
      <trkpt lat="45.32609" lon="0.28078">
        <ele>103</ele>
        <time>2025-04-11T10:41:16Z</time>
      </trkpt>
      <trkpt lat="45.32634" lon="0.28077">
        <ele>102</ele>
        <time>2025-04-11T10:41:21Z</time>
      </trkpt>
      <trkpt lat="45.32689" lon="0.28087">
        <ele>100</ele>
        <time>2025-04-11T10:41:30Z</time>
      </trkpt>
      <trkpt lat="45.32849" lon="0.28121">
        <ele>103</ele>
        <time>2025-04-11T10:41:59Z</time>
      </trkpt>
      <trkpt lat="45.32867" lon="0.28129">
        <ele>105</ele>
        <time>2025-04-11T10:42:03Z</time>
      </trkpt>
      <trkpt lat="45.32885" lon="0.28143">
        <ele>108</ele>
        <time>2025-04-11T10:42:06Z</time>
      </trkpt>
      <trkpt lat="45.32949" lon="0.28217">
        <ele>114</ele>
        <time>2025-04-11T10:42:21Z</time>
      </trkpt>
      <trkpt lat="45.33049" lon="0.2833">
        <ele>126</ele>
        <time>2025-04-11T10:42:44Z</time>
      </trkpt>
      <trkpt lat="45.33067" lon="0.28355">
        <ele>128</ele>
        <time>2025-04-11T10:42:48Z</time>
      </trkpt>
      <trkpt lat="45.33083" lon="0.28385">
        <ele>131</ele>
        <time>2025-04-11T10:42:53Z</time>
      </trkpt>
      <trkpt lat="45.33106" lon="0.28446">
        <ele>132</ele>
        <time>2025-04-11T10:43:02Z</time>
      </trkpt>
      <trkpt lat="45.33113" lon="0.28476">
        <ele>133</ele>
        <time>2025-04-11T10:43:05Z</time>
      </trkpt>
      <trkpt lat="45.33115" lon="0.28507">
        <ele>134</ele>
        <time>2025-04-11T10:43:09Z</time>
      </trkpt>
      <trkpt lat="45.33115" lon="0.28535">
        <ele>135</ele>
        <time>2025-04-11T10:43:13Z</time>
      </trkpt>
      <trkpt lat="45.33117" lon="0.28556">
        <ele>135</ele>
        <time>2025-04-11T10:43:16Z</time>
      </trkpt>
      <trkpt lat="45.3312" lon="0.2857">
        <ele>135</ele>
        <time>2025-04-11T10:43:17Z</time>
      </trkpt>
      <trkpt lat="45.3314" lon="0.28622">
        <ele>134</ele>
        <time>2025-04-11T10:43:25Z</time>
      </trkpt>
      <trkpt lat="45.33164" lon="0.28699">
        <ele>134</ele>
        <time>2025-04-11T10:43:35Z</time>
      </trkpt>
      <trkpt lat="45.33176" lon="0.28733">
        <ele>135</ele>
        <time>2025-04-11T10:43:40Z</time>
      </trkpt>
      <trkpt lat="45.33195" lon="0.28771">
        <ele>134</ele>
        <time>2025-04-11T10:43:46Z</time>
      </trkpt>
      <trkpt lat="45.33229" lon="0.28822">
        <ele>137</ele>
        <time>2025-04-11T10:43:55Z</time>
      </trkpt>
      <trkpt lat="45.33326" lon="0.28955">
        <ele>142</ele>
        <time>2025-04-11T10:44:19Z</time>
      </trkpt>
      <trkpt lat="45.33347" lon="0.28978">
        <ele>142</ele>
        <time>2025-04-11T10:44:23Z</time>
      </trkpt>
      <trkpt lat="45.33365" lon="0.28993">
        <ele>142</ele>
        <time>2025-04-11T10:44:27Z</time>
      </trkpt>
      <trkpt lat="45.33523" lon="0.29081">
        <ele>147</ele>
        <time>2025-04-11T10:44:57Z</time>
      </trkpt>
      <trkpt lat="45.33552" lon="0.29092">
        <ele>145</ele>
        <time>2025-04-11T10:45:03Z</time>
      </trkpt>
      <trkpt lat="45.33576" lon="0.29096">
        <ele>144</ele>
        <time>2025-04-11T10:45:07Z</time>
      </trkpt>
      <trkpt lat="45.33648" lon="0.29082">
        <ele>143</ele>
        <time>2025-04-11T10:45:20Z</time>
      </trkpt>
      <trkpt lat="45.33671" lon="0.29059">
        <ele>141</ele>
        <time>2025-04-11T10:45:25Z</time>
      </trkpt>
      <trkpt lat="45.33733" lon="0.28989">
        <ele>138</ele>
        <time>2025-04-11T10:45:39Z</time>
      </trkpt>
      <trkpt lat="45.33775" lon="0.28973">
        <ele>142</ele>
        <time>2025-04-11T10:45:47Z</time>
      </trkpt>
      <trkpt lat="45.33851" lon="0.28987">
        <ele>149</ele>
        <time>2025-04-11T10:46:00Z</time>
      </trkpt>
      <trkpt lat="45.33898" lon="0.29001">
        <ele>152</ele>
        <time>2025-04-11T10:46:09Z</time>
      </trkpt>
      <trkpt lat="45.33933" lon="0.28985">
        <ele>154</ele>
        <time>2025-04-11T10:46:15Z</time>
      </trkpt>
      <trkpt lat="45.33969" lon="0.28946">
        <ele>155</ele>
        <time>2025-04-11T10:46:23Z</time>
      </trkpt>
      <trkpt lat="45.33986" lon="0.28931">
        <ele>156</ele>
        <time>2025-04-11T10:46:27Z</time>
      </trkpt>
      <trkpt lat="45.34006" lon="0.28928">
        <ele>156</ele>
        <time>2025-04-11T10:46:31Z</time>
      </trkpt>
      <trkpt lat="45.34041" lon="0.28933">
        <ele>155</ele>
        <time>2025-04-11T10:46:37Z</time>
      </trkpt>
      <trkpt lat="45.34138" lon="0.2897">
        <ele>154</ele>
        <time>2025-04-11T10:46:55Z</time>
      </trkpt>
      <trkpt lat="45.34158" lon="0.29008">
        <ele>154</ele>
        <time>2025-04-11T10:47:01Z</time>
      </trkpt>
      <trkpt lat="45.34202" lon="0.29104">
        <ele>151</ele>
        <time>2025-04-11T10:47:15Z</time>
      </trkpt>
      <trkpt lat="45.34204" lon="0.29144">
        <ele>150</ele>
        <time>2025-04-11T10:47:20Z</time>
      </trkpt>
      <trkpt lat="45.34166" lon="0.29383">
        <ele>150</ele>
        <time>2025-04-11T10:47:51Z</time>
      </trkpt>
      <trkpt lat="45.34138" lon="0.29482">
        <ele>145</ele>
        <time>2025-04-11T10:48:04Z</time>
      </trkpt>
      <trkpt lat="45.34137" lon="0.29529">
        <ele>143</ele>
        <time>2025-04-11T10:48:10Z</time>
      </trkpt>
      <trkpt lat="45.34156" lon="0.29594">
        <ele>142</ele>
        <time>2025-04-11T10:48:19Z</time>
      </trkpt>
      <trkpt lat="45.34169" lon="0.29633">
        <ele>141</ele>
        <time>2025-04-11T10:48:24Z</time>
      </trkpt>
      <trkpt lat="45.34181" lon="0.29693">
        <ele>138</ele>
        <time>2025-04-11T10:48:32Z</time>
      </trkpt>
      <trkpt lat="45.3418" lon="0.29732">
        <ele>136</ele>
        <time>2025-04-11T10:48:37Z</time>
      </trkpt>
      <trkpt lat="45.3417" lon="0.29794">
        <ele>135</ele>
        <time>2025-04-11T10:48:45Z</time>
      </trkpt>
      <trkpt lat="45.34152" lon="0.29874">
        <ele>131</ele>
        <time>2025-04-11T10:48:55Z</time>
      </trkpt>
      <trkpt lat="45.3415" lon="0.29946">
        <ele>128</ele>
        <time>2025-04-11T10:49:04Z</time>
      </trkpt>
      <trkpt lat="45.34163" lon="0.29995">
        <ele>127</ele>
        <time>2025-04-11T10:49:11Z</time>
      </trkpt>
      <trkpt lat="45.34178" lon="0.30026">
        <ele>126</ele>
        <time>2025-04-11T10:49:15Z</time>
      </trkpt>
      <trkpt lat="45.34196" lon="0.30047">
        <ele>125</ele>
        <time>2025-04-11T10:49:20Z</time>
      </trkpt>
      <trkpt lat="45.34208" lon="0.3005">
        <ele>124</ele>
        <time>2025-04-11T10:49:22Z</time>
      </trkpt>
      <trkpt lat="45.34233" lon="0.30048">
        <ele>124</ele>
        <time>2025-04-11T10:49:26Z</time>
      </trkpt>
      <trkpt lat="45.34335" lon="0.30016">
        <ele>120</ele>
        <time>2025-04-11T10:49:45Z</time>
      </trkpt>
      <trkpt lat="45.34357" lon="0.30013">
        <ele>119</ele>
        <time>2025-04-11T10:49:49Z</time>
      </trkpt>
      <trkpt lat="45.34401" lon="0.30022">
        <ele>115</ele>
        <time>2025-04-11T10:49:57Z</time>
      </trkpt>
      <trkpt lat="45.34422" lon="0.30034">
        <ele>114</ele>
        <time>2025-04-11T10:50:01Z</time>
      </trkpt>
      <trkpt lat="45.34452" lon="0.3007">
        <ele>112</ele>
        <time>2025-04-11T10:50:08Z</time>
      </trkpt>
      <trkpt lat="45.34463" lon="0.30092">
        <ele>111</ele>
        <time>2025-04-11T10:50:11Z</time>
      </trkpt>
      <trkpt lat="45.34472" lon="0.30128">
        <ele>110</ele>
        <time>2025-04-11T10:50:16Z</time>
      </trkpt>
      <trkpt lat="45.34502" lon="0.30277">
        <ele>104</ele>
        <time>2025-04-11T10:50:35Z</time>
      </trkpt>
      <trkpt lat="45.3451" lon="0.30315">
        <ele>102</ele>
        <time>2025-04-11T10:50:40Z</time>
      </trkpt>
      <trkpt lat="45.34522" lon="0.30402">
        <ele>100</ele>
        <time>2025-04-11T10:50:51Z</time>
      </trkpt>
      <trkpt lat="45.34517" lon="0.30458">
        <ele>98</ele>
        <time>2025-04-11T10:50:58Z</time>
      </trkpt>
      <trkpt lat="45.3461" lon="0.30484">
        <ele>103</ele>
        <time>2025-04-11T10:51:15Z</time>
      </trkpt>
      <trkpt lat="45.34746" lon="0.30506">
        <ele>109</ele>
        <time>2025-04-11T10:51:40Z</time>
      </trkpt>
      <trkpt lat="45.34814" lon="0.30499">
        <ele>112</ele>
        <time>2025-04-11T10:51:52Z</time>
      </trkpt>
      <trkpt lat="45.34848" lon="0.30475">
        <ele>112</ele>
        <time>2025-04-11T10:51:58Z</time>
      </trkpt>
      <trkpt lat="45.34872" lon="0.30448">
        <ele>111</ele>
        <time>2025-04-11T10:52:04Z</time>
      </trkpt>
      <trkpt lat="45.34907" lon="0.30396">
        <ele>111</ele>
        <time>2025-04-11T10:52:13Z</time>
      </trkpt>
      <trkpt lat="45.34957" lon="0.30277">
        <ele>111</ele>
        <time>2025-04-11T10:52:30Z</time>
      </trkpt>
      <trkpt lat="45.34975" lon="0.30251">
        <ele>109</ele>
        <time>2025-04-11T10:52:35Z</time>
      </trkpt>
      <trkpt lat="45.35053" lon="0.30164">
        <ele>111</ele>
        <time>2025-04-11T10:52:52Z</time>
      </trkpt>
      <trkpt lat="45.35127" lon="0.30107">
        <ele>116</ele>
        <time>2025-04-11T10:53:07Z</time>
      </trkpt>
      <trkpt lat="45.35204" lon="0.29947">
        <ele>120</ele>
        <time>2025-04-11T10:53:32Z</time>
      </trkpt>
      <trkpt lat="45.3526" lon="0.29855">
        <ele>122</ele>
        <time>2025-04-11T10:53:47Z</time>
      </trkpt>
      <trkpt lat="45.35279" lon="0.29811">
        <ele>124</ele>
        <time>2025-04-11T10:53:53Z</time>
      </trkpt>
      <trkpt lat="45.35293" lon="0.29788">
        <ele>125</ele>
        <time>2025-04-11T10:53:57Z</time>
      </trkpt>
      <trkpt lat="45.35308" lon="0.29774">
        <ele>125</ele>
        <time>2025-04-11T10:54:00Z</time>
      </trkpt>
      <trkpt lat="45.35454" lon="0.29698">
        <ele>137</ele>
        <time>2025-04-11T10:54:28Z</time>
      </trkpt>
      <trkpt lat="45.35575" lon="0.29611">
        <ele>156</ele>
        <time>2025-04-11T10:54:52Z</time>
      </trkpt>
      <trkpt lat="45.35649" lon="0.2954">
        <ele>161</ele>
        <time>2025-04-11T10:55:08Z</time>
      </trkpt>
      <trkpt lat="45.35724" lon="0.29441">
        <ele>167</ele>
        <time>2025-04-11T10:55:26Z</time>
      </trkpt>
      <trkpt lat="45.35755" lon="0.29404">
        <ele>168</ele>
        <time>2025-04-11T10:55:33Z</time>
      </trkpt>
      <trkpt lat="45.35761" lon="0.29373">
        <ele>167</ele>
        <time>2025-04-11T10:55:37Z</time>
      </trkpt>
      <trkpt lat="45.35743" lon="0.29249">
        <ele>161</ele>
        <time>2025-04-11T10:55:53Z</time>
      </trkpt>
      <trkpt lat="45.35717" lon="0.29095">
        <ele>146</ele>
        <time>2025-04-11T10:56:13Z</time>
      </trkpt>
      <trkpt lat="45.35688" lon="0.29016">
        <ele>148</ele>
        <time>2025-04-11T10:56:24Z</time>
      </trkpt>
      <trkpt lat="45.35658" lon="0.28953">
        <ele>146</ele>
        <time>2025-04-11T10:56:34Z</time>
      </trkpt>
      <trkpt lat="45.35651" lon="0.28922">
        <ele>145</ele>
        <time>2025-04-11T10:56:38Z</time>
      </trkpt>
      <trkpt lat="45.35654" lon="0.28894">
        <ele>143</ele>
        <time>2025-04-11T10:56:41Z</time>
      </trkpt>
      <trkpt lat="45.35664" lon="0.28876">
        <ele>143</ele>
        <time>2025-04-11T10:56:44Z</time>
      </trkpt>
      <trkpt lat="45.35705" lon="0.2886">
        <ele>144</ele>
        <time>2025-04-11T10:56:52Z</time>
      </trkpt>
      <trkpt lat="45.35729" lon="0.28837">
        <ele>142</ele>
        <time>2025-04-11T10:56:57Z</time>
      </trkpt>
      <trkpt lat="45.35746" lon="0.28809">
        <ele>141</ele>
        <time>2025-04-11T10:57:01Z</time>
      </trkpt>
      <trkpt lat="45.35757" lon="0.28774">
        <ele>138</ele>
        <time>2025-04-11T10:57:06Z</time>
      </trkpt>
      <trkpt lat="45.35747" lon="0.28723">
        <ele>135</ele>
        <time>2025-04-11T10:57:13Z</time>
      </trkpt>
      <trkpt lat="45.35728" lon="0.28676">
        <ele>132</ele>
        <time>2025-04-11T10:57:20Z</time>
      </trkpt>
      <trkpt lat="45.35693" lon="0.28625">
        <ele>127</ele>
        <time>2025-04-11T10:57:29Z</time>
      </trkpt>
      <trkpt lat="45.35677" lon="0.28592">
        <ele>126</ele>
        <time>2025-04-11T10:57:34Z</time>
      </trkpt>
      <trkpt lat="45.35661" lon="0.28499">
        <ele>122</ele>
        <time>2025-04-11T10:57:46Z</time>
      </trkpt>
      <trkpt lat="45.35635" lon="0.28441">
        <ele>120</ele>
        <time>2025-04-11T10:57:54Z</time>
      </trkpt>
      <trkpt lat="45.35571" lon="0.28355">
        <ele>113</ele>
        <time>2025-04-11T10:58:10Z</time>
      </trkpt>
      <trkpt lat="45.35557" lon="0.2831">
        <ele>111</ele>
        <time>2025-04-11T10:58:16Z</time>
      </trkpt>
      <trkpt lat="45.35554" lon="0.28248">
        <ele>110</ele>
        <time>2025-04-11T10:58:24Z</time>
      </trkpt>
      <trkpt lat="45.35555" lon="0.28187">
        <ele>109</ele>
        <time>2025-04-11T10:58:31Z</time>
      </trkpt>
      <trkpt lat="45.3553" lon="0.28073">
        <ele>105</ele>
        <time>2025-04-11T10:58:46Z</time>
      </trkpt>
      <trkpt lat="45.35507" lon="0.27985">
        <ele>99</ele>
        <time>2025-04-11T10:58:58Z</time>
      </trkpt>
      <trkpt lat="45.35468" lon="0.27944">
        <ele>93</ele>
        <time>2025-04-11T10:59:07Z</time>
      </trkpt>
      <trkpt lat="45.35411" lon="0.27934">
        <ele>88</ele>
        <time>2025-04-11T10:59:17Z</time>
      </trkpt>
      <trkpt lat="45.35373" lon="0.27911">
        <ele>86</ele>
        <time>2025-04-11T10:59:24Z</time>
      </trkpt>
      <trkpt lat="45.35221" lon="0.27728">
        <ele>84</ele>
        <time>2025-04-11T11:00:00Z</time>
      </trkpt>
      <trkpt lat="45.35173" lon="0.27658">
        <ele>84</ele>
        <time>2025-04-11T11:00:12Z</time>
      </trkpt>
      <trkpt lat="45.35106" lon="0.27538">
        <ele>83</ele>
        <time>2025-04-11T11:00:31Z</time>
      </trkpt>
      <trkpt lat="45.34902" lon="0.27234">
        <ele>87</ele>
        <time>2025-04-11T11:01:24Z</time>
      </trkpt>
      <trkpt lat="45.34825" lon="0.27105">
        <ele>88</ele>
        <time>2025-04-11T11:01:45Z</time>
      </trkpt>
      <trkpt lat="45.34724" lon="0.2669">
        <ele>82</ele>
        <time>2025-04-11T11:02:40Z</time>
      </trkpt>
      <trkpt lat="45.3474" lon="0.2668">
        <ele>83</ele>
        <time>2025-04-11T11:02:43Z</time>
      </trkpt>
      <trkpt lat="45.34756" lon="0.26675">
        <ele>83</ele>
        <time>2025-04-11T11:02:46Z</time>
      </trkpt>
      <trkpt lat="45.34767" lon="0.26663">
        <ele>83</ele>
        <time>2025-04-11T11:02:48Z</time>
      </trkpt>
      <trkpt lat="45.34799" lon="0.26634">
        <ele>82</ele>
        <time>2025-04-11T11:02:55Z</time>
      </trkpt>
      <trkpt lat="45.34848" lon="0.26562">
        <ele>79</ele>
        <time>2025-04-11T11:03:07Z</time>
      </trkpt>
      <trkpt lat="45.34952" lon="0.26375">
        <ele>69</ele>
        <time>2025-04-11T11:03:37Z</time>
      </trkpt>
      <trkpt lat="45.34959" lon="0.26348">
        <ele>69</ele>
        <time>2025-04-11T11:03:41Z</time>
      </trkpt>
      <trkpt lat="45.34939" lon="0.26293">
        <ele>69</ele>
        <time>2025-04-11T11:03:49Z</time>
      </trkpt>
      <trkpt lat="45.34928" lon="0.26242">
        <ele>69</ele>
        <time>2025-04-11T11:03:55Z</time>
      </trkpt>
      <trkpt lat="45.34928" lon="0.26183">
        <ele>66</ele>
        <time>2025-04-11T11:04:03Z</time>
      </trkpt>
      <trkpt lat="45.34934" lon="0.26156">
        <ele>65</ele>
        <time>2025-04-11T11:04:06Z</time>
      </trkpt>
      <trkpt lat="45.34944" lon="0.26108">
        <ele>64</ele>
        <time>2025-04-11T11:04:12Z</time>
      </trkpt>
      <trkpt lat="45.34966" lon="0.26048">
        <ele>63</ele>
        <time>2025-04-11T11:04:21Z</time>
      </trkpt>
      <trkpt lat="45.35077" lon="0.25871">
        <ele>63</ele>
        <time>2025-04-11T11:04:51Z</time>
      </trkpt>
      <trkpt lat="45.35082" lon="0.25862">
        <ele>63</ele>
        <time>2025-04-11T11:04:52Z</time>
      </trkpt>
      <trkpt lat="45.35108" lon="0.25817">
        <ele>62</ele>
        <time>2025-04-11T11:04:59Z</time>
      </trkpt>
      <trkpt lat="45.3512" lon="0.25787">
        <ele>62</ele>
        <time>2025-04-11T11:05:04Z</time>
      </trkpt>
      <trkpt lat="45.35196" lon="0.25559">
        <ele>62</ele>
        <time>2025-04-11T11:05:35Z</time>
      </trkpt>
      <trkpt lat="45.352" lon="0.2554">
        <ele>62</ele>
        <time>2025-04-11T11:05:38Z</time>
      </trkpt>
      <trkpt lat="45.35228" lon="0.25567">
        <ele>62</ele>
        <time>2025-04-11T11:05:44Z</time>
      </trkpt>
      <trkpt lat="45.35246" lon="0.25576">
        <ele>62</ele>
        <time>2025-04-11T11:05:47Z</time>
      </trkpt>
      <trkpt lat="45.35334" lon="0.25615">
        <ele>63</ele>
        <time>2025-04-11T11:06:04Z</time>
      </trkpt>
      <trkpt lat="45.35347" lon="0.25623">
        <ele>63</ele>
        <time>2025-04-11T11:06:06Z</time>
      </trkpt>
      <trkpt lat="45.35362" lon="0.25639">
        <ele>63</ele>
        <time>2025-04-11T11:06:09Z</time>
      </trkpt>
      <trkpt lat="45.35375" lon="0.25662">
        <ele>63</ele>
        <time>2025-04-11T11:06:13Z</time>
      </trkpt>
      <trkpt lat="45.35378" lon="0.25668">
        <ele>64</ele>
        <time>2025-04-11T11:06:14Z</time>
      </trkpt>
      <trkpt lat="45.35413" lon="0.25747">
        <ele>63</ele>
        <time>2025-04-11T11:06:26Z</time>
      </trkpt>
      <trkpt lat="45.3548" lon="0.25838">
        <ele>62</ele>
        <time>2025-04-11T11:06:42Z</time>
      </trkpt>
      <trkpt lat="45.35688" lon="0.26024">
        <ele>64</ele>
        <time>2025-04-11T11:07:26Z</time>
      </trkpt>
      <trkpt lat="45.35709" lon="0.26028">
        <ele>65</ele>
        <time>2025-04-11T11:07:30Z</time>
      </trkpt>
      <trkpt lat="45.35813" lon="0.26016">
        <ele>73</ele>
        <time>2025-04-11T11:07:48Z</time>
      </trkpt>
      <trkpt lat="45.36058" lon="0.26085">
        <ele>81</ele>
        <time>2025-04-11T11:08:33Z</time>
      </trkpt>
      <trkpt lat="45.36121" lon="0.26123">
        <ele>82</ele>
        <time>2025-04-11T11:08:45Z</time>
      </trkpt>
      <trkpt lat="45.36217" lon="0.26132">
        <ele>83</ele>
        <time>2025-04-11T11:09:02Z</time>
      </trkpt>
      <trkpt lat="45.36369" lon="0.26176">
        <ele>93</ele>
        <time>2025-04-11T11:09:30Z</time>
      </trkpt>
      <trkpt lat="45.36391" lon="0.26176">
        <ele>95</ele>
        <time>2025-04-11T11:09:33Z</time>
      </trkpt>
      <trkpt lat="45.36412" lon="0.26157">
        <ele>96</ele>
        <time>2025-04-11T11:09:38Z</time>
      </trkpt>
      <trkpt lat="45.36451" lon="0.26094">
        <ele>92</ele>
        <time>2025-04-11T11:09:48Z</time>
      </trkpt>
      <trkpt lat="45.36492" lon="0.26055">
        <ele>90</ele>
        <time>2025-04-11T11:09:57Z</time>
      </trkpt>
      <trkpt lat="45.36551" lon="0.26024">
        <ele>89</ele>
        <time>2025-04-11T11:10:08Z</time>
      </trkpt>
      <trkpt lat="45.36585" lon="0.26021">
        <ele>89</ele>
        <time>2025-04-11T11:10:14Z</time>
      </trkpt>
      <trkpt lat="45.3664" lon="0.26035">
        <ele>90</ele>
        <time>2025-04-11T11:10:24Z</time>
      </trkpt>
      <trkpt lat="45.36707" lon="0.26059">
        <ele>93</ele>
        <time>2025-04-11T11:10:37Z</time>
      </trkpt>
      <trkpt lat="45.36738" lon="0.26063">
        <ele>94</ele>
        <time>2025-04-11T11:10:42Z</time>
      </trkpt>
      <trkpt lat="45.36896" lon="0.25984">
        <ele>89</ele>
        <time>2025-04-11T11:11:12Z</time>
      </trkpt>
      <trkpt lat="45.36934" lon="0.25977">
        <ele>89</ele>
        <time>2025-04-11T11:11:19Z</time>
      </trkpt>
      <trkpt lat="45.37117" lon="0.25976">
        <ele>87</ele>
        <time>2025-04-11T11:11:51Z</time>
      </trkpt>
      <trkpt lat="45.37132" lon="0.25978">
        <ele>87</ele>
        <time>2025-04-11T11:11:54Z</time>
      </trkpt>
      <trkpt lat="45.37137" lon="0.25992">
        <ele>88</ele>
        <time>2025-04-11T11:11:56Z</time>
      </trkpt>
      <trkpt lat="45.37193" lon="0.26064">
        <ele>98</ele>
        <time>2025-04-11T11:12:09Z</time>
      </trkpt>
      <trkpt lat="45.37211" lon="0.26073">
        <ele>99</ele>
        <time>2025-04-11T11:12:13Z</time>
      </trkpt>
      <trkpt lat="45.37261" lon="0.2607">
        <ele>99</ele>
        <time>2025-04-11T11:12:22Z</time>
      </trkpt>
      <trkpt lat="45.37273" lon="0.2607">
        <ele>99</ele>
        <time>2025-04-11T11:12:24Z</time>
      </trkpt>
      <trkpt lat="45.37291" lon="0.26075">
        <ele>99</ele>
        <time>2025-04-11T11:12:27Z</time>
      </trkpt>
      <trkpt lat="45.37302" lon="0.26096">
        <ele>101</ele>
        <time>2025-04-11T11:12:30Z</time>
      </trkpt>
      <trkpt lat="45.37301" lon="0.26119">
        <ele>104</ele>
        <time>2025-04-11T11:12:33Z</time>
      </trkpt>
      <trkpt lat="45.37293" lon="0.26146">
        <ele>107</ele>
        <time>2025-04-11T11:12:37Z</time>
      </trkpt>
      <trkpt lat="45.37289" lon="0.26169">
        <ele>110</ele>
        <time>2025-04-11T11:12:40Z</time>
      </trkpt>
      <trkpt lat="45.37299" lon="0.26273">
        <ele>117</ele>
        <time>2025-04-11T11:12:53Z</time>
      </trkpt>
      <trkpt lat="45.37306" lon="0.26286">
        <ele>117</ele>
        <time>2025-04-11T11:12:55Z</time>
      </trkpt>
      <trkpt lat="45.37313" lon="0.26293">
        <ele>118</ele>
        <time>2025-04-11T11:12:57Z</time>
      </trkpt>
      <trkpt lat="45.37371" lon="0.26317">
        <ele>120</ele>
        <time>2025-04-11T11:13:07Z</time>
      </trkpt>
      <trkpt lat="45.37501" lon="0.26398">
        <ele>127</ele>
        <time>2025-04-11T11:13:33Z</time>
      </trkpt>
      <trkpt lat="45.37554" lon="0.26454">
        <ele>127</ele>
        <time>2025-04-11T11:13:44Z</time>
      </trkpt>
      <trkpt lat="45.37616" lon="0.26496">
        <ele>129</ele>
        <time>2025-04-11T11:13:57Z</time>
      </trkpt>
      <trkpt lat="45.37651" lon="0.26526">
        <ele>127</ele>
        <time>2025-04-11T11:14:04Z</time>
      </trkpt>
      <trkpt lat="45.37678" lon="0.26553">
        <ele>126</ele>
        <time>2025-04-11T11:14:10Z</time>
      </trkpt>
      <trkpt lat="45.37728" lon="0.2662">
        <ele>126</ele>
        <time>2025-04-11T11:14:22Z</time>
      </trkpt>
      <trkpt lat="45.37757" lon="0.26688">
        <ele>127</ele>
        <time>2025-04-11T11:14:32Z</time>
      </trkpt>
      <trkpt lat="45.37764" lon="0.26702">
        <ele>127</ele>
        <time>2025-04-11T11:14:34Z</time>
      </trkpt>
      <trkpt lat="45.37779" lon="0.26712">
        <ele>126</ele>
        <time>2025-04-11T11:14:37Z</time>
      </trkpt>
      <trkpt lat="45.37872" lon="0.26764">
        <ele>121</ele>
        <time>2025-04-11T11:14:55Z</time>
      </trkpt>
      <trkpt lat="45.37882" lon="0.26764">
        <ele>119</ele>
        <time>2025-04-11T11:14:56Z</time>
      </trkpt>
      <trkpt lat="45.37888" lon="0.26783">
        <ele>119</ele>
        <time>2025-04-11T11:14:59Z</time>
      </trkpt>
      <trkpt lat="45.37889" lon="0.268">
        <ele>120</ele>
        <time>2025-04-11T11:15:01Z</time>
      </trkpt>
      <trkpt lat="45.37879" lon="0.26851">
        <ele>125</ele>
        <time>2025-04-11T11:15:08Z</time>
      </trkpt>
      <trkpt lat="45.37879" lon="0.26872">
        <ele>127</ele>
        <time>2025-04-11T11:15:10Z</time>
      </trkpt>
      <trkpt lat="45.37882" lon="0.26894">
        <ele>127</ele>
        <time>2025-04-11T11:15:13Z</time>
      </trkpt>
      <trkpt lat="45.37889" lon="0.26913">
        <ele>128</ele>
        <time>2025-04-11T11:15:16Z</time>
      </trkpt>
      <trkpt lat="45.37898" lon="0.26928">
        <ele>128</ele>
        <time>2025-04-11T11:15:18Z</time>
      </trkpt>
      <trkpt lat="45.37916" lon="0.26945">
        <ele>127</ele>
        <time>2025-04-11T11:15:22Z</time>
      </trkpt>
      <trkpt lat="45.37934" lon="0.26961">
        <ele>128</ele>
        <time>2025-04-11T11:15:26Z</time>
      </trkpt>
      <trkpt lat="45.37958" lon="0.26979">
        <ele>129</ele>
        <time>2025-04-11T11:15:31Z</time>
      </trkpt>
      <trkpt lat="45.37971" lon="0.26994">
        <ele>130</ele>
        <time>2025-04-11T11:15:34Z</time>
      </trkpt>
      <trkpt lat="45.3799" lon="0.27021">
        <ele>130</ele>
        <time>2025-04-11T11:15:39Z</time>
      </trkpt>
      <trkpt lat="45.38" lon="0.27023">
        <ele>129</ele>
        <time>2025-04-11T11:15:40Z</time>
      </trkpt>
      <trkpt lat="45.38014" lon="0.2703">
        <ele>130</ele>
        <time>2025-04-11T11:15:43Z</time>
      </trkpt>
      <trkpt lat="45.38255" lon="0.27159">
        <ele>149</ele>
        <time>2025-04-11T11:16:29Z</time>
      </trkpt>
      <trkpt lat="45.38303" lon="0.27198">
        <ele>147</ele>
        <time>2025-04-11T11:16:39Z</time>
      </trkpt>
      <trkpt lat="45.38457" lon="0.27202">
        <ele>136</ele>
        <time>2025-04-11T11:17:06Z</time>
      </trkpt>
      <trkpt lat="45.38493" lon="0.2723">
        <ele>136</ele>
        <time>2025-04-11T11:17:13Z</time>
      </trkpt>
      <trkpt lat="45.38561" lon="0.27294">
        <ele>132</ele>
        <time>2025-04-11T11:17:28Z</time>
      </trkpt>
      <trkpt lat="45.38602" lon="0.27338">
        <ele>132</ele>
        <time>2025-04-11T11:17:37Z</time>
      </trkpt>
      <trkpt lat="45.38613" lon="0.27386">
        <ele>130</ele>
        <time>2025-04-11T11:17:43Z</time>
      </trkpt>
      <trkpt lat="45.38619" lon="0.27481">
        <ele>126</ele>
        <time>2025-04-11T11:17:55Z</time>
      </trkpt>
      <trkpt lat="45.38642" lon="0.27532">
        <ele>124</ele>
        <time>2025-04-11T11:18:03Z</time>
      </trkpt>
      <trkpt lat="45.38718" lon="0.27612">
        <ele>123</ele>
        <time>2025-04-11T11:18:20Z</time>
      </trkpt>
      <trkpt lat="45.38806" lon="0.27683">
        <ele>125</ele>
        <time>2025-04-11T11:18:38Z</time>
      </trkpt>
      <trkpt lat="45.38888" lon="0.27766">
        <ele>124</ele>
        <time>2025-04-11T11:18:56Z</time>
      </trkpt>
      <trkpt lat="45.38953" lon="0.27865">
        <ele>129</ele>
        <time>2025-04-11T11:19:12Z</time>
      </trkpt>
      <trkpt lat="45.38973" lon="0.27901">
        <ele>133</ele>
        <time>2025-04-11T11:19:18Z</time>
      </trkpt>
      <trkpt lat="45.38995" lon="0.27947">
        <ele>138</ele>
        <time>2025-04-11T11:19:25Z</time>
      </trkpt>
      <trkpt lat="45.39006" lon="0.27984">
        <ele>140</ele>
        <time>2025-04-11T11:19:30Z</time>
      </trkpt>
      <trkpt lat="45.39011" lon="0.2801">
        <ele>142</ele>
        <time>2025-04-11T11:19:34Z</time>
      </trkpt>
      <trkpt lat="45.39014" lon="0.28033">
        <ele>143</ele>
        <time>2025-04-11T11:19:36Z</time>
      </trkpt>
      <trkpt lat="45.39015" lon="0.28054">
        <ele>144</ele>
        <time>2025-04-11T11:19:39Z</time>
      </trkpt>
      <trkpt lat="45.39012" lon="0.28079">
        <ele>145</ele>
        <time>2025-04-11T11:19:42Z</time>
      </trkpt>
      <trkpt lat="45.39002" lon="0.28121">
        <ele>147</ele>
        <time>2025-04-11T11:19:48Z</time>
      </trkpt>
      <trkpt lat="45.38992" lon="0.28148">
        <ele>147</ele>
        <time>2025-04-11T11:19:52Z</time>
      </trkpt>
      <trkpt lat="45.38977" lon="0.2818">
        <ele>147</ele>
        <time>2025-04-11T11:19:56Z</time>
      </trkpt>
      <trkpt lat="45.38964" lon="0.28218">
        <ele>147</ele>
        <time>2025-04-11T11:20:02Z</time>
      </trkpt>
      <trkpt lat="45.38961" lon="0.28253">
        <ele>149</ele>
        <time>2025-04-11T11:20:06Z</time>
      </trkpt>
      <trkpt lat="45.3896" lon="0.28306">
        <ele>148</ele>
        <time>2025-04-11T11:20:13Z</time>
      </trkpt>
      <trkpt lat="45.38963" lon="0.28354">
        <ele>147</ele>
        <time>2025-04-11T11:20:19Z</time>
      </trkpt>
      <trkpt lat="45.38965" lon="0.28372">
        <ele>146</ele>
        <time>2025-04-11T11:20:21Z</time>
      </trkpt>
      <trkpt lat="45.38969" lon="0.28388">
        <ele>146</ele>
        <time>2025-04-11T11:20:23Z</time>
      </trkpt>
      <trkpt lat="45.38975" lon="0.28407">
        <ele>145</ele>
        <time>2025-04-11T11:20:26Z</time>
      </trkpt>
      <trkpt lat="45.38984" lon="0.28424">
        <ele>145</ele>
        <time>2025-04-11T11:20:28Z</time>
      </trkpt>
      <trkpt lat="45.39065" lon="0.28538">
        <ele>139</ele>
        <time>2025-04-11T11:20:49Z</time>
      </trkpt>
      <trkpt lat="45.39094" lon="0.28552">
        <ele>137</ele>
        <time>2025-04-11T11:20:54Z</time>
      </trkpt>
      <trkpt lat="45.39175" lon="0.28656">
        <ele>135</ele>
        <time>2025-04-11T11:21:14Z</time>
      </trkpt>
      <trkpt lat="45.39208" lon="0.28694">
        <ele>134</ele>
        <time>2025-04-11T11:21:21Z</time>
      </trkpt>
      <trkpt lat="45.39228" lon="0.28713">
        <ele>134</ele>
        <time>2025-04-11T11:21:25Z</time>
      </trkpt>
      <trkpt lat="45.39246" lon="0.28723">
        <ele>133</ele>
        <time>2025-04-11T11:21:29Z</time>
      </trkpt>
      <trkpt lat="45.39262" lon="0.28723">
        <ele>132</ele>
        <time>2025-04-11T11:21:32Z</time>
      </trkpt>
      <trkpt lat="45.39505" lon="0.28595">
        <ele>112</ele>
        <time>2025-04-11T11:22:18Z</time>
      </trkpt>
      <trkpt lat="45.39571" lon="0.28543">
        <ele>108</ele>
        <time>2025-04-11T11:22:31Z</time>
      </trkpt>
      <trkpt lat="45.39668" lon="0.28487">
        <ele>104</ele>
        <time>2025-04-11T11:22:50Z</time>
      </trkpt>
      <trkpt lat="45.39877" lon="0.28503">
        <ele>97</ele>
        <time>2025-04-11T11:23:27Z</time>
      </trkpt>
      <trkpt lat="45.39908" lon="0.28495">
        <ele>95</ele>
        <time>2025-04-11T11:23:33Z</time>
      </trkpt>
      <trkpt lat="45.39981" lon="0.28337">
        <ele>92</ele>
        <time>2025-04-11T11:23:56Z</time>
      </trkpt>
      <trkpt lat="45.40007" lon="0.28312">
        <ele>92</ele>
        <time>2025-04-11T11:24:02Z</time>
      </trkpt>
      <trkpt lat="45.4034" lon="0.28113">
        <ele>84</ele>
        <time>2025-04-11T11:25:06Z</time>
      </trkpt>
      <trkpt lat="45.40416" lon="0.28082">
        <ele>81</ele>
        <time>2025-04-11T11:25:20Z</time>
      </trkpt>
      <trkpt lat="45.40487" lon="0.28072">
        <ele>81</ele>
        <time>2025-04-11T11:25:33Z</time>
      </trkpt>
      <trkpt lat="45.40653" lon="0.28095">
        <ele>83</ele>
        <time>2025-04-11T11:26:03Z</time>
      </trkpt>
      <trkpt lat="45.40734" lon="0.28121">
        <ele>83</ele>
        <time>2025-04-11T11:26:17Z</time>
      </trkpt>
      <trkpt lat="45.40951" lon="0.28188">
        <ele>80</ele>
        <time>2025-04-11T11:26:57Z</time>
      </trkpt>
      <trkpt lat="45.40979" lon="0.28175">
        <ele>81</ele>
        <time>2025-04-11T11:27:02Z</time>
      </trkpt>
      <trkpt lat="45.41091" lon="0.28069">
        <ele>84</ele>
        <time>2025-04-11T11:27:26Z</time>
      </trkpt>
      <trkpt lat="45.41142" lon="0.28028">
        <ele>85</ele>
        <time>2025-04-11T11:27:36Z</time>
      </trkpt>
      <trkpt lat="45.41298" lon="0.27983">
        <ele>78</ele>
        <time>2025-04-11T11:28:05Z</time>
      </trkpt>
      <trkpt lat="45.41419" lon="0.27961">
        <ele>77</ele>
        <time>2025-04-11T11:28:26Z</time>
      </trkpt>
      <trkpt lat="45.41789" lon="0.28039">
        <ele>77</ele>
        <time>2025-04-11T11:29:33Z</time>
      </trkpt>
      <trkpt lat="45.42052" lon="0.28016">
        <ele>80</ele>
        <time>2025-04-11T11:30:20Z</time>
      </trkpt>
      <trkpt lat="45.42215" lon="0.2795">
        <ele>77</ele>
        <time>2025-04-11T11:30:50Z</time>
      </trkpt>
      <trkpt lat="45.42318" lon="0.27891">
        <ele>78</ele>
        <time>2025-04-11T11:31:10Z</time>
      </trkpt>
      <trkpt lat="45.42375" lon="0.27829">
        <ele>78</ele>
        <time>2025-04-11T11:31:23Z</time>
      </trkpt>
      <trkpt lat="45.42433" lon="0.27724">
        <ele>78</ele>
        <time>2025-04-11T11:31:39Z</time>
      </trkpt>
      <trkpt lat="45.42453" lon="0.27705">
        <ele>78</ele>
        <time>2025-04-11T11:31:43Z</time>
      </trkpt>
      <trkpt lat="45.42421" lon="0.28008">
        <ele>83</ele>
        <time>2025-04-11T11:32:22Z</time>
      </trkpt>
      <trkpt lat="45.42388" lon="0.28334">
        <ele>87</ele>
        <time>2025-04-11T11:33:03Z</time>
      </trkpt>
      <trkpt lat="45.42384" lon="0.28363">
        <ele>86</ele>
        <time>2025-04-11T11:33:07Z</time>
      </trkpt>
      <trkpt lat="45.42377" lon="0.28376">
        <ele>86</ele>
        <time>2025-04-11T11:33:09Z</time>
      </trkpt>
      <trkpt lat="45.423" lon="0.2847">
        <ele>87</ele>
        <time>2025-04-11T11:33:27Z</time>
      </trkpt>
      <trkpt lat="45.42277" lon="0.28503">
        <ele>88</ele>
        <time>2025-04-11T11:33:32Z</time>
      </trkpt>
      <trkpt lat="45.42268" lon="0.28519">
        <ele>88</ele>
        <time>2025-04-11T11:33:35Z</time>
      </trkpt>
      <trkpt lat="45.42091" lon="0.29015">
        <ele>103</ele>
        <time>2025-04-11T11:34:45Z</time>
      </trkpt>
      <trkpt lat="45.41848" lon="0.29502">
        <ele>117</ele>
        <time>2025-04-11T11:35:59Z</time>
      </trkpt>
      <trkpt lat="45.41797" lon="0.29607">
        <ele>119</ele>
        <time>2025-04-11T11:36:15Z</time>
      </trkpt>
      <trkpt lat="45.41712" lon="0.29802">
        <ele>117</ele>
        <time>2025-04-11T11:36:44Z</time>
      </trkpt>
      <trkpt lat="45.41706" lon="0.29812">
        <ele>116</ele>
        <time>2025-04-11T11:36:45Z</time>
      </trkpt>
      <trkpt lat="45.4169" lon="0.29831">
        <ele>115</ele>
        <time>2025-04-11T11:36:49Z</time>
      </trkpt>
      <trkpt lat="45.41675" lon="0.29843">
        <ele>114</ele>
        <time>2025-04-11T11:36:52Z</time>
      </trkpt>
      <trkpt lat="45.41655" lon="0.29855">
        <ele>113</ele>
        <time>2025-04-11T11:36:56Z</time>
      </trkpt>
      <trkpt lat="45.41632" lon="0.29865">
        <ele>111</ele>
        <time>2025-04-11T11:37:00Z</time>
      </trkpt>
      <trkpt lat="45.41612" lon="0.29871">
        <ele>111</ele>
        <time>2025-04-11T11:37:04Z</time>
      </trkpt>
      <trkpt lat="45.41553" lon="0.29879">
        <ele>109</ele>
        <time>2025-04-11T11:37:15Z</time>
      </trkpt>
      <trkpt lat="45.41543" lon="0.29883">
        <ele>108</ele>
        <time>2025-04-11T11:37:16Z</time>
      </trkpt>
      <trkpt lat="45.41532" lon="0.29892">
        <ele>107</ele>
        <time>2025-04-11T11:37:19Z</time>
      </trkpt>
      <trkpt lat="45.41522" lon="0.29905">
        <ele>107</ele>
        <time>2025-04-11T11:37:21Z</time>
      </trkpt>
      <trkpt lat="45.41513" lon="0.29923">
        <ele>106</ele>
        <time>2025-04-11T11:37:24Z</time>
      </trkpt>
      <trkpt lat="45.41501" lon="0.29952">
        <ele>107</ele>
        <time>2025-04-11T11:37:28Z</time>
      </trkpt>
      <trkpt lat="45.4149" lon="0.2999">
        <ele>109</ele>
        <time>2025-04-11T11:37:33Z</time>
      </trkpt>
      <trkpt lat="45.41482" lon="0.30038">
        <ele>111</ele>
        <time>2025-04-11T11:37:39Z</time>
      </trkpt>
      <trkpt lat="45.4148" lon="0.30077">
        <ele>114</ele>
        <time>2025-04-11T11:37:44Z</time>
      </trkpt>
      <trkpt lat="45.41481" lon="0.30116">
        <ele>117</ele>
        <time>2025-04-11T11:37:49Z</time>
      </trkpt>
      <trkpt lat="45.41483" lon="0.30138">
        <ele>118</ele>
        <time>2025-04-11T11:37:52Z</time>
      </trkpt>
      <trkpt lat="45.4149" lon="0.30167">
        <ele>120</ele>
        <time>2025-04-11T11:37:56Z</time>
      </trkpt>
      <trkpt lat="45.41499" lon="0.30187">
        <ele>122</ele>
        <time>2025-04-11T11:37:59Z</time>
      </trkpt>
      <trkpt lat="45.41506" lon="0.30196">
        <ele>122</ele>
        <time>2025-04-11T11:38:00Z</time>
      </trkpt>
      <trkpt lat="45.4155" lon="0.30243">
        <ele>124</ele>
        <time>2025-04-11T11:38:10Z</time>
      </trkpt>
      <trkpt lat="45.41559" lon="0.30259">
        <ele>124</ele>
        <time>2025-04-11T11:38:13Z</time>
      </trkpt>
      <trkpt lat="45.41563" lon="0.30279">
        <ele>125</ele>
        <time>2025-04-11T11:38:15Z</time>
      </trkpt>
      <trkpt lat="45.41562" lon="0.303">
        <ele>126</ele>
        <time>2025-04-11T11:38:18Z</time>
      </trkpt>
      <trkpt lat="45.41556" lon="0.30321">
        <ele>127</ele>
        <time>2025-04-11T11:38:21Z</time>
      </trkpt>
      <trkpt lat="45.41546" lon="0.30334">
        <ele>128</ele>
        <time>2025-04-11T11:38:23Z</time>
      </trkpt>
      <trkpt lat="45.41481" lon="0.30362">
        <ele>131</ele>
        <time>2025-04-11T11:38:35Z</time>
      </trkpt>
      <trkpt lat="45.41501" lon="0.3043">
        <ele>127</ele>
        <time>2025-04-11T11:38:44Z</time>
      </trkpt>
      <trkpt lat="45.41514" lon="0.30467">
        <ele>125</ele>
        <time>2025-04-11T11:38:50Z</time>
      </trkpt>
      <trkpt lat="45.41538" lon="0.30518">
        <ele>124</ele>
        <time>2025-04-11T11:38:57Z</time>
      </trkpt>
      <trkpt lat="45.41554" lon="0.3054">
        <ele>125</ele>
        <time>2025-04-11T11:39:01Z</time>
      </trkpt>
      <trkpt lat="45.41564" lon="0.30563">
        <ele>126</ele>
        <time>2025-04-11T11:39:05Z</time>
      </trkpt>
      <trkpt lat="45.4157" lon="0.3058">
        <ele>128</ele>
        <time>2025-04-11T11:39:07Z</time>
      </trkpt>
      <trkpt lat="45.41576" lon="0.3061">
        <ele>129</ele>
        <time>2025-04-11T11:39:11Z</time>
      </trkpt>
      <trkpt lat="45.41579" lon="0.30635">
        <ele>130</ele>
        <time>2025-04-11T11:39:14Z</time>
      </trkpt>
      <trkpt lat="45.4158" lon="0.3071">
        <ele>133</ele>
        <time>2025-04-11T11:39:23Z</time>
      </trkpt>
      <trkpt lat="45.41586" lon="0.30762">
        <ele>134</ele>
        <time>2025-04-11T11:39:30Z</time>
      </trkpt>
      <trkpt lat="45.41612" lon="0.30928">
        <ele>136</ele>
        <time>2025-04-11T11:39:51Z</time>
      </trkpt>
      <trkpt lat="45.41619" lon="0.30957">
        <ele>134</ele>
        <time>2025-04-11T11:39:55Z</time>
      </trkpt>
      <trkpt lat="45.41631" lon="0.30981">
        <ele>133</ele>
        <time>2025-04-11T11:39:59Z</time>
      </trkpt>
      <trkpt lat="45.41642" lon="0.30993">
        <ele>133</ele>
        <time>2025-04-11T11:40:01Z</time>
      </trkpt>
      <trkpt lat="45.41653" lon="0.31001">
        <ele>133</ele>
        <time>2025-04-11T11:40:03Z</time>
      </trkpt>
      <trkpt lat="45.41677" lon="0.31013">
        <ele>131</ele>
        <time>2025-04-11T11:40:08Z</time>
      </trkpt>
      <trkpt lat="45.41806" lon="0.31038">
        <ele>127</ele>
        <time>2025-04-11T11:40:31Z</time>
      </trkpt>
      <trkpt lat="45.4185" lon="0.31053">
        <ele>125</ele>
        <time>2025-04-11T11:40:39Z</time>
      </trkpt>
      <trkpt lat="45.41929" lon="0.31069">
        <ele>125</ele>
        <time>2025-04-11T11:40:53Z</time>
      </trkpt>
      <trkpt lat="45.41975" lon="0.31073">
        <ele>121</ele>
        <time>2025-04-11T11:41:02Z</time>
      </trkpt>
      <trkpt lat="45.42027" lon="0.3107">
        <ele>118</ele>
        <time>2025-04-11T11:41:11Z</time>
      </trkpt>
      <trkpt lat="45.4209" lon="0.31073">
        <ele>114</ele>
        <time>2025-04-11T11:41:22Z</time>
      </trkpt>
      <trkpt lat="45.42101" lon="0.31077">
        <ele>114</ele>
        <time>2025-04-11T11:41:24Z</time>
      </trkpt>
      <trkpt lat="45.4211" lon="0.31083">
        <ele>114</ele>
        <time>2025-04-11T11:41:26Z</time>
      </trkpt>
      <trkpt lat="45.42118" lon="0.31092">
        <ele>114</ele>
        <time>2025-04-11T11:41:28Z</time>
      </trkpt>
      <trkpt lat="45.42125" lon="0.31104">
        <ele>114</ele>
        <time>2025-04-11T11:41:30Z</time>
      </trkpt>
      <trkpt lat="45.42128" lon="0.31117">
        <ele>113</ele>
        <time>2025-04-11T11:41:31Z</time>
      </trkpt>
      <trkpt lat="45.4213" lon="0.31131">
        <ele>112</ele>
        <time>2025-04-11T11:41:33Z</time>
      </trkpt>
      <trkpt lat="45.4213" lon="0.31148">
        <ele>111</ele>
        <time>2025-04-11T11:41:35Z</time>
      </trkpt>
      <trkpt lat="45.42125" lon="0.31203">
        <ele>107</ele>
        <time>2025-04-11T11:41:42Z</time>
      </trkpt>
      <trkpt lat="45.42126" lon="0.31217">
        <ele>106</ele>
        <time>2025-04-11T11:41:44Z</time>
      </trkpt>
      <trkpt lat="45.42131" lon="0.31231">
        <ele>106</ele>
        <time>2025-04-11T11:41:46Z</time>
      </trkpt>
      <trkpt lat="45.42137" lon="0.3124">
        <ele>106</ele>
        <time>2025-04-11T11:41:47Z</time>
      </trkpt>
      <trkpt lat="45.42147" lon="0.31249">
        <ele>107</ele>
        <time>2025-04-11T11:41:49Z</time>
      </trkpt>
      <trkpt lat="45.42195" lon="0.31283">
        <ele>103</ele>
        <time>2025-04-11T11:41:59Z</time>
      </trkpt>
      <trkpt lat="45.42219" lon="0.31304">
        <ele>99</ele>
        <time>2025-04-11T11:42:04Z</time>
      </trkpt>
      <trkpt lat="45.42244" lon="0.31325">
        <ele>97</ele>
        <time>2025-04-11T11:42:09Z</time>
      </trkpt>
      <trkpt lat="45.42254" lon="0.31338">
        <ele>96</ele>
        <time>2025-04-11T11:42:12Z</time>
      </trkpt>
      <trkpt lat="45.42257" lon="0.31356">
        <ele>95</ele>
        <time>2025-04-11T11:42:14Z</time>
      </trkpt>
      <trkpt lat="45.42253" lon="0.31374">
        <ele>94</ele>
        <time>2025-04-11T11:42:16Z</time>
      </trkpt>
      <trkpt lat="45.42242" lon="0.31416">
        <ele>92</ele>
        <time>2025-04-11T11:42:22Z</time>
      </trkpt>
      <trkpt lat="45.42225" lon="0.31516">
        <ele>93</ele>
        <time>2025-04-11T11:42:35Z</time>
      </trkpt>
      <trkpt lat="45.4222" lon="0.31552">
        <ele>93</ele>
        <time>2025-04-11T11:42:39Z</time>
      </trkpt>
      <trkpt lat="45.42218" lon="0.31572">
        <ele>94</ele>
        <time>2025-04-11T11:42:42Z</time>
      </trkpt>
      <trkpt lat="45.42213" lon="0.31595">
        <ele>94</ele>
        <time>2025-04-11T11:42:45Z</time>
      </trkpt>
      <trkpt lat="45.422" lon="0.31636">
        <ele>95</ele>
        <time>2025-04-11T11:42:50Z</time>
      </trkpt>
      <trkpt lat="45.42198" lon="0.31655">
        <ele>95</ele>
        <time>2025-04-11T11:42:53Z</time>
      </trkpt>
      <trkpt lat="45.42198" lon="0.31683">
        <ele>95</ele>
        <time>2025-04-11T11:42:56Z</time>
      </trkpt>
      <trkpt lat="45.42204" lon="0.3174">
        <ele>94</ele>
        <time>2025-04-11T11:43:04Z</time>
      </trkpt>
      <trkpt lat="45.422" lon="0.31838">
        <ele>96</ele>
        <time>2025-04-11T11:43:16Z</time>
      </trkpt>
      <trkpt lat="45.42204" lon="0.31889">
        <ele>96</ele>
        <time>2025-04-11T11:43:22Z</time>
      </trkpt>
      <trkpt lat="45.42209" lon="0.31904">
        <ele>96</ele>
        <time>2025-04-11T11:43:24Z</time>
      </trkpt>
      <trkpt lat="45.42236" lon="0.3195">
        <ele>96</ele>
        <time>2025-04-11T11:43:32Z</time>
      </trkpt>
      <trkpt lat="45.42307" lon="0.32115">
        <ele>95</ele>
        <time>2025-04-11T11:43:56Z</time>
      </trkpt>
      <trkpt lat="45.42357" lon="0.32218">
        <ele>98</ele>
        <time>2025-04-11T11:44:12Z</time>
      </trkpt>
      <trkpt lat="45.42409" lon="0.32348">
        <ele>99</ele>
        <time>2025-04-11T11:44:30Z</time>
      </trkpt>
      <trkpt lat="45.42418" lon="0.32367">
        <ele>100</ele>
        <time>2025-04-11T11:44:33Z</time>
      </trkpt>
      <trkpt lat="45.42456" lon="0.32429">
        <ele>101</ele>
        <time>2025-04-11T11:44:43Z</time>
      </trkpt>
      <trkpt lat="45.42464" lon="0.32448">
        <ele>101</ele>
        <time>2025-04-11T11:44:46Z</time>
      </trkpt>
      <trkpt lat="45.4248" lon="0.32494">
        <ele>101</ele>
        <time>2025-04-11T11:44:53Z</time>
      </trkpt>
      <trkpt lat="45.42493" lon="0.32552">
        <ele>100</ele>
        <time>2025-04-11T11:45:00Z</time>
      </trkpt>
      <trkpt lat="45.42507" lon="0.32597">
        <ele>99</ele>
        <time>2025-04-11T11:45:06Z</time>
      </trkpt>
      <trkpt lat="45.42527" lon="0.32633">
        <ele>98</ele>
        <time>2025-04-11T11:45:12Z</time>
      </trkpt>
      <trkpt lat="45.42617" lon="0.32756">
        <ele>96</ele>
        <time>2025-04-11T11:45:34Z</time>
      </trkpt>
      <trkpt lat="45.42642" lon="0.32802">
        <ele>96</ele>
        <time>2025-04-11T11:45:41Z</time>
      </trkpt>
      <trkpt lat="45.42687" lon="0.32911">
        <ele>93</ele>
        <time>2025-04-11T11:45:57Z</time>
      </trkpt>
      <trkpt lat="45.42714" lon="0.32961">
        <ele>92</ele>
        <time>2025-04-11T11:46:05Z</time>
      </trkpt>
      <trkpt lat="45.42741" lon="0.33004">
        <ele>92</ele>
        <time>2025-04-11T11:46:12Z</time>
      </trkpt>
      <trkpt lat="45.42774" lon="0.33045">
        <ele>95</ele>
        <time>2025-04-11T11:46:20Z</time>
      </trkpt>
      <trkpt lat="45.42781" lon="0.3306">
        <ele>95</ele>
        <time>2025-04-11T11:46:22Z</time>
      </trkpt>
      <trkpt lat="45.42788" lon="0.33084">
        <ele>96</ele>
        <time>2025-04-11T11:46:26Z</time>
      </trkpt>
      <trkpt lat="45.42794" lon="0.33125">
        <ele>96</ele>
        <time>2025-04-11T11:46:31Z</time>
      </trkpt>
      <trkpt lat="45.42797" lon="0.33159">
        <ele>96</ele>
        <time>2025-04-11T11:46:35Z</time>
      </trkpt>
      <trkpt lat="45.42797" lon="0.33193">
        <ele>96</ele>
        <time>2025-04-11T11:46:39Z</time>
      </trkpt>
      <trkpt lat="45.42793" lon="0.3326">
        <ele>97</ele>
        <time>2025-04-11T11:46:48Z</time>
      </trkpt>
      <trkpt lat="45.42793" lon="0.33285">
        <ele>97</ele>
        <time>2025-04-11T11:46:51Z</time>
      </trkpt>
      <trkpt lat="45.42805" lon="0.33393">
        <ele>99</ele>
        <time>2025-04-11T11:47:05Z</time>
      </trkpt>
      <trkpt lat="45.42807" lon="0.33507">
        <ele>101</ele>
        <time>2025-04-11T11:47:19Z</time>
      </trkpt>
      <trkpt lat="45.42808" lon="0.3352">
        <ele>101</ele>
        <time>2025-04-11T11:47:20Z</time>
      </trkpt>
      <trkpt lat="45.42819" lon="0.33585">
        <ele>102</ele>
        <time>2025-04-11T11:47:29Z</time>
      </trkpt>
      <trkpt lat="45.42828" lon="0.33674">
        <ele>104</ele>
        <time>2025-04-11T11:47:40Z</time>
      </trkpt>
      <trkpt lat="45.42886" lon="0.33891">
        <ele>111</ele>
        <time>2025-04-11T11:48:09Z</time>
      </trkpt>
      <trkpt lat="45.4289" lon="0.33914">
        <ele>113</ele>
        <time>2025-04-11T11:48:12Z</time>
      </trkpt>
      <trkpt lat="45.4289" lon="0.33935">
        <ele>114</ele>
        <time>2025-04-11T11:48:15Z</time>
      </trkpt>
      <trkpt lat="45.42889" lon="0.33952">
        <ele>116</ele>
        <time>2025-04-11T11:48:17Z</time>
      </trkpt>
      <trkpt lat="45.42861" lon="0.34048">
        <ele>120</ele>
        <time>2025-04-11T11:48:30Z</time>
      </trkpt>
      <trkpt lat="45.42826" lon="0.34217">
        <ele>114</ele>
        <time>2025-04-11T11:48:52Z</time>
      </trkpt>
      <trkpt lat="45.42824" lon="0.34251">
        <ele>112</ele>
        <time>2025-04-11T11:48:56Z</time>
      </trkpt>
      <trkpt lat="45.42825" lon="0.34268">
        <ele>112</ele>
        <time>2025-04-11T11:48:58Z</time>
      </trkpt>
      <trkpt lat="45.42846" lon="0.34372">
        <ele>111</ele>
        <time>2025-04-11T11:49:12Z</time>
      </trkpt>
      <trkpt lat="45.42856" lon="0.34407">
        <ele>113</ele>
        <time>2025-04-11T11:49:16Z</time>
      </trkpt>
      <trkpt lat="45.42874" lon="0.34432">
        <ele>114</ele>
        <time>2025-04-11T11:49:21Z</time>
      </trkpt>
      <trkpt lat="45.42898" lon="0.34454">
        <ele>114</ele>
        <time>2025-04-11T11:49:26Z</time>
      </trkpt>
      <trkpt lat="45.42913" lon="0.34458">
        <ele>114</ele>
        <time>2025-04-11T11:49:29Z</time>
      </trkpt>
      <trkpt lat="45.42956" lon="0.34448">
        <ele>113</ele>
        <time>2025-04-11T11:49:36Z</time>
      </trkpt>
      <trkpt lat="45.42966" lon="0.3445">
        <ele>113</ele>
        <time>2025-04-11T11:49:38Z</time>
      </trkpt>
      <trkpt lat="45.42982" lon="0.34458">
        <ele>112</ele>
        <time>2025-04-11T11:49:41Z</time>
      </trkpt>
      <trkpt lat="45.42994" lon="0.34467">
        <ele>112</ele>
        <time>2025-04-11T11:49:44Z</time>
      </trkpt>
      <trkpt lat="45.43037" lon="0.34483">
        <ele>111</ele>
        <time>2025-04-11T11:49:51Z</time>
      </trkpt>
      <trkpt lat="45.43063" lon="0.34504">
        <ele>110</ele>
        <time>2025-04-11T11:49:57Z</time>
      </trkpt>
      <trkpt lat="45.43111" lon="0.34523">
        <ele>109</ele>
        <time>2025-04-11T11:50:06Z</time>
      </trkpt>
      <trkpt lat="45.43123" lon="0.34534">
        <ele>108</ele>
        <time>2025-04-11T11:50:08Z</time>
      </trkpt>
      <trkpt lat="45.43148" lon="0.34563">
        <ele>108</ele>
        <time>2025-04-11T11:50:14Z</time>
      </trkpt>
      <trkpt lat="45.43225" lon="0.34657">
        <ele>104</ele>
        <time>2025-04-11T11:50:32Z</time>
      </trkpt>
      <trkpt lat="45.43261" lon="0.34683">
        <ele>102</ele>
        <time>2025-04-11T11:50:39Z</time>
      </trkpt>
      <trkpt lat="45.43306" lon="0.34705">
        <ele>99</ele>
        <time>2025-04-11T11:50:48Z</time>
      </trkpt>
      <trkpt lat="45.43317" lon="0.34714">
        <ele>98</ele>
        <time>2025-04-11T11:50:50Z</time>
      </trkpt>
      <trkpt lat="45.43323" lon="0.34723">
        <ele>97</ele>
        <time>2025-04-11T11:50:51Z</time>
      </trkpt>
      <trkpt lat="45.43327" lon="0.34736">
        <ele>97</ele>
        <time>2025-04-11T11:50:53Z</time>
      </trkpt>
      <trkpt lat="45.43333" lon="0.34775">
        <ele>97</ele>
        <time>2025-04-11T11:50:58Z</time>
      </trkpt>
      <trkpt lat="45.43336" lon="0.34787">
        <ele>97</ele>
        <time>2025-04-11T11:51:00Z</time>
      </trkpt>
      <trkpt lat="45.43362" lon="0.34838">
        <ele>98</ele>
        <time>2025-04-11T11:51:08Z</time>
      </trkpt>
      <trkpt lat="45.43406" lon="0.34946">
        <ele>101</ele>
        <time>2025-04-11T11:51:23Z</time>
      </trkpt>
      <trkpt lat="45.43464" lon="0.35034">
        <ele>98</ele>
        <time>2025-04-11T11:51:38Z</time>
      </trkpt>
      <trkpt lat="45.43471" lon="0.35054">
        <ele>98</ele>
        <time>2025-04-11T11:51:41Z</time>
      </trkpt>
      <trkpt lat="45.4349" lon="0.35125">
        <ele>97</ele>
        <time>2025-04-11T11:51:51Z</time>
      </trkpt>
      <trkpt lat="45.43508" lon="0.35219">
        <ele>97</ele>
        <time>2025-04-11T11:52:03Z</time>
      </trkpt>
      <trkpt lat="45.43513" lon="0.35235">
        <ele>97</ele>
        <time>2025-04-11T11:52:05Z</time>
      </trkpt>
      <trkpt lat="45.43522" lon="0.35254">
        <ele>96</ele>
        <time>2025-04-11T11:52:08Z</time>
      </trkpt>
      <trkpt lat="45.43552" lon="0.35306">
        <ele>96</ele>
        <time>2025-04-11T11:52:16Z</time>
      </trkpt>
      <trkpt lat="45.43531" lon="0.35325">
        <ele>97</ele>
        <time>2025-04-11T11:52:21Z</time>
      </trkpt>
      <trkpt lat="45.4349" lon="0.35356">
        <ele>99</ele>
        <time>2025-04-11T11:52:29Z</time>
      </trkpt>
      <trkpt lat="45.43322" lon="0.35445">
        <ele>106</ele>
        <time>2025-04-11T11:53:01Z</time>
      </trkpt>
      <trkpt lat="45.43304" lon="0.3545">
        <ele>107</ele>
        <time>2025-04-11T11:53:04Z</time>
      </trkpt>
      <trkpt lat="45.43283" lon="0.35452">
        <ele>108</ele>
        <time>2025-04-11T11:53:08Z</time>
      </trkpt>
      <trkpt lat="45.43169" lon="0.35438">
        <ele>111</ele>
        <time>2025-04-11T11:53:28Z</time>
      </trkpt>
      <trkpt lat="45.43146" lon="0.35438">
        <ele>112</ele>
        <time>2025-04-11T11:53:32Z</time>
      </trkpt>
      <trkpt lat="45.43091" lon="0.35445">
        <ele>113</ele>
        <time>2025-04-11T11:53:42Z</time>
      </trkpt>
      <trkpt lat="45.43016" lon="0.35459">
        <ele>116</ele>
        <time>2025-04-11T11:53:56Z</time>
      </trkpt>
      <trkpt lat="45.42983" lon="0.35473">
        <ele>117</ele>
        <time>2025-04-11T11:54:02Z</time>
      </trkpt>
      <trkpt lat="45.42868" lon="0.3553">
        <ele>118</ele>
        <time>2025-04-11T11:54:23Z</time>
      </trkpt>
      <trkpt lat="45.42848" lon="0.35543">
        <ele>118</ele>
        <time>2025-04-11T11:54:27Z</time>
      </trkpt>
      <trkpt lat="45.42833" lon="0.35557">
        <ele>119</ele>
        <time>2025-04-11T11:54:30Z</time>
      </trkpt>
      <trkpt lat="45.42809" lon="0.35589">
        <ele>119</ele>
        <time>2025-04-11T11:54:36Z</time>
      </trkpt>
      <trkpt lat="45.42798" lon="0.3561">
        <ele>119</ele>
        <time>2025-04-11T11:54:40Z</time>
      </trkpt>
      <trkpt lat="45.42686" lon="0.35864">
        <ele>126</ele>
        <time>2025-04-11T11:55:17Z</time>
      </trkpt>
      <trkpt lat="45.42597" lon="0.36027">
        <ele>130</ele>
        <time>2025-04-11T11:55:43Z</time>
      </trkpt>
      <trkpt lat="45.42585" lon="0.36057">
        <ele>131</ele>
        <time>2025-04-11T11:55:47Z</time>
      </trkpt>
      <trkpt lat="45.42572" lon="0.361">
        <ele>131</ele>
        <time>2025-04-11T11:55:53Z</time>
      </trkpt>
      <trkpt lat="45.42547" lon="0.36193">
        <ele>131</ele>
        <time>2025-04-11T11:56:05Z</time>
      </trkpt>
      <trkpt lat="45.42529" lon="0.36253">
        <ele>130</ele>
        <time>2025-04-11T11:56:14Z</time>
      </trkpt>
      <trkpt lat="45.42511" lon="0.36295">
        <ele>128</ele>
        <time>2025-04-11T11:56:20Z</time>
      </trkpt>
      <trkpt lat="45.42495" lon="0.36322">
        <ele>127</ele>
        <time>2025-04-11T11:56:24Z</time>
      </trkpt>
      <trkpt lat="45.42318" lon="0.36554">
        <ele>118</ele>
        <time>2025-04-11T11:57:07Z</time>
      </trkpt>
      <trkpt lat="45.4227" lon="0.3662">
        <ele>115</ele>
        <time>2025-04-11T11:57:19Z</time>
      </trkpt>
      <trkpt lat="45.42259" lon="0.36641">
        <ele>115</ele>
        <time>2025-04-11T11:57:22Z</time>
      </trkpt>
      <trkpt lat="45.42241" lon="0.36689">
        <ele>114</ele>
        <time>2025-04-11T11:57:29Z</time>
      </trkpt>
      <trkpt lat="45.42191" lon="0.36907">
        <ele>107</ele>
        <time>2025-04-11T11:57:57Z</time>
      </trkpt>
      <trkpt lat="45.4218" lon="0.36943">
        <ele>107</ele>
        <time>2025-04-11T11:58:02Z</time>
      </trkpt>
      <trkpt lat="45.42171" lon="0.36961">
        <ele>107</ele>
        <time>2025-04-11T11:58:05Z</time>
      </trkpt>
      <trkpt lat="45.4216" lon="0.36976">
        <ele>107</ele>
        <time>2025-04-11T11:58:08Z</time>
      </trkpt>
      <trkpt lat="45.42146" lon="0.36987">
        <ele>108</ele>
        <time>2025-04-11T11:58:11Z</time>
      </trkpt>
      <trkpt lat="45.42115" lon="0.36999">
        <ele>109</ele>
        <time>2025-04-11T11:58:16Z</time>
      </trkpt>
      <trkpt lat="45.42106" lon="0.37006">
        <ele>110</ele>
        <time>2025-04-11T11:58:18Z</time>
      </trkpt>
      <trkpt lat="45.42095" lon="0.37016">
        <ele>111</ele>
        <time>2025-04-11T11:58:21Z</time>
      </trkpt>
      <trkpt lat="45.42086" lon="0.37028">
        <ele>112</ele>
        <time>2025-04-11T11:58:23Z</time>
      </trkpt>
      <trkpt lat="45.42067" lon="0.37066">
        <ele>113</ele>
        <time>2025-04-11T11:58:29Z</time>
      </trkpt>
      <trkpt lat="45.41984" lon="0.37251">
        <ele>117</ele>
        <time>2025-04-11T11:58:56Z</time>
      </trkpt>
      <trkpt lat="45.4197" lon="0.37293">
        <ele>118</ele>
        <time>2025-04-11T11:59:02Z</time>
      </trkpt>
      <trkpt lat="45.4191" lon="0.37513">
        <ele>126</ele>
        <time>2025-04-11T11:59:31Z</time>
      </trkpt>
      <trkpt lat="45.41902" lon="0.37536">
        <ele>127</ele>
        <time>2025-04-11T11:59:34Z</time>
      </trkpt>
      <trkpt lat="45.41884" lon="0.37571">
        <ele>128</ele>
        <time>2025-04-11T11:59:40Z</time>
      </trkpt>
      <trkpt lat="45.41725" lon="0.37811">
        <ele>120</ele>
        <time>2025-04-11T12:00:21Z</time>
      </trkpt>
      <trkpt lat="45.41708" lon="0.37846">
        <ele>119</ele>
        <time>2025-04-11T12:00:26Z</time>
      </trkpt>
      <trkpt lat="45.41694" lon="0.37885">
        <ele>117</ele>
        <time>2025-04-11T12:00:32Z</time>
      </trkpt>
      <trkpt lat="45.41655" lon="0.38007">
        <ele>114</ele>
        <time>2025-04-11T12:00:49Z</time>
      </trkpt>
      <trkpt lat="45.41649" lon="0.38033">
        <ele>113</ele>
        <time>2025-04-11T12:00:52Z</time>
      </trkpt>
      <trkpt lat="45.41646" lon="0.3806">
        <ele>112</ele>
        <time>2025-04-11T12:00:55Z</time>
      </trkpt>
      <trkpt lat="45.41631" lon="0.38224">
        <ele>110</ele>
        <time>2025-04-11T12:01:16Z</time>
      </trkpt>
      <trkpt lat="45.41629" lon="0.38238">
        <ele>110</ele>
        <time>2025-04-11T12:01:18Z</time>
      </trkpt>
      <trkpt lat="45.41624" lon="0.38248">
        <ele>110</ele>
        <time>2025-04-11T12:01:19Z</time>
      </trkpt>
      <trkpt lat="45.41613" lon="0.38256">
        <ele>110</ele>
        <time>2025-04-11T12:01:22Z</time>
      </trkpt>
      <trkpt lat="45.4157" lon="0.38278">
        <ele>111</ele>
        <time>2025-04-11T12:01:30Z</time>
      </trkpt>
      <trkpt lat="45.41509" lon="0.38321">
        <ele>114</ele>
        <time>2025-04-11T12:01:42Z</time>
      </trkpt>
      <trkpt lat="45.41397" lon="0.38378">
        <ele>124</ele>
        <time>2025-04-11T12:02:03Z</time>
      </trkpt>
      <trkpt lat="45.41381" lon="0.38393">
        <ele>126</ele>
        <time>2025-04-11T12:02:06Z</time>
      </trkpt>
      <trkpt lat="45.41377" lon="0.38404">
        <ele>127</ele>
        <time>2025-04-11T12:02:08Z</time>
      </trkpt>
      <trkpt lat="45.41374" lon="0.38421">
        <ele>127</ele>
        <time>2025-04-11T12:02:10Z</time>
      </trkpt>
      <trkpt lat="45.41365" lon="0.38425">
        <ele>127</ele>
        <time>2025-04-11T12:02:12Z</time>
      </trkpt>
      <trkpt lat="45.41339" lon="0.38407">
        <ele>129</ele>
        <time>2025-04-11T12:02:17Z</time>
      </trkpt>
      <trkpt lat="45.41312" lon="0.38385">
        <ele>128</ele>
        <time>2025-04-11T12:02:23Z</time>
      </trkpt>
      <trkpt lat="45.41283" lon="0.38357">
        <ele>127</ele>
        <time>2025-04-11T12:02:29Z</time>
      </trkpt>
      <trkpt lat="45.4124" lon="0.38295">
        <ele>125</ele>
        <time>2025-04-11T12:02:40Z</time>
      </trkpt>
      <trkpt lat="45.41144" lon="0.38148">
        <ele>120</ele>
        <time>2025-04-11T12:03:05Z</time>
      </trkpt>
      <trkpt lat="45.41036" lon="0.37985">
        <ele>115</ele>
        <time>2025-04-11T12:03:33Z</time>
      </trkpt>
      <trkpt lat="45.4087" lon="0.37738">
        <ele>112</ele>
        <time>2025-04-11T12:04:15Z</time>
      </trkpt>
      <trkpt lat="45.40777" lon="0.37593">
        <ele>105</ele>
        <time>2025-04-11T12:04:40Z</time>
      </trkpt>
      <trkpt lat="45.40758" lon="0.37555">
        <ele>105</ele>
        <time>2025-04-11T12:04:46Z</time>
      </trkpt>
      <trkpt lat="45.40744" lon="0.37518">
        <ele>104</ele>
        <time>2025-04-11T12:04:51Z</time>
      </trkpt>
      <trkpt lat="45.40733" lon="0.37482">
        <ele>103</ele>
        <time>2025-04-11T12:04:56Z</time>
      </trkpt>
      <trkpt lat="45.40711" lon="0.37385">
        <ele>103</ele>
        <time>2025-04-11T12:05:09Z</time>
      </trkpt>
      <trkpt lat="45.40678" lon="0.37146">
        <ele>103</ele>
        <time>2025-04-11T12:05:39Z</time>
      </trkpt>
      <trkpt lat="45.40661" lon="0.37036">
        <ele>102</ele>
        <time>2025-04-11T12:05:53Z</time>
      </trkpt>
      <trkpt lat="45.40655" lon="0.36985">
        <ele>102</ele>
        <time>2025-04-11T12:06:00Z</time>
      </trkpt>
      <trkpt lat="45.40648" lon="0.36843">
        <ele>100</ele>
        <time>2025-04-11T12:06:17Z</time>
      </trkpt>
      <trkpt lat="45.4064" lon="0.36606">
        <ele>100</ele>
        <time>2025-04-11T12:06:47Z</time>
      </trkpt>
      <trkpt lat="45.40636" lon="0.36547">
        <ele>99</ele>
        <time>2025-04-11T12:06:54Z</time>
      </trkpt>
      <trkpt lat="45.40608" lon="0.36372">
        <ele>100</ele>
        <time>2025-04-11T12:07:17Z</time>
      </trkpt>
      <trkpt lat="45.40532" lon="0.35925">
        <ele>97</ele>
        <time>2025-04-11T12:08:14Z</time>
      </trkpt>
      <trkpt lat="45.40432" lon="0.35315">
        <ele>93</ele>
        <time>2025-04-11T12:09:33Z</time>
      </trkpt>
      <trkpt lat="45.40422" lon="0.35278">
        <ele>93</ele>
        <time>2025-04-11T12:09:38Z</time>
      </trkpt>
      <trkpt lat="45.40402" lon="0.35223">
        <ele>93</ele>
        <time>2025-04-11T12:09:45Z</time>
      </trkpt>
      <trkpt lat="45.40312" lon="0.35018">
        <ele>94</ele>
        <time>2025-04-11T12:10:16Z</time>
      </trkpt>
      <trkpt lat="45.4031" lon="0.35015">
        <ele>94</ele>
        <time>2025-04-11T12:10:16Z</time>
      </trkpt>
      <trkpt lat="45.40221" lon="0.34813">
        <ele>94</ele>
        <time>2025-04-11T12:10:46Z</time>
      </trkpt>
      <trkpt lat="45.40189" lon="0.34717">
        <ele>95</ele>
        <time>2025-04-11T12:10:59Z</time>
      </trkpt>
      <trkpt lat="45.40166" lon="0.34747">
        <ele>95</ele>
        <time>2025-04-11T12:11:05Z</time>
      </trkpt>
      <trkpt lat="45.40055" lon="0.34911">
        <ele>94</ele>
        <time>2025-04-11T12:11:33Z</time>
      </trkpt>
      <trkpt lat="45.40026" lon="0.34948">
        <ele>94</ele>
        <time>2025-04-11T12:11:40Z</time>
      </trkpt>
      <trkpt lat="45.39997" lon="0.34962">
        <ele>94</ele>
        <time>2025-04-11T12:11:45Z</time>
      </trkpt>
      <trkpt lat="45.39989" lon="0.34967">
        <ele>94</ele>
        <time>2025-04-11T12:11:47Z</time>
      </trkpt>
      <trkpt lat="45.39878" lon="0.35036">
        <ele>97</ele>
        <time>2025-04-11T12:12:09Z</time>
      </trkpt>
      <trkpt lat="45.39788" lon="0.35073">
        <ele>98</ele>
        <time>2025-04-11T12:12:25Z</time>
      </trkpt>
      <trkpt lat="45.39664" lon="0.35133">
        <ele>102</ele>
        <time>2025-04-11T12:12:49Z</time>
      </trkpt>
      <trkpt lat="45.39633" lon="0.35145">
        <ele>103</ele>
        <time>2025-04-11T12:12:54Z</time>
      </trkpt>
      <trkpt lat="45.39591" lon="0.35156">
        <ele>105</ele>
        <time>2025-04-11T12:13:02Z</time>
      </trkpt>
      <trkpt lat="45.39547" lon="0.35164">
        <ele>108</ele>
        <time>2025-04-11T12:13:10Z</time>
      </trkpt>
      <trkpt lat="45.39492" lon="0.35167">
        <ele>112</ele>
        <time>2025-04-11T12:13:20Z</time>
      </trkpt>
      <trkpt lat="45.3947" lon="0.35173">
        <ele>114</ele>
        <time>2025-04-11T12:13:24Z</time>
      </trkpt>
      <trkpt lat="45.39451" lon="0.35186">
        <ele>115</ele>
        <time>2025-04-11T12:13:27Z</time>
      </trkpt>
      <trkpt lat="45.394" lon="0.35238">
        <ele>119</ele>
        <time>2025-04-11T12:13:38Z</time>
      </trkpt>
      <trkpt lat="45.39379" lon="0.35299">
        <ele>120</ele>
        <time>2025-04-11T12:13:47Z</time>
      </trkpt>
      <trkpt lat="45.39379" lon="0.35313">
        <ele>119</ele>
        <time>2025-04-11T12:13:49Z</time>
      </trkpt>
      <trkpt lat="45.39384" lon="0.3535">
        <ele>117</ele>
        <time>2025-04-11T12:13:53Z</time>
      </trkpt>
      <trkpt lat="45.39403" lon="0.35462">
        <ele>110</ele>
        <time>2025-04-11T12:14:08Z</time>
      </trkpt>
      <trkpt lat="45.39406" lon="0.35495">
        <ele>109</ele>
        <time>2025-04-11T12:14:12Z</time>
      </trkpt>
      <trkpt lat="45.39407" lon="0.35533">
        <ele>107</ele>
        <time>2025-04-11T12:14:17Z</time>
      </trkpt>
      <trkpt lat="45.39405" lon="0.35576">
        <ele>106</ele>
        <time>2025-04-11T12:14:22Z</time>
      </trkpt>
      <trkpt lat="45.39396" lon="0.35619">
        <ele>105</ele>
        <time>2025-04-11T12:14:28Z</time>
      </trkpt>
      <trkpt lat="45.39385" lon="0.35663">
        <ele>104</ele>
        <time>2025-04-11T12:14:34Z</time>
      </trkpt>
      <trkpt lat="45.39378" lon="0.35703">
        <ele>103</ele>
        <time>2025-04-11T12:14:39Z</time>
      </trkpt>
      <trkpt lat="45.39371" lon="0.35782">
        <ele>102</ele>
        <time>2025-04-11T12:14:49Z</time>
      </trkpt>
      <trkpt lat="45.3937" lon="0.35822">
        <ele>102</ele>
        <time>2025-04-11T12:14:54Z</time>
      </trkpt>
      <trkpt lat="45.39375" lon="0.35879">
        <ele>103</ele>
        <time>2025-04-11T12:15:01Z</time>
      </trkpt>
      <trkpt lat="45.39395" lon="0.35961">
        <ele>102</ele>
        <time>2025-04-11T12:15:12Z</time>
      </trkpt>
      <trkpt lat="45.39419" lon="0.36045">
        <ele>103</ele>
        <time>2025-04-11T12:15:23Z</time>
      </trkpt>
      <trkpt lat="45.39562" lon="0.36472">
        <ele>111</ele>
        <time>2025-04-11T12:16:22Z</time>
      </trkpt>
      <trkpt lat="45.39572" lon="0.36495">
        <ele>113</ele>
        <time>2025-04-11T12:16:25Z</time>
      </trkpt>
      <trkpt lat="45.39588" lon="0.36522">
        <ele>115</ele>
        <time>2025-04-11T12:16:30Z</time>
      </trkpt>
      <trkpt lat="45.39611" lon="0.36545">
        <ele>117</ele>
        <time>2025-04-11T12:16:35Z</time>
      </trkpt>
      <trkpt lat="45.39641" lon="0.36568">
        <ele>121</ele>
        <time>2025-04-11T12:16:41Z</time>
      </trkpt>
      <trkpt lat="45.39654" lon="0.36581">
        <ele>122</ele>
        <time>2025-04-11T12:16:44Z</time>
      </trkpt>
      <trkpt lat="45.39661" lon="0.36594">
        <ele>123</ele>
        <time>2025-04-11T12:16:46Z</time>
      </trkpt>
      <trkpt lat="45.39666" lon="0.36613">
        <ele>123</ele>
        <time>2025-04-11T12:16:48Z</time>
      </trkpt>
      <trkpt lat="45.39667" lon="0.36632">
        <ele>123</ele>
        <time>2025-04-11T12:16:51Z</time>
      </trkpt>
      <trkpt lat="45.39639" lon="0.36856">
        <ele>129</ele>
        <time>2025-04-11T12:17:19Z</time>
      </trkpt>
      <trkpt lat="45.39627" lon="0.37018">
        <ele>125</ele>
        <time>2025-04-11T12:17:40Z</time>
      </trkpt>
      <trkpt lat="45.39619" lon="0.37061">
        <ele>125</ele>
        <time>2025-04-11T12:17:45Z</time>
      </trkpt>
      <trkpt lat="45.39567" lon="0.37238">
        <ele>122</ele>
        <time>2025-04-11T12:18:09Z</time>
      </trkpt>
      <trkpt lat="45.39545" lon="0.37322">
        <ele>121</ele>
        <time>2025-04-11T12:18:20Z</time>
      </trkpt>
      <trkpt lat="45.39515" lon="0.37416">
        <ele>121</ele>
        <time>2025-04-11T12:18:33Z</time>
      </trkpt>
      <trkpt lat="45.39481" lon="0.3741">
        <ele>121</ele>
        <time>2025-04-11T12:18:39Z</time>
      </trkpt>
      <trkpt lat="45.39472" lon="0.3741">
        <ele>121</ele>
        <time>2025-04-11T12:18:41Z</time>
      </trkpt>
      <trkpt lat="45.39446" lon="0.37402">
        <ele>120</ele>
        <time>2025-04-11T12:18:46Z</time>
      </trkpt>
      <trkpt lat="45.39424" lon="0.37399">
        <ele>120</ele>
        <time>2025-04-11T12:18:50Z</time>
      </trkpt>
      <trkpt lat="45.39299" lon="0.37396">
        <ele>118</ele>
        <time>2025-04-11T12:19:12Z</time>
      </trkpt>
      <trkpt lat="45.39099" lon="0.37399">
        <ele>122</ele>
        <time>2025-04-11T12:19:47Z</time>
      </trkpt>
      <trkpt lat="45.39068" lon="0.37394">
        <ele>123</ele>
        <time>2025-04-11T12:19:53Z</time>
      </trkpt>
      <trkpt lat="45.38841" lon="0.37334">
        <ele>130</ele>
        <time>2025-04-11T12:20:34Z</time>
      </trkpt>
      <trkpt lat="45.38733" lon="0.37291">
        <ele>135</ele>
        <time>2025-04-11T12:20:54Z</time>
      </trkpt>
      <trkpt lat="45.386" lon="0.3723">
        <ele>137</ele>
        <time>2025-04-11T12:21:19Z</time>
      </trkpt>
      <trkpt lat="45.38567" lon="0.37224">
        <ele>137</ele>
        <time>2025-04-11T12:21:25Z</time>
      </trkpt>
      <trkpt lat="45.38533" lon="0.37237">
        <ele>136</ele>
        <time>2025-04-11T12:21:31Z</time>
      </trkpt>
      <trkpt lat="45.38305" lon="0.37307">
        <ele>123</ele>
        <time>2025-04-11T12:22:12Z</time>
      </trkpt>
      <trkpt lat="45.38274" lon="0.37309">
        <ele>122</ele>
        <time>2025-04-11T12:22:18Z</time>
      </trkpt>
      <trkpt lat="45.38243" lon="0.37287">
        <ele>121</ele>
        <time>2025-04-11T12:22:24Z</time>
      </trkpt>
      <trkpt lat="45.37974" lon="0.37001">
        <ele>111</ele>
        <time>2025-04-11T12:23:24Z</time>
      </trkpt>
      <trkpt lat="45.37803" lon="0.36862">
        <ele>115</ele>
        <time>2025-04-11T12:23:59Z</time>
      </trkpt>
      <trkpt lat="45.37766" lon="0.36831">
        <ele>114</ele>
        <time>2025-04-11T12:24:07Z</time>
      </trkpt>
      <trkpt lat="45.37721" lon="0.36787">
        <ele>113</ele>
        <time>2025-04-11T12:24:16Z</time>
      </trkpt>
      <trkpt lat="45.37694" lon="0.3675">
        <ele>111</ele>
        <time>2025-04-11T12:24:23Z</time>
      </trkpt>
      <trkpt lat="45.37653" lon="0.36679">
        <ele>108</ele>
        <time>2025-04-11T12:24:34Z</time>
      </trkpt>
      <trkpt lat="45.37645" lon="0.36662">
        <ele>108</ele>
        <time>2025-04-11T12:24:37Z</time>
      </trkpt>
      <trkpt lat="45.37614" lon="0.36572">
        <ele>105</ele>
        <time>2025-04-11T12:24:50Z</time>
      </trkpt>
      <trkpt lat="45.37605" lon="0.36552">
        <ele>104</ele>
        <time>2025-04-11T12:24:52Z</time>
      </trkpt>
      <trkpt lat="45.37582" lon="0.36511">
        <ele>103</ele>
        <time>2025-04-11T12:24:59Z</time>
      </trkpt>
      <trkpt lat="45.37538" lon="0.36442">
        <ele>103</ele>
        <time>2025-04-11T12:25:11Z</time>
      </trkpt>
      <trkpt lat="45.37518" lon="0.36415">
        <ele>102</ele>
        <time>2025-04-11T12:25:16Z</time>
      </trkpt>
      <trkpt lat="45.37493" lon="0.36386">
        <ele>102</ele>
        <time>2025-04-11T12:25:21Z</time>
      </trkpt>
      <trkpt lat="45.37428" lon="0.36321">
        <ele>104</ele>
        <time>2025-04-11T12:25:35Z</time>
      </trkpt>
      <trkpt lat="45.3726" lon="0.36182">
        <ele>103</ele>
        <time>2025-04-11T12:26:10Z</time>
      </trkpt>
      <trkpt lat="45.3716" lon="0.36091">
        <ele>100</ele>
        <time>2025-04-11T12:26:31Z</time>
      </trkpt>
      <trkpt lat="45.36967" lon="0.35931">
        <ele>102</ele>
        <time>2025-04-11T12:27:11Z</time>
      </trkpt>
      <trkpt lat="45.36945" lon="0.35906">
        <ele>101</ele>
        <time>2025-04-11T12:27:16Z</time>
      </trkpt>
      <trkpt lat="45.36932" lon="0.3588">
        <ele>101</ele>
        <time>2025-04-11T12:27:20Z</time>
      </trkpt>
      <trkpt lat="45.36924" lon="0.35852">
        <ele>100</ele>
        <time>2025-04-11T12:27:24Z</time>
      </trkpt>
      <trkpt lat="45.36923" lon="0.35818">
        <ele>100</ele>
        <time>2025-04-11T12:27:28Z</time>
      </trkpt>
      <trkpt lat="45.36934" lon="0.35482">
        <ele>107</ele>
        <time>2025-04-11T12:28:10Z</time>
      </trkpt>
      <trkpt lat="45.36934" lon="0.35418">
        <ele>109</ele>
        <time>2025-04-11T12:28:18Z</time>
      </trkpt>
      <trkpt lat="45.36926" lon="0.35351">
        <ele>112</ele>
        <time>2025-04-11T12:28:26Z</time>
      </trkpt>
      <trkpt lat="45.36908" lon="0.35244">
        <ele>121</ele>
        <time>2025-04-11T12:28:40Z</time>
      </trkpt>
      <trkpt lat="45.36888" lon="0.35156">
        <ele>132</ele>
        <time>2025-04-11T12:28:52Z</time>
      </trkpt>
      <trkpt lat="45.36874" lon="0.35068">
        <ele>138</ele>
        <time>2025-04-11T12:29:03Z</time>
      </trkpt>
      <trkpt lat="45.36818" lon="0.35029">
        <ele>137</ele>
        <time>2025-04-11T12:29:14Z</time>
      </trkpt>
      <trkpt lat="45.36778" lon="0.34991">
        <ele>135</ele>
        <time>2025-04-11T12:29:23Z</time>
      </trkpt>
      <trkpt lat="45.36732" lon="0.34912">
        <ele>130</ele>
        <time>2025-04-11T12:29:36Z</time>
      </trkpt>
      <trkpt lat="45.36693" lon="0.34855">
        <ele>126</ele>
        <time>2025-04-11T12:29:45Z</time>
      </trkpt>
      <trkpt lat="45.36664" lon="0.34819">
        <ele>123</ele>
        <time>2025-04-11T12:29:52Z</time>
      </trkpt>
      <trkpt lat="45.3665" lon="0.34807">
        <ele>122</ele>
        <time>2025-04-11T12:29:55Z</time>
      </trkpt>
      <trkpt lat="45.36608" lon="0.34786">
        <ele>119</ele>
        <time>2025-04-11T12:30:03Z</time>
      </trkpt>
      <trkpt lat="45.3636" lon="0.34671">
        <ele>103</ele>
        <time>2025-04-11T12:30:50Z</time>
      </trkpt>
      <trkpt lat="45.36084" lon="0.34339">
        <ele>118</ele>
        <time>2025-04-11T12:31:54Z</time>
      </trkpt>
      <trkpt lat="45.36042" lon="0.34279">
        <ele>120</ele>
        <time>2025-04-11T12:32:04Z</time>
      </trkpt>
      <trkpt lat="45.3587" lon="0.34002">
        <ele>101</ele>
        <time>2025-04-11T12:32:51Z</time>
      </trkpt>
      <trkpt lat="45.35835" lon="0.33953">
        <ele>102</ele>
        <time>2025-04-11T12:32:59Z</time>
      </trkpt>
      <trkpt lat="45.35829" lon="0.33949">
        <ele>102</ele>
        <time>2025-04-11T12:33:01Z</time>
      </trkpt>
      <trkpt lat="45.35813" lon="0.33941">
        <ele>103</ele>
        <time>2025-04-11T12:33:04Z</time>
      </trkpt>
      <trkpt lat="45.35793" lon="0.33937">
        <ele>104</ele>
        <time>2025-04-11T12:33:07Z</time>
      </trkpt>
      <trkpt lat="45.35784" lon="0.33938">
        <ele>105</ele>
        <time>2025-04-11T12:33:09Z</time>
      </trkpt>
      <trkpt lat="45.3578" lon="0.33895">
        <ele>106</ele>
        <time>2025-04-11T12:33:14Z</time>
      </trkpt>
      <trkpt lat="45.35782" lon="0.33878">
        <ele>106</ele>
        <time>2025-04-11T12:33:16Z</time>
      </trkpt>
      <trkpt lat="45.35774" lon="0.33875">
        <ele>106</ele>
        <time>2025-04-11T12:33:18Z</time>
      </trkpt>
      <trkpt lat="45.35749" lon="0.3384">
        <ele>108</ele>
        <time>2025-04-11T12:33:24Z</time>
      </trkpt>
      <trkpt lat="45.35734" lon="0.33831">
        <ele>108</ele>
        <time>2025-04-11T12:33:27Z</time>
      </trkpt>
      <trkpt lat="45.35711" lon="0.33824">
        <ele>109</ele>
        <time>2025-04-11T12:33:31Z</time>
      </trkpt>
      <trkpt lat="45.35661" lon="0.33821">
        <ele>110</ele>
        <time>2025-04-11T12:33:40Z</time>
      </trkpt>
      <trkpt lat="45.3565" lon="0.33817">
        <ele>109</ele>
        <time>2025-04-11T12:33:42Z</time>
      </trkpt>
      <trkpt lat="45.35578" lon="0.33778">
        <ele>108</ele>
        <time>2025-04-11T12:33:56Z</time>
      </trkpt>
      <trkpt lat="45.35521" lon="0.33739">
        <ele>109</ele>
        <time>2025-04-11T12:34:07Z</time>
      </trkpt>
      <trkpt lat="45.35487" lon="0.33713">
        <ele>109</ele>
        <time>2025-04-11T12:34:14Z</time>
      </trkpt>
      <trkpt lat="45.35415" lon="0.33639">
        <ele>110</ele>
        <time>2025-04-11T12:34:30Z</time>
      </trkpt>
      <trkpt lat="45.35386" lon="0.33587">
        <ele>112</ele>
        <time>2025-04-11T12:34:38Z</time>
      </trkpt>
      <trkpt lat="45.35378" lon="0.33528">
        <ele>113</ele>
        <time>2025-04-11T12:34:46Z</time>
      </trkpt>
      <trkpt lat="45.35362" lon="0.33483">
        <ele>113</ele>
        <time>2025-04-11T12:34:52Z</time>
      </trkpt>
      <trkpt lat="45.35302" lon="0.33436">
        <ele>114</ele>
        <time>2025-04-11T12:35:04Z</time>
      </trkpt>
      <trkpt lat="45.35232" lon="0.33368">
        <ele>118</ele>
        <time>2025-04-11T12:35:19Z</time>
      </trkpt>
      <trkpt lat="45.35164" lon="0.33333">
        <ele>117</ele>
        <time>2025-04-11T12:35:32Z</time>
      </trkpt>
      <trkpt lat="45.35121" lon="0.33173">
        <ele>123</ele>
        <time>2025-04-11T12:35:53Z</time>
      </trkpt>
      <trkpt lat="45.35049" lon="0.32967">
        <ele>138</ele>
        <time>2025-04-11T12:36:22Z</time>
      </trkpt>
      <trkpt lat="45.34989" lon="0.32761">
        <ele>151</ele>
        <time>2025-04-11T12:36:50Z</time>
      </trkpt>
      <trkpt lat="45.34955" lon="0.32686">
        <ele>154</ele>
        <time>2025-04-11T12:37:01Z</time>
      </trkpt>
      <trkpt lat="45.3494" lon="0.32615">
        <ele>158</ele>
        <time>2025-04-11T12:37:10Z</time>
      </trkpt>
      <trkpt lat="45.34889" lon="0.3246">
        <ele>160</ele>
        <time>2025-04-11T12:37:32Z</time>
      </trkpt>
      <trkpt lat="45.34842" lon="0.3242">
        <ele>159</ele>
        <time>2025-04-11T12:37:42Z</time>
      </trkpt>
      <trkpt lat="45.34798" lon="0.32354">
        <ele>159</ele>
        <time>2025-04-11T12:37:53Z</time>
      </trkpt>
      <trkpt lat="45.34783" lon="0.32323">
        <ele>160</ele>
        <time>2025-04-11T12:37:58Z</time>
      </trkpt>
      <trkpt lat="45.3475" lon="0.32255">
        <ele>165</ele>
        <time>2025-04-11T12:38:08Z</time>
      </trkpt>
      <trkpt lat="45.34717" lon="0.32221">
        <ele>168</ele>
        <time>2025-04-11T12:38:15Z</time>
      </trkpt>
      <trkpt lat="45.34686" lon="0.32216">
        <ele>170</ele>
        <time>2025-04-11T12:38:21Z</time>
      </trkpt>
      <trkpt lat="45.34646" lon="0.32226">
        <ele>171</ele>
        <time>2025-04-11T12:38:28Z</time>
      </trkpt>
      <trkpt lat="45.34536" lon="0.32225">
        <ele>171</ele>
        <time>2025-04-11T12:38:48Z</time>
      </trkpt>
      <trkpt lat="45.34362" lon="0.32213">
        <ele>180</ele>
        <time>2025-04-11T12:39:19Z</time>
      </trkpt>
      <trkpt lat="45.34349" lon="0.32208">
        <ele>180</ele>
        <time>2025-04-11T12:39:21Z</time>
      </trkpt>
      <trkpt lat="45.34299" lon="0.32096">
        <ele>175</ele>
        <time>2025-04-11T12:39:38Z</time>
      </trkpt>
      <trkpt lat="45.34267" lon="0.32159">
        <ele>175</ele>
        <time>2025-04-11T12:39:47Z</time>
      </trkpt>
      <trkpt lat="45.34265" lon="0.32152">
        <ele>175</ele>
        <time>2025-04-11T12:39:48Z</time>
      </trkpt>
      <trkpt lat="45.34264" lon="0.32098">
        <ele>174</ele>
        <time>2025-04-11T12:39:55Z</time>
      </trkpt>
      <trkpt lat="45.34262" lon="0.32079">
        <ele>174</ele>
        <time>2025-04-11T12:39:57Z</time>
      </trkpt>
      <trkpt lat="45.34258" lon="0.32057">
        <ele>174</ele>
        <time>2025-04-11T12:40:00Z</time>
      </trkpt>
      <trkpt lat="45.34251" lon="0.32035">
        <ele>174</ele>
        <time>2025-04-11T12:40:03Z</time>
      </trkpt>
      <trkpt lat="45.34222" lon="0.31972">
        <ele>170</ele>
        <time>2025-04-11T12:40:13Z</time>
      </trkpt>
      <trkpt lat="45.34208" lon="0.31949">
        <ele>169</ele>
        <time>2025-04-11T12:40:17Z</time>
      </trkpt>
      <trkpt lat="45.34194" lon="0.31932">
        <ele>168</ele>
        <time>2025-04-11T12:40:20Z</time>
      </trkpt>
      <trkpt lat="45.3418" lon="0.3192">
        <ele>168</ele>
        <time>2025-04-11T12:40:23Z</time>
      </trkpt>
      <trkpt lat="45.34158" lon="0.31905">
        <ele>167</ele>
        <time>2025-04-11T12:40:27Z</time>
      </trkpt>
      <trkpt lat="45.34038" lon="0.31852">
        <ele>163</ele>
        <time>2025-04-11T12:40:49Z</time>
      </trkpt>
      <trkpt lat="45.33916" lon="0.31802">
        <ele>163</ele>
        <time>2025-04-11T12:41:12Z</time>
      </trkpt>
      <trkpt lat="45.33762" lon="0.31731">
        <ele>160</ele>
        <time>2025-04-11T12:41:41Z</time>
      </trkpt>
      <trkpt lat="45.33495" lon="0.31565">
        <ele>153</ele>
        <time>2025-04-11T12:42:33Z</time>
      </trkpt>
      <trkpt lat="45.33474" lon="0.31556">
        <ele>153</ele>
        <time>2025-04-11T12:42:37Z</time>
      </trkpt>
      <trkpt lat="45.33455" lon="0.31552">
        <ele>152</ele>
        <time>2025-04-11T12:42:40Z</time>
      </trkpt>
      <trkpt lat="45.33276" lon="0.31553">
        <ele>145</ele>
        <time>2025-04-11T12:43:12Z</time>
      </trkpt>
      <trkpt lat="45.33199" lon="0.31547">
        <ele>143</ele>
        <time>2025-04-11T12:43:26Z</time>
      </trkpt>
      <trkpt lat="45.3314" lon="0.31529">
        <ele>143</ele>
        <time>2025-04-11T12:43:36Z</time>
      </trkpt>
      <trkpt lat="45.33096" lon="0.31507">
        <ele>144</ele>
        <time>2025-04-11T12:43:45Z</time>
      </trkpt>
      <trkpt lat="45.33067" lon="0.31483">
        <ele>143</ele>
        <time>2025-04-11T12:43:51Z</time>
      </trkpt>
      <trkpt lat="45.32875" lon="0.31284">
        <ele>135</ele>
        <time>2025-04-11T12:44:33Z</time>
      </trkpt>
      <trkpt lat="45.32855" lon="0.31271">
        <ele>134</ele>
        <time>2025-04-11T12:44:37Z</time>
      </trkpt>
      <trkpt lat="45.32817" lon="0.31263">
        <ele>133</ele>
        <time>2025-04-11T12:44:44Z</time>
      </trkpt>
      <trkpt lat="45.32802" lon="0.31254">
        <ele>133</ele>
        <time>2025-04-11T12:44:46Z</time>
      </trkpt>
      <trkpt lat="45.32717" lon="0.31177">
        <ele>135</ele>
        <time>2025-04-11T12:45:04Z</time>
      </trkpt>
      <trkpt lat="45.32705" lon="0.31171">
        <ele>135</ele>
        <time>2025-04-11T12:45:07Z</time>
      </trkpt>
      <trkpt lat="45.32657" lon="0.31158">
        <ele>136</ele>
        <time>2025-04-11T12:45:15Z</time>
      </trkpt>
      <trkpt lat="45.3264" lon="0.31151">
        <ele>137</ele>
        <time>2025-04-11T12:45:19Z</time>
      </trkpt>
      <trkpt lat="45.32619" lon="0.31138">
        <ele>137</ele>
        <time>2025-04-11T12:45:23Z</time>
      </trkpt>
      <trkpt lat="45.32552" lon="0.31074">
        <ele>141</ele>
        <time>2025-04-11T12:45:37Z</time>
      </trkpt>
      <trkpt lat="45.32489" lon="0.31005">
        <ele>144</ele>
        <time>2025-04-11T12:45:51Z</time>
      </trkpt>
      <trkpt lat="45.32441" lon="0.30936">
        <ele>144</ele>
        <time>2025-04-11T12:46:03Z</time>
      </trkpt>
      <trkpt lat="45.32358" lon="0.30808">
        <ele>143</ele>
        <time>2025-04-11T12:46:25Z</time>
      </trkpt>
      <trkpt lat="45.32291" lon="0.30713">
        <ele>140</ele>
        <time>2025-04-11T12:46:42Z</time>
      </trkpt>
      <trkpt lat="45.32238" lon="0.30654">
        <ele>141</ele>
        <time>2025-04-11T12:46:54Z</time>
      </trkpt>
      <trkpt lat="45.32213" lon="0.30631">
        <ele>140</ele>
        <time>2025-04-11T12:46:59Z</time>
      </trkpt>
      <trkpt lat="45.32189" lon="0.30615">
        <ele>140</ele>
        <time>2025-04-11T12:47:04Z</time>
      </trkpt>
      <trkpt lat="45.32161" lon="0.30602">
        <ele>140</ele>
        <time>2025-04-11T12:47:09Z</time>
      </trkpt>
      <trkpt lat="45.32065" lon="0.30564">
        <ele>136</ele>
        <time>2025-04-11T12:47:27Z</time>
      </trkpt>
      <trkpt lat="45.32057" lon="0.30568">
        <ele>137</ele>
        <time>2025-04-11T12:47:28Z</time>
      </trkpt>
      <trkpt lat="45.32049" lon="0.30566">
        <ele>136</ele>
        <time>2025-04-11T12:47:30Z</time>
      </trkpt>
      <trkpt lat="45.3195" lon="0.30531">
        <ele>137</ele>
        <time>2025-04-11T12:47:48Z</time>
      </trkpt>
      <trkpt lat="45.31943" lon="0.30531">
        <ele>137</ele>
        <time>2025-04-11T12:47:49Z</time>
      </trkpt>
      <trkpt lat="45.31931" lon="0.30537">
        <ele>137</ele>
        <time>2025-04-11T12:47:51Z</time>
      </trkpt>
      <trkpt lat="45.31897" lon="0.30577">
        <ele>135</ele>
        <time>2025-04-11T12:47:59Z</time>
      </trkpt>
      <trkpt lat="45.31884" lon="0.30582">
        <ele>134</ele>
        <time>2025-04-11T12:48:02Z</time>
      </trkpt>
      <trkpt lat="45.31842" lon="0.30577">
        <ele>132</ele>
        <time>2025-04-11T12:48:09Z</time>
      </trkpt>
      <trkpt lat="45.31804" lon="0.30586">
        <ele>127</ele>
        <time>2025-04-11T12:48:16Z</time>
      </trkpt>
      <trkpt lat="45.31781" lon="0.30601">
        <ele>123</ele>
        <time>2025-04-11T12:48:21Z</time>
      </trkpt>
      <trkpt lat="45.31728" lon="0.30653">
        <ele>114</ele>
        <time>2025-04-11T12:48:32Z</time>
      </trkpt>
      <trkpt lat="45.31684" lon="0.30712">
        <ele>110</ele>
        <time>2025-04-11T12:48:43Z</time>
      </trkpt>
      <trkpt lat="45.31669" lon="0.30727">
        <ele>109</ele>
        <time>2025-04-11T12:48:46Z</time>
      </trkpt>
      <trkpt lat="45.3165" lon="0.30732">
        <ele>108</ele>
        <time>2025-04-11T12:48:49Z</time>
      </trkpt>
      <trkpt lat="45.31629" lon="0.30745">
        <ele>106</ele>
        <time>2025-04-11T12:48:54Z</time>
      </trkpt>
      <trkpt lat="45.31504" lon="0.30803">
        <ele>98</ele>
        <time>2025-04-11T12:49:17Z</time>
      </trkpt>
      <trkpt lat="45.31419" lon="0.30826">
        <ele>98</ele>
        <time>2025-04-11T12:49:32Z</time>
      </trkpt>
      <trkpt lat="45.31411" lon="0.30833">
        <ele>98</ele>
        <time>2025-04-11T12:49:34Z</time>
      </trkpt>
      <trkpt lat="45.31404" lon="0.3085">
        <ele>97</ele>
        <time>2025-04-11T12:49:36Z</time>
      </trkpt>
      <trkpt lat="45.31406" lon="0.30874">
        <ele>97</ele>
        <time>2025-04-11T12:49:39Z</time>
      </trkpt>
      <trkpt lat="45.31425" lon="0.30961">
        <ele>95</ele>
        <time>2025-04-11T12:49:51Z</time>
      </trkpt>
      <trkpt lat="45.31423" lon="0.30983">
        <ele>94</ele>
        <time>2025-04-11T12:49:54Z</time>
      </trkpt>
      <trkpt lat="45.31417" lon="0.31001">
        <ele>93</ele>
        <time>2025-04-11T12:49:56Z</time>
      </trkpt>
      <trkpt lat="45.31404" lon="0.31019">
        <ele>91</ele>
        <time>2025-04-11T12:49:59Z</time>
      </trkpt>
      <trkpt lat="45.31363" lon="0.3106">
        <ele>88</ele>
        <time>2025-04-11T12:50:08Z</time>
      </trkpt>
      <trkpt lat="45.31339" lon="0.3109">
        <ele>87</ele>
        <time>2025-04-11T12:50:14Z</time>
      </trkpt>
      <trkpt lat="45.31322" lon="0.31112">
        <ele>85</ele>
        <time>2025-04-11T12:50:18Z</time>
      </trkpt>
      <trkpt lat="45.31203" lon="0.31287">
        <ele>73</ele>
        <time>2025-04-11T12:50:49Z</time>
      </trkpt>
      <trkpt lat="45.31174" lon="0.31318">
        <ele>71</ele>
        <time>2025-04-11T12:50:55Z</time>
      </trkpt>
      <trkpt lat="45.31149" lon="0.31335">
        <ele>70</ele>
        <time>2025-04-11T12:51:00Z</time>
      </trkpt>
      <trkpt lat="45.31103" lon="0.31366">
        <ele>68</ele>
        <time>2025-04-11T12:51:09Z</time>
      </trkpt>
      <trkpt lat="45.31093" lon="0.31374">
        <ele>68</ele>
        <time>2025-04-11T12:51:11Z</time>
      </trkpt>
      <trkpt lat="45.30974" lon="0.31462">
        <ele>67</ele>
        <time>2025-04-11T12:51:35Z</time>
      </trkpt>
      <trkpt lat="45.30948" lon="0.31476">
        <ele>68</ele>
        <time>2025-04-11T12:51:40Z</time>
      </trkpt>
      <trkpt lat="45.3093" lon="0.31478">
        <ele>69</ele>
        <time>2025-04-11T12:51:43Z</time>
      </trkpt>
      <trkpt lat="45.30911" lon="0.31471">
        <ele>70</ele>
        <time>2025-04-11T12:51:47Z</time>
      </trkpt>
      <trkpt lat="45.30884" lon="0.31449">
        <ele>70</ele>
        <time>2025-04-11T12:51:52Z</time>
      </trkpt>
      <trkpt lat="45.30852" lon="0.31419">
        <ele>69</ele>
        <time>2025-04-11T12:51:59Z</time>
      </trkpt>
      <trkpt lat="45.30831" lon="0.31407">
        <ele>69</ele>
        <time>2025-04-11T12:52:03Z</time>
      </trkpt>
      <trkpt lat="45.30801" lon="0.31399">
        <ele>70</ele>
        <time>2025-04-11T12:52:08Z</time>
      </trkpt>
      <trkpt lat="45.30598" lon="0.31393">
        <ele>79</ele>
        <time>2025-04-11T12:52:44Z</time>
      </trkpt>
      <trkpt lat="45.30443" lon="0.31379">
        <ele>88</ele>
        <time>2025-04-11T12:53:12Z</time>
      </trkpt>
      <trkpt lat="45.30429" lon="0.3137">
        <ele>90</ele>
        <time>2025-04-11T12:53:15Z</time>
      </trkpt>
      <trkpt lat="45.30418" lon="0.31356">
        <ele>91</ele>
        <time>2025-04-11T12:53:17Z</time>
      </trkpt>
      <trkpt lat="45.30412" lon="0.31333">
        <ele>93</ele>
        <time>2025-04-11T12:53:21Z</time>
      </trkpt>
      <trkpt lat="45.30407" lon="0.3128">
        <ele>94</ele>
        <time>2025-04-11T12:53:27Z</time>
      </trkpt>
      <trkpt lat="45.30398" lon="0.31252">
        <ele>95</ele>
        <time>2025-04-11T12:53:31Z</time>
      </trkpt>
      <trkpt lat="45.30386" lon="0.31237">
        <ele>96</ele>
        <time>2025-04-11T12:53:34Z</time>
      </trkpt>
      <trkpt lat="45.30368" lon="0.31224">
        <ele>97</ele>
        <time>2025-04-11T12:53:38Z</time>
      </trkpt>
      <trkpt lat="45.30347" lon="0.31218">
        <ele>99</ele>
        <time>2025-04-11T12:53:41Z</time>
      </trkpt>
      <trkpt lat="45.30322" lon="0.31217">
        <ele>101</ele>
        <time>2025-04-11T12:53:46Z</time>
      </trkpt>
      <trkpt lat="45.30301" lon="0.31223">
        <ele>102</ele>
        <time>2025-04-11T12:53:50Z</time>
      </trkpt>
      <trkpt lat="45.3028" lon="0.31237">
        <ele>103</ele>
        <time>2025-04-11T12:53:54Z</time>
      </trkpt>
      <trkpt lat="45.30237" lon="0.31288">
        <ele>108</ele>
        <time>2025-04-11T12:54:04Z</time>
      </trkpt>
      <trkpt lat="45.30213" lon="0.31314">
        <ele>110</ele>
        <time>2025-04-11T12:54:09Z</time>
      </trkpt>
      <trkpt lat="45.3006" lon="0.31427">
        <ele>124</ele>
        <time>2025-04-11T12:54:40Z</time>
      </trkpt>
      <trkpt lat="45.30012" lon="0.31447">
        <ele>125</ele>
        <time>2025-04-11T12:54:49Z</time>
      </trkpt>
      <trkpt lat="45.2997" lon="0.31459">
        <ele>124</ele>
        <time>2025-04-11T12:54:56Z</time>
      </trkpt>
      <trkpt lat="45.29941" lon="0.31464">
        <ele>124</ele>
        <time>2025-04-11T12:55:01Z</time>
      </trkpt>
      <trkpt lat="45.29851" lon="0.31461">
        <ele>126</ele>
        <time>2025-04-11T12:55:17Z</time>
      </trkpt>
      <trkpt lat="45.29819" lon="0.31455">
        <ele>127</ele>
        <time>2025-04-11T12:55:23Z</time>
      </trkpt>
      <trkpt lat="45.29636" lon="0.31396">
        <ele>134</ele>
        <time>2025-04-11T12:55:57Z</time>
      </trkpt>
      <trkpt lat="45.29608" lon="0.31383">
        <ele>135</ele>
        <time>2025-04-11T12:56:02Z</time>
      </trkpt>
      <trkpt lat="45.29464" lon="0.31287">
        <ele>124</ele>
        <time>2025-04-11T12:56:30Z</time>
      </trkpt>
      <trkpt lat="45.29441" lon="0.31269">
        <ele>122</ele>
        <time>2025-04-11T12:56:35Z</time>
      </trkpt>
      <trkpt lat="45.29411" lon="0.31233">
        <ele>120</ele>
        <time>2025-04-11T12:56:42Z</time>
      </trkpt>
      <trkpt lat="45.29393" lon="0.31202">
        <ele>119</ele>
        <time>2025-04-11T12:56:47Z</time>
      </trkpt>
      <trkpt lat="45.29373" lon="0.31146">
        <ele>117</ele>
        <time>2025-04-11T12:56:55Z</time>
      </trkpt>
      <trkpt lat="45.29356" lon="0.31084">
        <ele>113</ele>
        <time>2025-04-11T12:57:03Z</time>
      </trkpt>
      <trkpt lat="45.29352" lon="0.31047">
        <ele>112</ele>
        <time>2025-04-11T12:57:08Z</time>
      </trkpt>
      <trkpt lat="45.29353" lon="0.30952">
        <ele>111</ele>
        <time>2025-04-11T12:57:20Z</time>
      </trkpt>
      <trkpt lat="45.29351" lon="0.30913">
        <ele>110</ele>
        <time>2025-04-11T12:57:24Z</time>
      </trkpt>
      <trkpt lat="45.29336" lon="0.3084">
        <ele>107</ele>
        <time>2025-04-11T12:57:34Z</time>
      </trkpt>
      <trkpt lat="45.29327" lon="0.30826">
        <ele>106</ele>
        <time>2025-04-11T12:57:36Z</time>
      </trkpt>
      <trkpt lat="45.29316" lon="0.30822">
        <ele>105</ele>
        <time>2025-04-11T12:57:38Z</time>
      </trkpt>
      <trkpt lat="45.29269" lon="0.30844">
        <ele>103</ele>
        <time>2025-04-11T12:57:47Z</time>
      </trkpt>
      <trkpt lat="45.29254" lon="0.30847">
        <ele>102</ele>
        <time>2025-04-11T12:57:50Z</time>
      </trkpt>
      <trkpt lat="45.29239" lon="0.30843">
        <ele>103</ele>
        <time>2025-04-11T12:57:53Z</time>
      </trkpt>
      <trkpt lat="45.29216" lon="0.30822">
        <ele>104</ele>
        <time>2025-04-11T12:57:57Z</time>
      </trkpt>
      <trkpt lat="45.29202" lon="0.30819">
        <ele>105</ele>
        <time>2025-04-11T12:58:00Z</time>
      </trkpt>
      <trkpt lat="45.29187" lon="0.30824">
        <ele>107</ele>
        <time>2025-04-11T12:58:03Z</time>
      </trkpt>
      <trkpt lat="45.2914" lon="0.30856">
        <ele>111</ele>
        <time>2025-04-11T12:58:12Z</time>
      </trkpt>
      <trkpt lat="45.29095" lon="0.30881">
        <ele>111</ele>
        <time>2025-04-11T12:58:21Z</time>
      </trkpt>
      <trkpt lat="45.29043" lon="0.30903">
        <ele>111</ele>
        <time>2025-04-11T12:58:30Z</time>
      </trkpt>
      <trkpt lat="45.28991" lon="0.30921">
        <ele>112</ele>
        <time>2025-04-11T12:58:40Z</time>
      </trkpt>
      <trkpt lat="45.28941" lon="0.30931">
        <ele>113</ele>
        <time>2025-04-11T12:58:49Z</time>
      </trkpt>
      <trkpt lat="45.28908" lon="0.30934">
        <ele>115</ele>
        <time>2025-04-11T12:58:55Z</time>
      </trkpt>
      <trkpt lat="45.28893" lon="0.30931">
        <ele>115</ele>
        <time>2025-04-11T12:58:57Z</time>
      </trkpt>
      <trkpt lat="45.2888" lon="0.30918">
        <ele>115</ele>
        <time>2025-04-11T12:59:00Z</time>
      </trkpt>
      <trkpt lat="45.28874" lon="0.309">
        <ele>115</ele>
        <time>2025-04-11T12:59:03Z</time>
      </trkpt>
      <trkpt lat="45.28841" lon="0.30906">
        <ele>117</ele>
        <time>2025-04-11T12:59:09Z</time>
      </trkpt>
      <trkpt lat="45.2881" lon="0.30893">
        <ele>118</ele>
        <time>2025-04-11T12:59:14Z</time>
      </trkpt>
      <trkpt lat="45.28804" lon="0.30896">
        <ele>118</ele>
        <time>2025-04-11T12:59:15Z</time>
      </trkpt>
      <trkpt lat="45.2879" lon="0.30908">
        <ele>119</ele>
        <time>2025-04-11T12:59:18Z</time>
      </trkpt>
      <trkpt lat="45.28783" lon="0.3091">
        <ele>119</ele>
        <time>2025-04-11T12:59:20Z</time>
      </trkpt>
      <trkpt lat="45.28764" lon="0.30907">
        <ele>120</ele>
        <time>2025-04-11T12:59:23Z</time>
      </trkpt>
      <trkpt lat="45.28733" lon="0.3088">
        <ele>122</ele>
        <time>2025-04-11T12:59:30Z</time>
      </trkpt>
      <trkpt lat="45.28683" lon="0.30857">
        <ele>125</ele>
        <time>2025-04-11T12:59:39Z</time>
      </trkpt>
      <trkpt lat="45.28628" lon="0.30855">
        <ele>126</ele>
        <time>2025-04-11T12:59:49Z</time>
      </trkpt>
      <trkpt lat="45.28607" lon="0.30862">
        <ele>127</ele>
        <time>2025-04-11T12:59:53Z</time>
      </trkpt>
      <trkpt lat="45.28591" lon="0.30876">
        <ele>127</ele>
        <time>2025-04-11T12:59:56Z</time>
      </trkpt>
      <trkpt lat="45.28583" lon="0.30887">
        <ele>128</ele>
        <time>2025-04-11T12:59:58Z</time>
      </trkpt>
      <trkpt lat="45.28576" lon="0.30902">
        <ele>128</ele>
        <time>2025-04-11T13:00:00Z</time>
      </trkpt>
      <trkpt lat="45.28571" lon="0.30918">
        <ele>128</ele>
        <time>2025-04-11T13:00:02Z</time>
      </trkpt>
      <trkpt lat="45.28566" lon="0.30968">
        <ele>128</ele>
        <time>2025-04-11T13:00:09Z</time>
      </trkpt>
      <trkpt lat="45.28561" lon="0.30988">
        <ele>128</ele>
        <time>2025-04-11T13:00:11Z</time>
      </trkpt>
      <trkpt lat="45.28556" lon="0.31002">
        <ele>127</ele>
        <time>2025-04-11T13:00:13Z</time>
      </trkpt>
      <trkpt lat="45.28538" lon="0.3103">
        <ele>127</ele>
        <time>2025-04-11T13:00:18Z</time>
      </trkpt>
      <trkpt lat="45.28516" lon="0.31051">
        <ele>127</ele>
        <time>2025-04-11T13:00:23Z</time>
      </trkpt>
      <trkpt lat="45.2849" lon="0.31064">
        <ele>126</ele>
        <time>2025-04-11T13:00:28Z</time>
      </trkpt>
      <trkpt lat="45.28466" lon="0.31065">
        <ele>125</ele>
        <time>2025-04-11T13:00:32Z</time>
      </trkpt>
      <trkpt lat="45.28451" lon="0.31061">
        <ele>124</ele>
        <time>2025-04-11T13:00:35Z</time>
      </trkpt>
      <trkpt lat="45.28439" lon="0.31054">
        <ele>123</ele>
        <time>2025-04-11T13:00:37Z</time>
      </trkpt>
      <trkpt lat="45.28385" lon="0.31008">
        <ele>119</ele>
        <time>2025-04-11T13:00:48Z</time>
      </trkpt>
      <trkpt lat="45.28371" lon="0.30999">
        <ele>119</ele>
        <time>2025-04-11T13:00:51Z</time>
      </trkpt>
      <trkpt lat="45.28359" lon="0.30994">
        <ele>118</ele>
        <time>2025-04-11T13:00:53Z</time>
      </trkpt>
      <trkpt lat="45.28346" lon="0.30993">
        <ele>117</ele>
        <time>2025-04-11T13:00:55Z</time>
      </trkpt>
      <trkpt lat="45.28335" lon="0.30996">
        <ele>116</ele>
        <time>2025-04-11T13:00:57Z</time>
      </trkpt>
      <trkpt lat="45.28323" lon="0.31001">
        <ele>116</ele>
        <time>2025-04-11T13:01:00Z</time>
      </trkpt>
      <trkpt lat="45.28303" lon="0.31022">
        <ele>115</ele>
        <time>2025-04-11T13:01:04Z</time>
      </trkpt>
      <trkpt lat="45.2829" lon="0.31041">
        <ele>113</ele>
        <time>2025-04-11T13:01:07Z</time>
      </trkpt>
      <trkpt lat="45.2822" lon="0.31162">
        <ele>103</ele>
        <time>2025-04-11T13:01:27Z</time>
      </trkpt>
      <trkpt lat="45.28212" lon="0.31172">
        <ele>102</ele>
        <time>2025-04-11T13:01:29Z</time>
      </trkpt>
      <trkpt lat="45.28204" lon="0.31178">
        <ele>101</ele>
        <time>2025-04-11T13:01:30Z</time>
      </trkpt>
      <trkpt lat="45.28191" lon="0.31183">
        <ele>100</ele>
        <time>2025-04-11T13:01:33Z</time>
      </trkpt>
      <trkpt lat="45.28175" lon="0.31182">
        <ele>100</ele>
        <time>2025-04-11T13:01:36Z</time>
      </trkpt>
      <trkpt lat="45.28157" lon="0.31176">
        <ele>99</ele>
        <time>2025-04-11T13:01:39Z</time>
      </trkpt>
      <trkpt lat="45.28121" lon="0.31156">
        <ele>97</ele>
        <time>2025-04-11T13:01:46Z</time>
      </trkpt>
      <trkpt lat="45.2808" lon="0.31127">
        <ele>95</ele>
        <time>2025-04-11T13:01:54Z</time>
      </trkpt>
      <trkpt lat="45.28054" lon="0.31114">
        <ele>95</ele>
        <time>2025-04-11T13:01:59Z</time>
      </trkpt>
      <trkpt lat="45.28037" lon="0.31109">
        <ele>94</ele>
        <time>2025-04-11T13:02:02Z</time>
      </trkpt>
      <trkpt lat="45.28013" lon="0.31108">
        <ele>93</ele>
        <time>2025-04-11T13:02:06Z</time>
      </trkpt>
      <trkpt lat="45.2799" lon="0.3111">
        <ele>92</ele>
        <time>2025-04-11T13:02:10Z</time>
      </trkpt>
      <trkpt lat="45.27952" lon="0.31118">
        <ele>91</ele>
        <time>2025-04-11T13:02:17Z</time>
      </trkpt>
      <trkpt lat="45.27922" lon="0.31129">
        <ele>90</ele>
        <time>2025-04-11T13:02:23Z</time>
      </trkpt>
      <trkpt lat="45.2789" lon="0.31148">
        <ele>89</ele>
        <time>2025-04-11T13:02:29Z</time>
      </trkpt>
      <trkpt lat="45.27862" lon="0.31169">
        <ele>89</ele>
        <time>2025-04-11T13:02:35Z</time>
      </trkpt>
      <trkpt lat="45.27847" lon="0.31184">
        <ele>88</ele>
        <time>2025-04-11T13:02:38Z</time>
      </trkpt>
      <trkpt lat="45.27757" lon="0.31314">
        <ele>87</ele>
        <time>2025-04-11T13:03:01Z</time>
      </trkpt>
      <trkpt lat="45.27724" lon="0.31347">
        <ele>86</ele>
        <time>2025-04-11T13:03:08Z</time>
      </trkpt>
      <trkpt lat="45.27592" lon="0.31468">
        <ele>81</ele>
        <time>2025-04-11T13:03:36Z</time>
      </trkpt>
      <trkpt lat="45.27562" lon="0.31493">
        <ele>79</ele>
        <time>2025-04-11T13:03:42Z</time>
      </trkpt>
      <trkpt lat="45.27414" lon="0.31577">
        <ele>75</ele>
        <time>2025-04-11T13:04:10Z</time>
      </trkpt>
      <trkpt lat="45.27393" lon="0.31591">
        <ele>75</ele>
        <time>2025-04-11T13:04:14Z</time>
      </trkpt>
      <trkpt lat="45.26878" lon="0.31879">
        <ele>68</ele>
        <time>2025-04-11T13:05:53Z</time>
      </trkpt>
      <trkpt lat="45.26824" lon="0.31912">
        <ele>67</ele>
        <time>2025-04-11T13:06:03Z</time>
      </trkpt>
      <trkpt lat="45.26791" lon="0.31938">
        <ele>65</ele>
        <time>2025-04-11T13:06:10Z</time>
      </trkpt>
      <trkpt lat="45.26756" lon="0.31981">
        <ele>64</ele>
        <time>2025-04-11T13:06:18Z</time>
      </trkpt>
      <trkpt lat="45.26751" lon="0.3199">
        <ele>64</ele>
        <time>2025-04-11T13:06:20Z</time>
      </trkpt>
      <trkpt lat="45.26734" lon="0.32019">
        <ele>64</ele>
        <time>2025-04-11T13:06:24Z</time>
      </trkpt>
      <trkpt lat="45.26708" lon="0.32076">
        <ele>66</ele>
        <time>2025-04-11T13:06:33Z</time>
      </trkpt>
      <trkpt lat="45.26691" lon="0.32136">
        <ele>69</ele>
        <time>2025-04-11T13:06:41Z</time>
      </trkpt>
      <trkpt lat="45.26682" lon="0.3219">
        <ele>72</ele>
        <time>2025-04-11T13:06:48Z</time>
      </trkpt>
      <trkpt lat="45.26679" lon="0.32253">
        <ele>75</ele>
        <time>2025-04-11T13:06:56Z</time>
      </trkpt>
      <trkpt lat="45.26682" lon="0.32313">
        <ele>77</ele>
        <time>2025-04-11T13:07:03Z</time>
      </trkpt>
      <trkpt lat="45.26699" lon="0.32504">
        <ele>80</ele>
        <time>2025-04-11T13:07:28Z</time>
      </trkpt>
      <trkpt lat="45.26702" lon="0.32547">
        <ele>81</ele>
        <time>2025-04-11T13:07:33Z</time>
      </trkpt>
      <trkpt lat="45.26706" lon="0.32679">
        <ele>80</ele>
        <time>2025-04-11T13:07:50Z</time>
      </trkpt>
      <trkpt lat="45.26706" lon="0.32758">
        <ele>80</ele>
        <time>2025-04-11T13:07:59Z</time>
      </trkpt>
      <trkpt lat="45.26697" lon="0.32984">
        <ele>78</ele>
        <time>2025-04-11T13:08:28Z</time>
      </trkpt>
      <trkpt lat="45.26692" lon="0.33051">
        <ele>77</ele>
        <time>2025-04-11T13:08:36Z</time>
      </trkpt>
      <trkpt lat="45.26645" lon="0.33357">
        <ele>70</ele>
        <time>2025-04-11T13:09:15Z</time>
      </trkpt>
      <trkpt lat="45.26636" lon="0.3339">
        <ele>70</ele>
        <time>2025-04-11T13:09:20Z</time>
      </trkpt>
      <trkpt lat="45.26623" lon="0.33424">
        <ele>70</ele>
        <time>2025-04-11T13:09:25Z</time>
      </trkpt>
      <trkpt lat="45.26592" lon="0.33497">
        <ele>69</ele>
        <time>2025-04-11T13:09:35Z</time>
      </trkpt>
      <trkpt lat="45.26581" lon="0.33518">
        <ele>69</ele>
        <time>2025-04-11T13:09:39Z</time>
      </trkpt>
      <trkpt lat="45.26571" lon="0.33533">
        <ele>69</ele>
        <time>2025-04-11T13:09:41Z</time>
      </trkpt>
      <trkpt lat="45.26554" lon="0.33551">
        <ele>68</ele>
        <time>2025-04-11T13:09:45Z</time>
      </trkpt>
      <trkpt lat="45.26501" lon="0.33593">
        <ele>66</ele>
        <time>2025-04-11T13:09:56Z</time>
      </trkpt>
      <trkpt lat="45.26394" lon="0.33672">
        <ele>62</ele>
        <time>2025-04-11T13:10:17Z</time>
      </trkpt>
      <trkpt lat="45.26363" lon="0.337">
        <ele>61</ele>
        <time>2025-04-11T13:10:24Z</time>
      </trkpt>
      <trkpt lat="45.26323" lon="0.3374">
        <ele>61</ele>
        <time>2025-04-11T13:10:32Z</time>
      </trkpt>
      <trkpt lat="45.26292" lon="0.33777">
        <ele>62</ele>
        <time>2025-04-11T13:10:40Z</time>
      </trkpt>
      <trkpt lat="45.26263" lon="0.33818">
        <ele>61</ele>
        <time>2025-04-11T13:10:47Z</time>
      </trkpt>
      <trkpt lat="45.26233" lon="0.33868">
        <ele>61</ele>
        <time>2025-04-11T13:10:55Z</time>
      </trkpt>
      <trkpt lat="45.26214" lon="0.33904">
        <ele>60</ele>
        <time>2025-04-11T13:11:01Z</time>
      </trkpt>
      <trkpt lat="45.26197" lon="0.33942">
        <ele>59</ele>
        <time>2025-04-11T13:11:06Z</time>
      </trkpt>
      <trkpt lat="45.26172" lon="0.34007">
        <ele>58</ele>
        <time>2025-04-11T13:11:16Z</time>
      </trkpt>
      <trkpt lat="45.26153" lon="0.34067">
        <ele>59</ele>
        <time>2025-04-11T13:11:24Z</time>
      </trkpt>
      <trkpt lat="45.26135" lon="0.34146">
        <ele>60</ele>
        <time>2025-04-11T13:11:34Z</time>
      </trkpt>
      <trkpt lat="45.26126" lon="0.34204">
        <ele>61</ele>
        <time>2025-04-11T13:11:42Z</time>
      </trkpt>
      <trkpt lat="45.26124" lon="0.34246">
        <ele>61</ele>
        <time>2025-04-11T13:11:47Z</time>
      </trkpt>
      <trkpt lat="45.2612" lon="0.34278">
        <ele>61</ele>
        <time>2025-04-11T13:11:51Z</time>
      </trkpt>
      <trkpt lat="45.26115" lon="0.34285">
        <ele>61</ele>
        <time>2025-04-11T13:11:52Z</time>
      </trkpt>
      <trkpt lat="45.26101" lon="0.34287">
        <ele>61</ele>
        <time>2025-04-11T13:11:55Z</time>
      </trkpt>
      <trkpt lat="45.26056" lon="0.34284">
        <ele>61</ele>
        <time>2025-04-11T13:12:03Z</time>
      </trkpt>
      <trkpt lat="45.25963" lon="0.34288">
        <ele>61</ele>
        <time>2025-04-11T13:12:19Z</time>
      </trkpt>
      <trkpt lat="45.25925" lon="0.34288">
        <ele>61</ele>
        <time>2025-04-11T13:12:26Z</time>
      </trkpt>
      <trkpt lat="45.25797" lon="0.3429">
        <ele>63</ele>
        <time>2025-04-11T13:12:49Z</time>
      </trkpt>
      <trkpt lat="45.25768" lon="0.34291">
        <ele>62</ele>
        <time>2025-04-11T13:12:54Z</time>
      </trkpt>
      <trkpt lat="45.25715" lon="0.34292">
        <ele>62</ele>
        <time>2025-04-11T13:13:04Z</time>
      </trkpt>
      <trkpt lat="45.25693" lon="0.3429">
        <ele>61</ele>
        <time>2025-04-11T13:13:08Z</time>
      </trkpt>
      <trkpt lat="45.25678" lon="0.34286">
        <ele>61</ele>
        <time>2025-04-11T13:13:10Z</time>
      </trkpt>
      <trkpt lat="45.2566" lon="0.34276">
        <ele>61</ele>
        <time>2025-04-11T13:13:14Z</time>
      </trkpt>
      <trkpt lat="45.25619" lon="0.34246">
        <ele>63</ele>
        <time>2025-04-11T13:13:22Z</time>
      </trkpt>
      <trkpt lat="45.25505" lon="0.34162">
        <ele>65</ele>
        <time>2025-04-11T13:13:45Z</time>
      </trkpt>
      <trkpt lat="45.25472" lon="0.34135">
        <ele>67</ele>
        <time>2025-04-11T13:13:52Z</time>
      </trkpt>
      <trkpt lat="45.25462" lon="0.34115">
        <ele>67</ele>
        <time>2025-04-11T13:13:55Z</time>
      </trkpt>
      <trkpt lat="45.25463" lon="0.34104">
        <ele>67</ele>
        <time>2025-04-11T13:13:56Z</time>
      </trkpt>
      <trkpt lat="45.25462" lon="0.34099">
        <ele>67</ele>
        <time>2025-04-11T13:13:57Z</time>
      </trkpt>
      <trkpt lat="45.25469" lon="0.34083">
        <ele>66</ele>
        <time>2025-04-11T13:13:59Z</time>
      </trkpt>
      <trkpt lat="45.25484" lon="0.34069">
        <ele>66</ele>
        <time>2025-04-11T13:14:02Z</time>
      </trkpt>
      <trkpt lat="45.25494" lon="0.34054">
        <ele>65</ele>
        <time>2025-04-11T13:14:05Z</time>
      </trkpt>
      <trkpt lat="45.255" lon="0.34039">
        <ele>64</ele>
        <time>2025-04-11T13:14:07Z</time>
      </trkpt>
      <trkpt lat="45.25513" lon="0.33978">
        <ele>64</ele>
        <time>2025-04-11T13:14:15Z</time>
      </trkpt>
      <trkpt lat="45.25514" lon="0.33974">
        <ele>64</ele>
        <time>2025-04-11T13:14:15Z</time>
      </trkpt>
      <trkpt lat="45.25547" lon="0.33806">
        <ele>67</ele>
        <time>2025-04-11T13:14:37Z</time>
      </trkpt>
      <trkpt lat="45.25549" lon="0.33787">
        <ele>67</ele>
        <time>2025-04-11T13:14:40Z</time>
      </trkpt>
      <trkpt lat="45.2555" lon="0.33766">
        <ele>68</ele>
        <time>2025-04-11T13:14:42Z</time>
      </trkpt>
      <trkpt lat="45.25541" lon="0.33708">
        <ele>69</ele>
        <time>2025-04-11T13:14:50Z</time>
      </trkpt>
      <trkpt lat="45.25539" lon="0.33679">
        <ele>69</ele>
        <time>2025-04-11T13:14:53Z</time>
      </trkpt>
      <trkpt lat="45.25536" lon="0.33672">
        <ele>70</ele>
        <time>2025-04-11T13:14:54Z</time>
      </trkpt>
      <trkpt lat="45.2553" lon="0.33667">
        <ele>70</ele>
        <time>2025-04-11T13:14:56Z</time>
      </trkpt>
      <trkpt lat="45.25452" lon="0.33655">
        <ele>70</ele>
        <time>2025-04-11T13:15:10Z</time>
      </trkpt>
      <trkpt lat="45.25437" lon="0.3365">
        <ele>69</ele>
        <time>2025-04-11T13:15:12Z</time>
      </trkpt>
      <trkpt lat="45.25125" lon="0.33601">
        <ele>72</ele>
        <time>2025-04-11T13:16:08Z</time>
      </trkpt>
      <trkpt lat="45.25076" lon="0.33593">
        <ele>72</ele>
        <time>2025-04-11T13:16:17Z</time>
      </trkpt>
      <trkpt lat="45.25073" lon="0.33623">
        <ele>71</ele>
        <time>2025-04-11T13:16:21Z</time>
      </trkpt>
      <trkpt lat="45.25077" lon="0.33681">
        <ele>70</ele>
        <time>2025-04-11T13:16:28Z</time>
      </trkpt>
      <trkpt lat="45.24984" lon="0.337">
        <ele>72</ele>
        <time>2025-04-11T13:16:45Z</time>
      </trkpt>
      <trkpt lat="45.24971" lon="0.33702">
        <ele>72</ele>
        <time>2025-04-11T13:16:47Z</time>
      </trkpt>
    </trkseg>
  </trk>
</gpx>